<?xml version="1.0" encoding="UTF-8" standalone="no" ?>
<gpx xmlns="http://www.topografix.com/GPX/1/1" xmlns:xsi="http://www.w3.org/2001/XMLSchema-instance" xsi:schemaLocation="http://www.topografix.com/GPX/1/1 http://www.topografix.com/GPX/1/1/gpx.xsd" version="1.1" creator="VisuGPX - https://www.visugpx.com">
  <metadata>
    <name>Petit Tour d'Evreux</name>
    <desc><![CDATA[Petit parcours ludique
--> Massif forestier de la Madeleine, Voie verte, Bois de St Michel, Quartier Lafayette, Bois des pompiers, Cavée rouge, Gravigny, la censurière, Bois de Nétreville, quartier de Nétreville et de la Madeleine]]></desc>
  </metadata>
  <trk>
    <name><![CDATA[Petit Tour d'Evreux_1]]></name>
    <trkseg>
      <trkpt lat="49.00212" lon="1.13001">
        <ele>171.99028</ele>
        <time>2017-09-19T15:59:38Z</time>
      </trkpt>
      <trkpt lat="49.00212" lon="1.13001">
        <ele>171.99028</ele>
        <time>2017-09-19T15:59:39Z</time>
      </trkpt>
      <trkpt lat="49.00213" lon="1.13018">
        <ele>171.6</ele>
        <time>2017-09-19T15:59:59Z</time>
      </trkpt>
      <trkpt lat="49.00221" lon="1.13028">
        <ele>171.6</ele>
        <time>2017-09-19T16:00:05Z</time>
      </trkpt>
      <trkpt lat="49.00227" lon="1.13039">
        <ele>171.3</ele>
        <time>2017-09-19T16:00:11Z</time>
      </trkpt>
      <trkpt lat="49.00228" lon="1.13054">
        <ele>171.4</ele>
        <time>2017-09-19T16:00:20Z</time>
      </trkpt>
      <trkpt lat="49.00236" lon="1.13062">
        <ele>171.3</ele>
        <time>2017-09-19T16:00:24Z</time>
      </trkpt>
      <trkpt lat="49.00247" lon="1.13063">
        <ele>171.3</ele>
        <time>2017-09-19T16:00:27Z</time>
      </trkpt>
      <trkpt lat="49.00256" lon="1.13062">
        <ele>171.2</ele>
        <time>2017-09-19T16:00:29Z</time>
      </trkpt>
      <trkpt lat="49.00266" lon="1.13061">
        <ele>170.9</ele>
        <time>2017-09-19T16:00:31Z</time>
      </trkpt>
      <trkpt lat="49.00277" lon="1.13063">
        <ele>170.7</ele>
        <time>2017-09-19T16:00:34Z</time>
      </trkpt>
      <trkpt lat="49.00287" lon="1.13062">
        <ele>169.7</ele>
        <time>2017-09-19T16:00:48Z</time>
      </trkpt>
      <trkpt lat="49.00296" lon="1.13055">
        <ele>169.4</ele>
        <time>2017-09-19T16:00:53Z</time>
      </trkpt>
      <trkpt lat="49.00296" lon="1.13038">
        <ele>169.4</ele>
        <time>2017-09-19T16:00:59Z</time>
      </trkpt>
      <trkpt lat="49.00293" lon="1.13024">
        <ele>169.4</ele>
        <time>2017-09-19T16:01:02Z</time>
      </trkpt>
      <trkpt lat="49.00289" lon="1.1301">
        <ele>169.3</ele>
        <time>2017-09-19T16:01:05Z</time>
      </trkpt>
      <trkpt lat="49.00285" lon="1.12997">
        <ele>169.1</ele>
        <time>2017-09-19T16:01:08Z</time>
      </trkpt>
      <trkpt lat="49.00281" lon="1.12985">
        <ele>168.9</ele>
        <time>2017-09-19T16:01:11Z</time>
      </trkpt>
      <trkpt lat="49.00277" lon="1.1297">
        <ele>169.1</ele>
        <time>2017-09-19T16:01:14Z</time>
      </trkpt>
      <trkpt lat="49.00273" lon="1.12954">
        <ele>169.1</ele>
        <time>2017-09-19T16:01:17Z</time>
      </trkpt>
      <trkpt lat="49.00268" lon="1.12938">
        <ele>169</ele>
        <time>2017-09-19T16:01:20Z</time>
      </trkpt>
      <trkpt lat="49.00265" lon="1.12921">
        <ele>168.9</ele>
        <time>2017-09-19T16:01:23Z</time>
      </trkpt>
      <trkpt lat="49.00261" lon="1.12906">
        <ele>169</ele>
        <time>2017-09-19T16:01:26Z</time>
      </trkpt>
      <trkpt lat="49.00258" lon="1.12893">
        <ele>169.1</ele>
        <time>2017-09-19T16:01:29Z</time>
      </trkpt>
      <trkpt lat="49.00255" lon="1.12876">
        <ele>169.1</ele>
        <time>2017-09-19T16:01:32Z</time>
      </trkpt>
      <trkpt lat="49.0026" lon="1.12861">
        <ele>168.9</ele>
        <time>2017-09-19T16:01:35Z</time>
      </trkpt>
      <trkpt lat="49.0026" lon="1.12846">
        <ele>168.8</ele>
        <time>2017-09-19T16:01:38Z</time>
      </trkpt>
      <trkpt lat="49.00255" lon="1.12832">
        <ele>168.4</ele>
        <time>2017-09-19T16:01:41Z</time>
      </trkpt>
      <trkpt lat="49.00256" lon="1.12815">
        <ele>168.7</ele>
        <time>2017-09-19T16:01:44Z</time>
      </trkpt>
      <trkpt lat="49.00257" lon="1.12801">
        <ele>168.8</ele>
        <time>2017-09-19T16:01:46Z</time>
      </trkpt>
      <trkpt lat="49.00258" lon="1.12785">
        <ele>168.6</ele>
        <time>2017-09-19T16:01:48Z</time>
      </trkpt>
      <trkpt lat="49.00258" lon="1.1277">
        <ele>168.1</ele>
        <time>2017-09-19T16:01:50Z</time>
      </trkpt>
      <trkpt lat="49.00261" lon="1.12757">
        <ele>168</ele>
        <time>2017-09-19T16:01:52Z</time>
      </trkpt>
      <trkpt lat="49.00263" lon="1.12743">
        <ele>167.7</ele>
        <time>2017-09-19T16:01:54Z</time>
      </trkpt>
      <trkpt lat="49.00264" lon="1.12726">
        <ele>167.2</ele>
        <time>2017-09-19T16:01:57Z</time>
      </trkpt>
      <trkpt lat="49.00263" lon="1.12709">
        <ele>166.8</ele>
        <time>2017-09-19T16:01:59Z</time>
      </trkpt>
      <trkpt lat="49.00262" lon="1.1269">
        <ele>166.7</ele>
        <time>2017-09-19T16:02:01Z</time>
      </trkpt>
      <trkpt lat="49.0026" lon="1.12671">
        <ele>166.7</ele>
        <time>2017-09-19T16:02:04Z</time>
      </trkpt>
      <trkpt lat="49.0026" lon="1.12652">
        <ele>166.7</ele>
        <time>2017-09-19T16:02:07Z</time>
      </trkpt>
      <trkpt lat="49.00255" lon="1.12635">
        <ele>166.7</ele>
        <time>2017-09-19T16:02:10Z</time>
      </trkpt>
      <trkpt lat="49.00248" lon="1.12621">
        <ele>166.6</ele>
        <time>2017-09-19T16:02:13Z</time>
      </trkpt>
      <trkpt lat="49.00239" lon="1.12608">
        <ele>166.5</ele>
        <time>2017-09-19T16:02:15Z</time>
      </trkpt>
      <trkpt lat="49.00228" lon="1.12597">
        <ele>166.4</ele>
        <time>2017-09-19T16:02:18Z</time>
      </trkpt>
      <trkpt lat="49.00218" lon="1.12585">
        <ele>166</ele>
        <time>2017-09-19T16:02:21Z</time>
      </trkpt>
      <trkpt lat="49.00209" lon="1.12571">
        <ele>165.9</ele>
        <time>2017-09-19T16:02:24Z</time>
      </trkpt>
      <trkpt lat="49.00198" lon="1.12558">
        <ele>165.6</ele>
        <time>2017-09-19T16:02:27Z</time>
      </trkpt>
      <trkpt lat="49.00192" lon="1.12546">
        <ele>165.4</ele>
        <time>2017-09-19T16:02:29Z</time>
      </trkpt>
      <trkpt lat="49.00186" lon="1.12533">
        <ele>165.2</ele>
        <time>2017-09-19T16:02:31Z</time>
      </trkpt>
      <trkpt lat="49.0018" lon="1.1252">
        <ele>164.8</ele>
        <time>2017-09-19T16:02:33Z</time>
      </trkpt>
      <trkpt lat="49.00175" lon="1.12504">
        <ele>164.7</ele>
        <time>2017-09-19T16:02:35Z</time>
      </trkpt>
      <trkpt lat="49.00172" lon="1.12489">
        <ele>164.6</ele>
        <time>2017-09-19T16:02:37Z</time>
      </trkpt>
      <trkpt lat="49.00169" lon="1.12474">
        <ele>164.4</ele>
        <time>2017-09-19T16:02:39Z</time>
      </trkpt>
      <trkpt lat="49.0017" lon="1.12459">
        <ele>164.2</ele>
        <time>2017-09-19T16:02:41Z</time>
      </trkpt>
      <trkpt lat="49.0017" lon="1.12444">
        <ele>164.1</ele>
        <time>2017-09-19T16:02:43Z</time>
      </trkpt>
      <trkpt lat="49.00169" lon="1.1243">
        <ele>163.8</ele>
        <time>2017-09-19T16:02:45Z</time>
      </trkpt>
      <trkpt lat="49.0017" lon="1.12413">
        <ele>163.3</ele>
        <time>2017-09-19T16:02:47Z</time>
      </trkpt>
      <trkpt lat="49.00169" lon="1.12398">
        <ele>163</ele>
        <time>2017-09-19T16:02:49Z</time>
      </trkpt>
      <trkpt lat="49.00167" lon="1.12383">
        <ele>162.5</ele>
        <time>2017-09-19T16:02:51Z</time>
      </trkpt>
      <trkpt lat="49.00165" lon="1.12365">
        <ele>162.2</ele>
        <time>2017-09-19T16:02:53Z</time>
      </trkpt>
      <trkpt lat="49.00162" lon="1.12347">
        <ele>161.3</ele>
        <time>2017-09-19T16:02:55Z</time>
      </trkpt>
      <trkpt lat="49.00162" lon="1.12331">
        <ele>160.3</ele>
        <time>2017-09-19T16:02:58Z</time>
      </trkpt>
      <trkpt lat="49.00172" lon="1.12321">
        <ele>159.3</ele>
        <time>2017-09-19T16:03:02Z</time>
      </trkpt>
      <trkpt lat="49.0018" lon="1.12306">
        <ele>159</ele>
        <time>2017-09-19T16:03:05Z</time>
      </trkpt>
      <trkpt lat="49.00187" lon="1.1229">
        <ele>158.8</ele>
        <time>2017-09-19T16:03:08Z</time>
      </trkpt>
      <trkpt lat="49.00193" lon="1.12279">
        <ele>158.6</ele>
        <time>2017-09-19T16:03:10Z</time>
      </trkpt>
      <trkpt lat="49.00199" lon="1.12268">
        <ele>158.3</ele>
        <time>2017-09-19T16:03:12Z</time>
      </trkpt>
      <trkpt lat="49.00205" lon="1.12254">
        <ele>158</ele>
        <time>2017-09-19T16:03:14Z</time>
      </trkpt>
      <trkpt lat="49.00211" lon="1.12241">
        <ele>157.6</ele>
        <time>2017-09-19T16:03:16Z</time>
      </trkpt>
      <trkpt lat="49.0022" lon="1.12235">
        <ele>156.7</ele>
        <time>2017-09-19T16:03:18Z</time>
      </trkpt>
      <trkpt lat="49.00231" lon="1.12236">
        <ele>155.9</ele>
        <time>2017-09-19T16:03:21Z</time>
      </trkpt>
      <trkpt lat="49.0024" lon="1.12243">
        <ele>155.6</ele>
        <time>2017-09-19T16:03:24Z</time>
      </trkpt>
      <trkpt lat="49.00248" lon="1.12251">
        <ele>155.7</ele>
        <time>2017-09-19T16:03:27Z</time>
      </trkpt>
      <trkpt lat="49.00259" lon="1.12255">
        <ele>155.9</ele>
        <time>2017-09-19T16:03:30Z</time>
      </trkpt>
      <trkpt lat="49.00271" lon="1.12259">
        <ele>156.3</ele>
        <time>2017-09-19T16:03:33Z</time>
      </trkpt>
      <trkpt lat="49.00283" lon="1.12262">
        <ele>156.2</ele>
        <time>2017-09-19T16:03:36Z</time>
      </trkpt>
      <trkpt lat="49.00292" lon="1.12263">
        <ele>156.2</ele>
        <time>2017-09-19T16:03:38Z</time>
      </trkpt>
      <trkpt lat="49.00302" lon="1.12263">
        <ele>155.9</ele>
        <time>2017-09-19T16:03:40Z</time>
      </trkpt>
      <trkpt lat="49.00315" lon="1.12257">
        <ele>155.6</ele>
        <time>2017-09-19T16:03:43Z</time>
      </trkpt>
      <trkpt lat="49.00324" lon="1.1225">
        <ele>155.6</ele>
        <time>2017-09-19T16:03:45Z</time>
      </trkpt>
      <trkpt lat="49.00335" lon="1.12238">
        <ele>155.3</ele>
        <time>2017-09-19T16:03:47Z</time>
      </trkpt>
      <trkpt lat="49.00346" lon="1.12223">
        <ele>154.3</ele>
        <time>2017-09-19T16:03:49Z</time>
      </trkpt>
      <trkpt lat="49.00347" lon="1.12208">
        <ele>153.3</ele>
        <time>2017-09-19T16:03:51Z</time>
      </trkpt>
      <trkpt lat="49.00344" lon="1.12192">
        <ele>153.1</ele>
        <time>2017-09-19T16:03:54Z</time>
      </trkpt>
      <trkpt lat="49.0034" lon="1.12173">
        <ele>153.5</ele>
        <time>2017-09-19T16:03:57Z</time>
      </trkpt>
      <trkpt lat="49.00338" lon="1.12156">
        <ele>153.9</ele>
        <time>2017-09-19T16:04:00Z</time>
      </trkpt>
      <trkpt lat="49.00336" lon="1.1214">
        <ele>154.4</ele>
        <time>2017-09-19T16:04:03Z</time>
      </trkpt>
      <trkpt lat="49.00337" lon="1.12122">
        <ele>154.8</ele>
        <time>2017-09-19T16:04:06Z</time>
      </trkpt>
      <trkpt lat="49.00335" lon="1.12105">
        <ele>155.2</ele>
        <time>2017-09-19T16:04:09Z</time>
      </trkpt>
      <trkpt lat="49.00337" lon="1.12084">
        <ele>155.3</ele>
        <time>2017-09-19T16:04:12Z</time>
      </trkpt>
      <trkpt lat="49.0034" lon="1.12069">
        <ele>154.1</ele>
        <time>2017-09-19T16:04:14Z</time>
      </trkpt>
      <trkpt lat="49.00341" lon="1.12054">
        <ele>153.9</ele>
        <time>2017-09-19T16:04:16Z</time>
      </trkpt>
      <trkpt lat="49.00342" lon="1.12038">
        <ele>153.7</ele>
        <time>2017-09-19T16:04:19Z</time>
      </trkpt>
      <trkpt lat="49.00352" lon="1.12041">
        <ele>154</ele>
        <time>2017-09-19T16:04:26Z</time>
      </trkpt>
      <trkpt lat="49.00355" lon="1.12056">
        <ele>155.3</ele>
        <time>2017-09-19T16:04:33Z</time>
      </trkpt>
      <trkpt lat="49.00345" lon="1.12062">
        <ele>155.2</ele>
        <time>2017-09-19T16:04:37Z</time>
      </trkpt>
      <trkpt lat="49.00339" lon="1.12075">
        <ele>154.5</ele>
        <time>2017-09-19T16:04:41Z</time>
      </trkpt>
      <trkpt lat="49.00341" lon="1.12089">
        <ele>154.7</ele>
        <time>2017-09-19T16:04:46Z</time>
      </trkpt>
      <trkpt lat="49.00352" lon="1.12085">
        <ele>155.6</ele>
        <time>2017-09-19T16:04:51Z</time>
      </trkpt>
      <trkpt lat="49.00362" lon="1.1208">
        <ele>156.5</ele>
        <time>2017-09-19T16:04:56Z</time>
      </trkpt>
      <trkpt lat="49.00373" lon="1.12077">
        <ele>157.2</ele>
        <time>2017-09-19T16:05:00Z</time>
      </trkpt>
      <trkpt lat="49.00382" lon="1.12071">
        <ele>158</ele>
        <time>2017-09-19T16:05:04Z</time>
      </trkpt>
      <trkpt lat="49.00391" lon="1.12068">
        <ele>158.8</ele>
        <time>2017-09-19T16:05:08Z</time>
      </trkpt>
      <trkpt lat="49.00402" lon="1.12067">
        <ele>159.8</ele>
        <time>2017-09-19T16:05:13Z</time>
      </trkpt>
      <trkpt lat="49.00411" lon="1.12061">
        <ele>160.7</ele>
        <time>2017-09-19T16:05:17Z</time>
      </trkpt>
      <trkpt lat="49.00421" lon="1.12058">
        <ele>161.3</ele>
        <time>2017-09-19T16:05:21Z</time>
      </trkpt>
      <trkpt lat="49.0043" lon="1.12052">
        <ele>161.6</ele>
        <time>2017-09-19T16:05:24Z</time>
      </trkpt>
      <trkpt lat="49.00438" lon="1.12045">
        <ele>162.1</ele>
        <time>2017-09-19T16:05:27Z</time>
      </trkpt>
      <trkpt lat="49.00449" lon="1.1204">
        <ele>162.6</ele>
        <time>2017-09-19T16:05:31Z</time>
      </trkpt>
      <trkpt lat="49.00459" lon="1.12034">
        <ele>163.3</ele>
        <time>2017-09-19T16:05:35Z</time>
      </trkpt>
      <trkpt lat="49.00467" lon="1.12023">
        <ele>163.6</ele>
        <time>2017-09-19T16:05:38Z</time>
      </trkpt>
      <trkpt lat="49.00476" lon="1.12012">
        <ele>163.7</ele>
        <time>2017-09-19T16:05:42Z</time>
      </trkpt>
      <trkpt lat="49.00482" lon="1.11995">
        <ele>163.6</ele>
        <time>2017-09-19T16:05:45Z</time>
      </trkpt>
      <trkpt lat="49.00485" lon="1.11982">
        <ele>163.6</ele>
        <time>2017-09-19T16:05:47Z</time>
      </trkpt>
      <trkpt lat="49.0049" lon="1.11964">
        <ele>163.6</ele>
        <time>2017-09-19T16:05:50Z</time>
      </trkpt>
      <trkpt lat="49.00495" lon="1.11947">
        <ele>163.5</ele>
        <time>2017-09-19T16:05:53Z</time>
      </trkpt>
      <trkpt lat="49.00494" lon="1.11931">
        <ele>163.3</ele>
        <time>2017-09-19T16:05:55Z</time>
      </trkpt>
      <trkpt lat="49.00496" lon="1.11917">
        <ele>163.2</ele>
        <time>2017-09-19T16:05:57Z</time>
      </trkpt>
      <trkpt lat="49.00497" lon="1.11903">
        <ele>163</ele>
        <time>2017-09-19T16:05:59Z</time>
      </trkpt>
      <trkpt lat="49.005" lon="1.11884">
        <ele>163</ele>
        <time>2017-09-19T16:06:02Z</time>
      </trkpt>
      <trkpt lat="49.00503" lon="1.1187">
        <ele>163.1</ele>
        <time>2017-09-19T16:06:04Z</time>
      </trkpt>
      <trkpt lat="49.00504" lon="1.11856">
        <ele>163.1</ele>
        <time>2017-09-19T16:06:06Z</time>
      </trkpt>
      <trkpt lat="49.00505" lon="1.11842">
        <ele>163</ele>
        <time>2017-09-19T16:06:08Z</time>
      </trkpt>
      <trkpt lat="49.00508" lon="1.11829">
        <ele>163.1</ele>
        <time>2017-09-19T16:06:10Z</time>
      </trkpt>
      <trkpt lat="49.00511" lon="1.1181">
        <ele>163.1</ele>
        <time>2017-09-19T16:06:13Z</time>
      </trkpt>
      <trkpt lat="49.00517" lon="1.11793">
        <ele>163</ele>
        <time>2017-09-19T16:06:16Z</time>
      </trkpt>
      <trkpt lat="49.00519" lon="1.11779">
        <ele>162.9</ele>
        <time>2017-09-19T16:06:18Z</time>
      </trkpt>
      <trkpt lat="49.00519" lon="1.11765">
        <ele>162.8</ele>
        <time>2017-09-19T16:06:20Z</time>
      </trkpt>
      <trkpt lat="49.0052" lon="1.11746">
        <ele>162.7</ele>
        <time>2017-09-19T16:06:22Z</time>
      </trkpt>
      <trkpt lat="49.00521" lon="1.11731">
        <ele>162.5</ele>
        <time>2017-09-19T16:06:24Z</time>
      </trkpt>
      <trkpt lat="49.00522" lon="1.11716">
        <ele>162.3</ele>
        <time>2017-09-19T16:06:26Z</time>
      </trkpt>
      <trkpt lat="49.00527" lon="1.11702">
        <ele>162</ele>
        <time>2017-09-19T16:06:29Z</time>
      </trkpt>
      <trkpt lat="49.00536" lon="1.11698">
        <ele>162.4</ele>
        <time>2017-09-19T16:06:32Z</time>
      </trkpt>
      <trkpt lat="49.00547" lon="1.11696">
        <ele>163.4</ele>
        <time>2017-09-19T16:06:36Z</time>
      </trkpt>
      <trkpt lat="49.00557" lon="1.117">
        <ele>164.1</ele>
        <time>2017-09-19T16:06:41Z</time>
      </trkpt>
      <trkpt lat="49.00567" lon="1.11696">
        <ele>165</ele>
        <time>2017-09-19T16:06:45Z</time>
      </trkpt>
      <trkpt lat="49.00577" lon="1.11692">
        <ele>165.2</ele>
        <time>2017-09-19T16:06:48Z</time>
      </trkpt>
      <trkpt lat="49.00585" lon="1.117">
        <ele>165.1</ele>
        <time>2017-09-19T16:06:51Z</time>
      </trkpt>
      <trkpt lat="49.00592" lon="1.1171">
        <ele>164.9</ele>
        <time>2017-09-19T16:06:54Z</time>
      </trkpt>
      <trkpt lat="49.00598" lon="1.11723">
        <ele>165</ele>
        <time>2017-09-19T16:06:57Z</time>
      </trkpt>
      <trkpt lat="49.00605" lon="1.11733">
        <ele>165.2</ele>
        <time>2017-09-19T16:07:00Z</time>
      </trkpt>
      <trkpt lat="49.00616" lon="1.11739">
        <ele>165.3</ele>
        <time>2017-09-19T16:07:03Z</time>
      </trkpt>
      <trkpt lat="49.0063" lon="1.11741">
        <ele>164.7</ele>
        <time>2017-09-19T16:07:06Z</time>
      </trkpt>
      <trkpt lat="49.00641" lon="1.1174">
        <ele>163.9</ele>
        <time>2017-09-19T16:07:08Z</time>
      </trkpt>
      <trkpt lat="49.00652" lon="1.11743">
        <ele>162.6</ele>
        <time>2017-09-19T16:07:10Z</time>
      </trkpt>
      <trkpt lat="49.00661" lon="1.11749">
        <ele>161.4</ele>
        <time>2017-09-19T16:07:12Z</time>
      </trkpt>
      <trkpt lat="49.00673" lon="1.11749">
        <ele>160.6</ele>
        <time>2017-09-19T16:07:14Z</time>
      </trkpt>
      <trkpt lat="49.00683" lon="1.1175">
        <ele>160.1</ele>
        <time>2017-09-19T16:07:16Z</time>
      </trkpt>
      <trkpt lat="49.00693" lon="1.11749">
        <ele>160.1</ele>
        <time>2017-09-19T16:07:18Z</time>
      </trkpt>
      <trkpt lat="49.00705" lon="1.11754">
        <ele>160.1</ele>
        <time>2017-09-19T16:07:21Z</time>
      </trkpt>
      <trkpt lat="49.00717" lon="1.11764">
        <ele>160.1</ele>
        <time>2017-09-19T16:07:24Z</time>
      </trkpt>
      <trkpt lat="49.00727" lon="1.11769">
        <ele>159.8</ele>
        <time>2017-09-19T16:07:26Z</time>
      </trkpt>
      <trkpt lat="49.00737" lon="1.11775">
        <ele>159.2</ele>
        <time>2017-09-19T16:07:28Z</time>
      </trkpt>
      <trkpt lat="49.00744" lon="1.11787">
        <ele>158.7</ele>
        <time>2017-09-19T16:07:30Z</time>
      </trkpt>
      <trkpt lat="49.00753" lon="1.11792">
        <ele>158.7</ele>
        <time>2017-09-19T16:07:32Z</time>
      </trkpt>
      <trkpt lat="49.00765" lon="1.11796">
        <ele>159.9</ele>
        <time>2017-09-19T16:07:35Z</time>
      </trkpt>
      <trkpt lat="49.00776" lon="1.11792">
        <ele>161.2</ele>
        <time>2017-09-19T16:07:38Z</time>
      </trkpt>
      <trkpt lat="49.00785" lon="1.11793">
        <ele>161.6</ele>
        <time>2017-09-19T16:07:40Z</time>
      </trkpt>
      <trkpt lat="49.00797" lon="1.11801">
        <ele>162.2</ele>
        <time>2017-09-19T16:07:43Z</time>
      </trkpt>
      <trkpt lat="49.00806" lon="1.11805">
        <ele>162.6</ele>
        <time>2017-09-19T16:07:45Z</time>
      </trkpt>
      <trkpt lat="49.00815" lon="1.11809">
        <ele>162.9</ele>
        <time>2017-09-19T16:07:47Z</time>
      </trkpt>
      <trkpt lat="49.00824" lon="1.11814">
        <ele>163.1</ele>
        <time>2017-09-19T16:07:49Z</time>
      </trkpt>
      <trkpt lat="49.00835" lon="1.11823">
        <ele>163.3</ele>
        <time>2017-09-19T16:07:52Z</time>
      </trkpt>
      <trkpt lat="49.00846" lon="1.11833">
        <ele>163.6</ele>
        <time>2017-09-19T16:07:55Z</time>
      </trkpt>
      <trkpt lat="49.00859" lon="1.1184">
        <ele>163.8</ele>
        <time>2017-09-19T16:07:58Z</time>
      </trkpt>
      <trkpt lat="49.00867" lon="1.11846">
        <ele>163.9</ele>
        <time>2017-09-19T16:08:00Z</time>
      </trkpt>
      <trkpt lat="49.00877" lon="1.11857">
        <ele>164.1</ele>
        <time>2017-09-19T16:08:03Z</time>
      </trkpt>
      <trkpt lat="49.00887" lon="1.11868">
        <ele>164.4</ele>
        <time>2017-09-19T16:08:06Z</time>
      </trkpt>
      <trkpt lat="49.00898" lon="1.11871">
        <ele>164.5</ele>
        <time>2017-09-19T16:08:10Z</time>
      </trkpt>
      <trkpt lat="49.00908" lon="1.11878">
        <ele>164.4</ele>
        <time>2017-09-19T16:08:13Z</time>
      </trkpt>
      <trkpt lat="49.00917" lon="1.11886">
        <ele>164.5</ele>
        <time>2017-09-19T16:08:16Z</time>
      </trkpt>
      <trkpt lat="49.00922" lon="1.11904">
        <ele>164.6</ele>
        <time>2017-09-19T16:08:19Z</time>
      </trkpt>
      <trkpt lat="49.00928" lon="1.1192">
        <ele>164.5</ele>
        <time>2017-09-19T16:08:22Z</time>
      </trkpt>
      <trkpt lat="49.00935" lon="1.11935">
        <ele>164.6</ele>
        <time>2017-09-19T16:08:25Z</time>
      </trkpt>
      <trkpt lat="49.0094" lon="1.1195">
        <ele>164.7</ele>
        <time>2017-09-19T16:08:28Z</time>
      </trkpt>
      <trkpt lat="49.00946" lon="1.11969">
        <ele>164.7</ele>
        <time>2017-09-19T16:08:31Z</time>
      </trkpt>
      <trkpt lat="49.0095" lon="1.11987">
        <ele>164.9</ele>
        <time>2017-09-19T16:08:34Z</time>
      </trkpt>
      <trkpt lat="49.00957" lon="1.12004">
        <ele>164.7</ele>
        <time>2017-09-19T16:08:37Z</time>
      </trkpt>
      <trkpt lat="49.0096" lon="1.12017">
        <ele>164.6</ele>
        <time>2017-09-19T16:08:39Z</time>
      </trkpt>
      <trkpt lat="49.00965" lon="1.12035">
        <ele>164.5</ele>
        <time>2017-09-19T16:08:42Z</time>
      </trkpt>
      <trkpt lat="49.00968" lon="1.12049">
        <ele>164.6</ele>
        <time>2017-09-19T16:08:44Z</time>
      </trkpt>
      <trkpt lat="49.00971" lon="1.12063">
        <ele>164.4</ele>
        <time>2017-09-19T16:08:46Z</time>
      </trkpt>
      <trkpt lat="49.00973" lon="1.12078">
        <ele>164.2</ele>
        <time>2017-09-19T16:08:48Z</time>
      </trkpt>
      <trkpt lat="49.00977" lon="1.12093">
        <ele>164</ele>
        <time>2017-09-19T16:08:50Z</time>
      </trkpt>
      <trkpt lat="49.00982" lon="1.12107">
        <ele>163.8</ele>
        <time>2017-09-19T16:08:52Z</time>
      </trkpt>
      <trkpt lat="49.00986" lon="1.12123">
        <ele>163.8</ele>
        <time>2017-09-19T16:08:54Z</time>
      </trkpt>
      <trkpt lat="49.00991" lon="1.12137">
        <ele>163.5</ele>
        <time>2017-09-19T16:08:56Z</time>
      </trkpt>
      <trkpt lat="49.00995" lon="1.1215">
        <ele>163.4</ele>
        <time>2017-09-19T16:08:58Z</time>
      </trkpt>
      <trkpt lat="49.01" lon="1.12163">
        <ele>163.1</ele>
        <time>2017-09-19T16:09:00Z</time>
      </trkpt>
      <trkpt lat="49.01006" lon="1.12183">
        <ele>162.9</ele>
        <time>2017-09-19T16:09:03Z</time>
      </trkpt>
      <trkpt lat="49.01008" lon="1.12198">
        <ele>162.7</ele>
        <time>2017-09-19T16:09:05Z</time>
      </trkpt>
      <trkpt lat="49.01011" lon="1.12213">
        <ele>162.3</ele>
        <time>2017-09-19T16:09:07Z</time>
      </trkpt>
      <trkpt lat="49.01014" lon="1.12226">
        <ele>162.2</ele>
        <time>2017-09-19T16:09:09Z</time>
      </trkpt>
      <trkpt lat="49.01018" lon="1.1224">
        <ele>162.1</ele>
        <time>2017-09-19T16:09:11Z</time>
      </trkpt>
      <trkpt lat="49.01023" lon="1.12254">
        <ele>162</ele>
        <time>2017-09-19T16:09:13Z</time>
      </trkpt>
      <trkpt lat="49.01025" lon="1.12271">
        <ele>162</ele>
        <time>2017-09-19T16:09:15Z</time>
      </trkpt>
      <trkpt lat="49.01028" lon="1.12285">
        <ele>162.2</ele>
        <time>2017-09-19T16:09:17Z</time>
      </trkpt>
      <trkpt lat="49.0103" lon="1.123">
        <ele>162.4</ele>
        <time>2017-09-19T16:09:19Z</time>
      </trkpt>
      <trkpt lat="49.01034" lon="1.12314">
        <ele>162.4</ele>
        <time>2017-09-19T16:09:21Z</time>
      </trkpt>
      <trkpt lat="49.01038" lon="1.12329">
        <ele>162.5</ele>
        <time>2017-09-19T16:09:23Z</time>
      </trkpt>
      <trkpt lat="49.01042" lon="1.12343">
        <ele>162.6</ele>
        <time>2017-09-19T16:09:25Z</time>
      </trkpt>
      <trkpt lat="49.01047" lon="1.12363">
        <ele>162.7</ele>
        <time>2017-09-19T16:09:28Z</time>
      </trkpt>
      <trkpt lat="49.0105" lon="1.12377">
        <ele>162.8</ele>
        <time>2017-09-19T16:09:30Z</time>
      </trkpt>
      <trkpt lat="49.01055" lon="1.12391">
        <ele>162.8</ele>
        <time>2017-09-19T16:09:32Z</time>
      </trkpt>
      <trkpt lat="49.01058" lon="1.12405">
        <ele>162.9</ele>
        <time>2017-09-19T16:09:34Z</time>
      </trkpt>
      <trkpt lat="49.01062" lon="1.1242">
        <ele>163</ele>
        <time>2017-09-19T16:09:36Z</time>
      </trkpt>
      <trkpt lat="49.01066" lon="1.12434">
        <ele>163.1</ele>
        <time>2017-09-19T16:09:38Z</time>
      </trkpt>
      <trkpt lat="49.0107" lon="1.12449">
        <ele>163.2</ele>
        <time>2017-09-19T16:09:40Z</time>
      </trkpt>
      <trkpt lat="49.01073" lon="1.12463">
        <ele>163.3</ele>
        <time>2017-09-19T16:09:42Z</time>
      </trkpt>
      <trkpt lat="49.01077" lon="1.12482">
        <ele>163.6</ele>
        <time>2017-09-19T16:09:45Z</time>
      </trkpt>
      <trkpt lat="49.01081" lon="1.125">
        <ele>163.7</ele>
        <time>2017-09-19T16:09:48Z</time>
      </trkpt>
      <trkpt lat="49.01083" lon="1.12519">
        <ele>163.9</ele>
        <time>2017-09-19T16:09:51Z</time>
      </trkpt>
      <trkpt lat="49.01089" lon="1.12535">
        <ele>164</ele>
        <time>2017-09-19T16:09:54Z</time>
      </trkpt>
      <trkpt lat="49.01087" lon="1.12551">
        <ele>164.1</ele>
        <time>2017-09-19T16:09:58Z</time>
      </trkpt>
      <trkpt lat="49.01086" lon="1.12566">
        <ele>164.3</ele>
        <time>2017-09-19T16:10:01Z</time>
      </trkpt>
      <trkpt lat="49.01089" lon="1.12585">
        <ele>164.4</ele>
        <time>2017-09-19T16:10:04Z</time>
      </trkpt>
      <trkpt lat="49.01092" lon="1.12604">
        <ele>164.4</ele>
        <time>2017-09-19T16:10:07Z</time>
      </trkpt>
      <trkpt lat="49.01093" lon="1.12622">
        <ele>164.3</ele>
        <time>2017-09-19T16:10:10Z</time>
      </trkpt>
      <trkpt lat="49.01089" lon="1.1264">
        <ele>164.4</ele>
        <time>2017-09-19T16:10:13Z</time>
      </trkpt>
      <trkpt lat="49.01091" lon="1.12654">
        <ele>164.4</ele>
        <time>2017-09-19T16:10:15Z</time>
      </trkpt>
      <trkpt lat="49.01094" lon="1.12668">
        <ele>164.5</ele>
        <time>2017-09-19T16:10:17Z</time>
      </trkpt>
      <trkpt lat="49.01095" lon="1.12682">
        <ele>164.6</ele>
        <time>2017-09-19T16:10:19Z</time>
      </trkpt>
      <trkpt lat="49.01096" lon="1.12698">
        <ele>164.6</ele>
        <time>2017-09-19T16:10:21Z</time>
      </trkpt>
      <trkpt lat="49.01094" lon="1.12712">
        <ele>164.6</ele>
        <time>2017-09-19T16:10:23Z</time>
      </trkpt>
      <trkpt lat="49.01089" lon="1.12726">
        <ele>164.5</ele>
        <time>2017-09-19T16:10:25Z</time>
      </trkpt>
      <trkpt lat="49.01082" lon="1.12737">
        <ele>164.3</ele>
        <time>2017-09-19T16:10:27Z</time>
      </trkpt>
      <trkpt lat="49.01072" lon="1.12748">
        <ele>164.2</ele>
        <time>2017-09-19T16:10:30Z</time>
      </trkpt>
      <trkpt lat="49.01064" lon="1.12764">
        <ele>164.6</ele>
        <time>2017-09-19T16:10:33Z</time>
      </trkpt>
      <trkpt lat="49.01061" lon="1.12778">
        <ele>164.8</ele>
        <time>2017-09-19T16:10:36Z</time>
      </trkpt>
      <trkpt lat="49.01059" lon="1.12794">
        <ele>165.2</ele>
        <time>2017-09-19T16:10:39Z</time>
      </trkpt>
      <trkpt lat="49.01065" lon="1.12808">
        <ele>165.4</ele>
        <time>2017-09-19T16:10:43Z</time>
      </trkpt>
      <trkpt lat="49.0107" lon="1.12821">
        <ele>165.1</ele>
        <time>2017-09-19T16:10:46Z</time>
      </trkpt>
      <trkpt lat="49.01076" lon="1.12838">
        <ele>165</ele>
        <time>2017-09-19T16:10:49Z</time>
      </trkpt>
      <trkpt lat="49.01084" lon="1.12854">
        <ele>165.1</ele>
        <time>2017-09-19T16:10:52Z</time>
      </trkpt>
      <trkpt lat="49.01092" lon="1.12869">
        <ele>164.8</ele>
        <time>2017-09-19T16:10:55Z</time>
      </trkpt>
      <trkpt lat="49.011" lon="1.12883">
        <ele>164.7</ele>
        <time>2017-09-19T16:10:58Z</time>
      </trkpt>
      <trkpt lat="49.01108" lon="1.12892">
        <ele>164.6</ele>
        <time>2017-09-19T16:11:01Z</time>
      </trkpt>
      <trkpt lat="49.01115" lon="1.129">
        <ele>164.2</ele>
        <time>2017-09-19T16:11:04Z</time>
      </trkpt>
      <trkpt lat="49.01124" lon="1.12909">
        <ele>164.2</ele>
        <time>2017-09-19T16:11:07Z</time>
      </trkpt>
      <trkpt lat="49.01128" lon="1.12923">
        <ele>164.1</ele>
        <time>2017-09-19T16:11:10Z</time>
      </trkpt>
      <trkpt lat="49.01136" lon="1.12936">
        <ele>163.8</ele>
        <time>2017-09-19T16:11:13Z</time>
      </trkpt>
      <trkpt lat="49.01148" lon="1.12939">
        <ele>163.5</ele>
        <time>2017-09-19T16:11:16Z</time>
      </trkpt>
      <trkpt lat="49.01161" lon="1.12943">
        <ele>163</ele>
        <time>2017-09-19T16:11:19Z</time>
      </trkpt>
      <trkpt lat="49.01171" lon="1.12946">
        <ele>162.8</ele>
        <time>2017-09-19T16:11:21Z</time>
      </trkpt>
      <trkpt lat="49.01186" lon="1.12949">
        <ele>162.3</ele>
        <time>2017-09-19T16:11:24Z</time>
      </trkpt>
      <trkpt lat="49.01197" lon="1.1295">
        <ele>161.6</ele>
        <time>2017-09-19T16:11:26Z</time>
      </trkpt>
      <trkpt lat="49.01209" lon="1.12952">
        <ele>160.9</ele>
        <time>2017-09-19T16:11:28Z</time>
      </trkpt>
      <trkpt lat="49.01221" lon="1.12953">
        <ele>160.3</ele>
        <time>2017-09-19T16:11:30Z</time>
      </trkpt>
      <trkpt lat="49.01232" lon="1.12955">
        <ele>160</ele>
        <time>2017-09-19T16:11:32Z</time>
      </trkpt>
      <trkpt lat="49.01241" lon="1.12961">
        <ele>159.6</ele>
        <time>2017-09-19T16:11:34Z</time>
      </trkpt>
      <trkpt lat="49.0125" lon="1.12974">
        <ele>158.8</ele>
        <time>2017-09-19T16:11:37Z</time>
      </trkpt>
      <trkpt lat="49.01256" lon="1.12988">
        <ele>158.3</ele>
        <time>2017-09-19T16:11:39Z</time>
      </trkpt>
      <trkpt lat="49.01262" lon="1.13006">
        <ele>157.2</ele>
        <time>2017-09-19T16:11:42Z</time>
      </trkpt>
      <trkpt lat="49.01267" lon="1.13021">
        <ele>155.9</ele>
        <time>2017-09-19T16:11:44Z</time>
      </trkpt>
      <trkpt lat="49.01271" lon="1.13042">
        <ele>154.5</ele>
        <time>2017-09-19T16:11:47Z</time>
      </trkpt>
      <trkpt lat="49.01274" lon="1.13058">
        <ele>155.3</ele>
        <time>2017-09-19T16:11:50Z</time>
      </trkpt>
      <trkpt lat="49.01277" lon="1.13077">
        <ele>156</ele>
        <time>2017-09-19T16:11:53Z</time>
      </trkpt>
      <trkpt lat="49.01284" lon="1.13093">
        <ele>156.9</ele>
        <time>2017-09-19T16:11:56Z</time>
      </trkpt>
      <trkpt lat="49.0129" lon="1.13112">
        <ele>157.8</ele>
        <time>2017-09-19T16:11:59Z</time>
      </trkpt>
      <trkpt lat="49.01295" lon="1.13128">
        <ele>158.3</ele>
        <time>2017-09-19T16:12:02Z</time>
      </trkpt>
      <trkpt lat="49.01298" lon="1.13143">
        <ele>158.8</ele>
        <time>2017-09-19T16:12:05Z</time>
      </trkpt>
      <trkpt lat="49.01299" lon="1.13158">
        <ele>159.1</ele>
        <time>2017-09-19T16:12:08Z</time>
      </trkpt>
      <trkpt lat="49.01302" lon="1.13174">
        <ele>159.3</ele>
        <time>2017-09-19T16:12:12Z</time>
      </trkpt>
      <trkpt lat="49.0131" lon="1.13186">
        <ele>159.4</ele>
        <time>2017-09-19T16:12:16Z</time>
      </trkpt>
      <trkpt lat="49.01317" lon="1.13203">
        <ele>159.6</ele>
        <time>2017-09-19T16:12:20Z</time>
      </trkpt>
      <trkpt lat="49.01322" lon="1.13216">
        <ele>159.4</ele>
        <time>2017-09-19T16:12:23Z</time>
      </trkpt>
      <trkpt lat="49.01328" lon="1.13231">
        <ele>159.5</ele>
        <time>2017-09-19T16:12:26Z</time>
      </trkpt>
      <trkpt lat="49.01337" lon="1.13244">
        <ele>159.5</ele>
        <time>2017-09-19T16:12:29Z</time>
      </trkpt>
      <trkpt lat="49.01345" lon="1.13258">
        <ele>159.5</ele>
        <time>2017-09-19T16:12:32Z</time>
      </trkpt>
      <trkpt lat="49.01352" lon="1.13275">
        <ele>159.4</ele>
        <time>2017-09-19T16:12:35Z</time>
      </trkpt>
      <trkpt lat="49.0136" lon="1.13291">
        <ele>159.1</ele>
        <time>2017-09-19T16:12:38Z</time>
      </trkpt>
      <trkpt lat="49.01367" lon="1.13306">
        <ele>158.9</ele>
        <time>2017-09-19T16:12:41Z</time>
      </trkpt>
      <trkpt lat="49.01376" lon="1.13319">
        <ele>158.6</ele>
        <time>2017-09-19T16:12:44Z</time>
      </trkpt>
      <trkpt lat="49.01385" lon="1.13335">
        <ele>157.6</ele>
        <time>2017-09-19T16:12:47Z</time>
      </trkpt>
      <trkpt lat="49.01392" lon="1.13346">
        <ele>157.5</ele>
        <time>2017-09-19T16:12:49Z</time>
      </trkpt>
      <trkpt lat="49.014" lon="1.13356">
        <ele>157.3</ele>
        <time>2017-09-19T16:12:51Z</time>
      </trkpt>
      <trkpt lat="49.01409" lon="1.13375">
        <ele>156.4</ele>
        <time>2017-09-19T16:12:54Z</time>
      </trkpt>
      <trkpt lat="49.01418" lon="1.13392">
        <ele>156.1</ele>
        <time>2017-09-19T16:12:56Z</time>
      </trkpt>
      <trkpt lat="49.01424" lon="1.13405">
        <ele>155.7</ele>
        <time>2017-09-19T16:12:58Z</time>
      </trkpt>
      <trkpt lat="49.01432" lon="1.13417">
        <ele>155.5</ele>
        <time>2017-09-19T16:13:00Z</time>
      </trkpt>
      <trkpt lat="49.01442" lon="1.13433">
        <ele>155</ele>
        <time>2017-09-19T16:13:02Z</time>
      </trkpt>
      <trkpt lat="49.01451" lon="1.13446">
        <ele>154.3</ele>
        <time>2017-09-19T16:13:04Z</time>
      </trkpt>
      <trkpt lat="49.01462" lon="1.13452">
        <ele>152.7</ele>
        <time>2017-09-19T16:13:08Z</time>
      </trkpt>
      <trkpt lat="49.01467" lon="1.13438">
        <ele>151.8</ele>
        <time>2017-09-19T16:13:11Z</time>
      </trkpt>
      <trkpt lat="49.01468" lon="1.13422">
        <ele>150.8</ele>
        <time>2017-09-19T16:13:14Z</time>
      </trkpt>
      <trkpt lat="49.01467" lon="1.13407">
        <ele>150.2</ele>
        <time>2017-09-19T16:13:17Z</time>
      </trkpt>
      <trkpt lat="49.01479" lon="1.13404">
        <ele>149.2</ele>
        <time>2017-09-19T16:13:22Z</time>
      </trkpt>
      <trkpt lat="49.01488" lon="1.13408">
        <ele>148.5</ele>
        <time>2017-09-19T16:13:24Z</time>
      </trkpt>
      <trkpt lat="49.01497" lon="1.13417">
        <ele>147.2</ele>
        <time>2017-09-19T16:13:27Z</time>
      </trkpt>
      <trkpt lat="49.01497" lon="1.13433">
        <ele>146.4</ele>
        <time>2017-09-19T16:13:29Z</time>
      </trkpt>
      <trkpt lat="49.01501" lon="1.13452">
        <ele>145.7</ele>
        <time>2017-09-19T16:13:32Z</time>
      </trkpt>
      <trkpt lat="49.01508" lon="1.13469">
        <ele>145.5</ele>
        <time>2017-09-19T16:13:35Z</time>
      </trkpt>
      <trkpt lat="49.01513" lon="1.13488">
        <ele>145.5</ele>
        <time>2017-09-19T16:13:38Z</time>
      </trkpt>
      <trkpt lat="49.01516" lon="1.13506">
        <ele>145.4</ele>
        <time>2017-09-19T16:13:41Z</time>
      </trkpt>
      <trkpt lat="49.01519" lon="1.1352">
        <ele>145.5</ele>
        <time>2017-09-19T16:13:43Z</time>
      </trkpt>
      <trkpt lat="49.01523" lon="1.13533">
        <ele>145.4</ele>
        <time>2017-09-19T16:13:45Z</time>
      </trkpt>
      <trkpt lat="49.01525" lon="1.13548">
        <ele>144.7</ele>
        <time>2017-09-19T16:13:47Z</time>
      </trkpt>
      <trkpt lat="49.01524" lon="1.13565">
        <ele>144.3</ele>
        <time>2017-09-19T16:13:50Z</time>
      </trkpt>
      <trkpt lat="49.01524" lon="1.1358">
        <ele>144.2</ele>
        <time>2017-09-19T16:13:54Z</time>
      </trkpt>
      <trkpt lat="49.01528" lon="1.13593">
        <ele>142.4</ele>
        <time>2017-09-19T16:13:58Z</time>
      </trkpt>
      <trkpt lat="49.01537" lon="1.13596">
        <ele>139.9</ele>
        <time>2017-09-19T16:14:03Z</time>
      </trkpt>
      <trkpt lat="49.01543" lon="1.13611">
        <ele>137.7</ele>
        <time>2017-09-19T16:14:07Z</time>
      </trkpt>
      <trkpt lat="49.01548" lon="1.13623">
        <ele>136.8</ele>
        <time>2017-09-19T16:14:10Z</time>
      </trkpt>
      <trkpt lat="49.01553" lon="1.1364">
        <ele>135.3</ele>
        <time>2017-09-19T16:14:13Z</time>
      </trkpt>
      <trkpt lat="49.01553" lon="1.13654">
        <ele>134.4</ele>
        <time>2017-09-19T16:14:15Z</time>
      </trkpt>
      <trkpt lat="49.0156" lon="1.13669">
        <ele>132.4</ele>
        <time>2017-09-19T16:14:18Z</time>
      </trkpt>
      <trkpt lat="49.0157" lon="1.1367">
        <ele>131</ele>
        <time>2017-09-19T16:14:20Z</time>
      </trkpt>
      <trkpt lat="49.01581" lon="1.1367">
        <ele>129.8</ele>
        <time>2017-09-19T16:14:22Z</time>
      </trkpt>
      <trkpt lat="49.01598" lon="1.13674">
        <ele>128.6</ele>
        <time>2017-09-19T16:14:24Z</time>
      </trkpt>
      <trkpt lat="49.01607" lon="1.13676">
        <ele>127.8</ele>
        <time>2017-09-19T16:14:25Z</time>
      </trkpt>
      <trkpt lat="49.01617" lon="1.13677">
        <ele>126.9</ele>
        <time>2017-09-19T16:14:26Z</time>
      </trkpt>
      <trkpt lat="49.01627" lon="1.13677">
        <ele>125.9</ele>
        <time>2017-09-19T16:14:27Z</time>
      </trkpt>
      <trkpt lat="49.01639" lon="1.13671">
        <ele>124.4</ele>
        <time>2017-09-19T16:14:29Z</time>
      </trkpt>
      <trkpt lat="49.01643" lon="1.13655">
        <ele>124</ele>
        <time>2017-09-19T16:14:31Z</time>
      </trkpt>
      <trkpt lat="49.01644" lon="1.13639">
        <ele>123.8</ele>
        <time>2017-09-19T16:14:33Z</time>
      </trkpt>
      <trkpt lat="49.01645" lon="1.13622">
        <ele>123.8</ele>
        <time>2017-09-19T16:14:35Z</time>
      </trkpt>
      <trkpt lat="49.01647" lon="1.13606">
        <ele>123.6</ele>
        <time>2017-09-19T16:14:37Z</time>
      </trkpt>
      <trkpt lat="49.01648" lon="1.13589">
        <ele>123.6</ele>
        <time>2017-09-19T16:14:39Z</time>
      </trkpt>
      <trkpt lat="49.01648" lon="1.13573">
        <ele>123.6</ele>
        <time>2017-09-19T16:14:41Z</time>
      </trkpt>
      <trkpt lat="49.01649" lon="1.13556">
        <ele>123.3</ele>
        <time>2017-09-19T16:14:43Z</time>
      </trkpt>
      <trkpt lat="49.01649" lon="1.13539">
        <ele>123.2</ele>
        <time>2017-09-19T16:14:45Z</time>
      </trkpt>
      <trkpt lat="49.01649" lon="1.13522">
        <ele>123</ele>
        <time>2017-09-19T16:14:47Z</time>
      </trkpt>
      <trkpt lat="49.0165" lon="1.13505">
        <ele>122.8</ele>
        <time>2017-09-19T16:14:49Z</time>
      </trkpt>
      <trkpt lat="49.01652" lon="1.13487">
        <ele>122.7</ele>
        <time>2017-09-19T16:14:51Z</time>
      </trkpt>
      <trkpt lat="49.01654" lon="1.13471">
        <ele>122.5</ele>
        <time>2017-09-19T16:14:53Z</time>
      </trkpt>
      <trkpt lat="49.01657" lon="1.13455">
        <ele>122.3</ele>
        <time>2017-09-19T16:14:55Z</time>
      </trkpt>
      <trkpt lat="49.01661" lon="1.13439">
        <ele>122.1</ele>
        <time>2017-09-19T16:14:57Z</time>
      </trkpt>
      <trkpt lat="49.01663" lon="1.13423">
        <ele>122</ele>
        <time>2017-09-19T16:14:59Z</time>
      </trkpt>
      <trkpt lat="49.01665" lon="1.13406">
        <ele>121.9</ele>
        <time>2017-09-19T16:15:01Z</time>
      </trkpt>
      <trkpt lat="49.01668" lon="1.1339">
        <ele>121.8</ele>
        <time>2017-09-19T16:15:03Z</time>
      </trkpt>
      <trkpt lat="49.01671" lon="1.13373">
        <ele>121.7</ele>
        <time>2017-09-19T16:15:05Z</time>
      </trkpt>
      <trkpt lat="49.01673" lon="1.13355">
        <ele>121.6</ele>
        <time>2017-09-19T16:15:07Z</time>
      </trkpt>
      <trkpt lat="49.01677" lon="1.13338">
        <ele>121.6</ele>
        <time>2017-09-19T16:15:09Z</time>
      </trkpt>
      <trkpt lat="49.01682" lon="1.13322">
        <ele>121.4</ele>
        <time>2017-09-19T16:15:11Z</time>
      </trkpt>
      <trkpt lat="49.01687" lon="1.13307">
        <ele>121.3</ele>
        <time>2017-09-19T16:15:13Z</time>
      </trkpt>
      <trkpt lat="49.01691" lon="1.1329">
        <ele>121.1</ele>
        <time>2017-09-19T16:15:15Z</time>
      </trkpt>
      <trkpt lat="49.01695" lon="1.13274">
        <ele>121</ele>
        <time>2017-09-19T16:15:17Z</time>
      </trkpt>
      <trkpt lat="49.01701" lon="1.13258">
        <ele>120.8</ele>
        <time>2017-09-19T16:15:19Z</time>
      </trkpt>
      <trkpt lat="49.01707" lon="1.13243">
        <ele>120.7</ele>
        <time>2017-09-19T16:15:21Z</time>
      </trkpt>
      <trkpt lat="49.01713" lon="1.13227">
        <ele>120.5</ele>
        <time>2017-09-19T16:15:23Z</time>
      </trkpt>
      <trkpt lat="49.01719" lon="1.13211">
        <ele>120.3</ele>
        <time>2017-09-19T16:15:25Z</time>
      </trkpt>
      <trkpt lat="49.01725" lon="1.13195">
        <ele>120.1</ele>
        <time>2017-09-19T16:15:27Z</time>
      </trkpt>
      <trkpt lat="49.01732" lon="1.13179">
        <ele>119.9</ele>
        <time>2017-09-19T16:15:29Z</time>
      </trkpt>
      <trkpt lat="49.01739" lon="1.13163">
        <ele>119.9</ele>
        <time>2017-09-19T16:15:31Z</time>
      </trkpt>
      <trkpt lat="49.01747" lon="1.13147">
        <ele>119.7</ele>
        <time>2017-09-19T16:15:33Z</time>
      </trkpt>
      <trkpt lat="49.01754" lon="1.13133">
        <ele>119.5</ele>
        <time>2017-09-19T16:15:35Z</time>
      </trkpt>
      <trkpt lat="49.01762" lon="1.13118">
        <ele>119.5</ele>
        <time>2017-09-19T16:15:37Z</time>
      </trkpt>
      <trkpt lat="49.0177" lon="1.13104">
        <ele>119.4</ele>
        <time>2017-09-19T16:15:39Z</time>
      </trkpt>
      <trkpt lat="49.01779" lon="1.13091">
        <ele>119.2</ele>
        <time>2017-09-19T16:15:41Z</time>
      </trkpt>
      <trkpt lat="49.01788" lon="1.13078">
        <ele>119.1</ele>
        <time>2017-09-19T16:15:43Z</time>
      </trkpt>
      <trkpt lat="49.01797" lon="1.13065">
        <ele>119</ele>
        <time>2017-09-19T16:15:45Z</time>
      </trkpt>
      <trkpt lat="49.01806" lon="1.13053">
        <ele>118.9</ele>
        <time>2017-09-19T16:15:47Z</time>
      </trkpt>
      <trkpt lat="49.01815" lon="1.13041">
        <ele>118.7</ele>
        <time>2017-09-19T16:15:49Z</time>
      </trkpt>
      <trkpt lat="49.01825" lon="1.13029">
        <ele>118.5</ele>
        <time>2017-09-19T16:15:51Z</time>
      </trkpt>
      <trkpt lat="49.01835" lon="1.13017">
        <ele>118.3</ele>
        <time>2017-09-19T16:15:53Z</time>
      </trkpt>
      <trkpt lat="49.01845" lon="1.13005">
        <ele>118.1</ele>
        <time>2017-09-19T16:15:55Z</time>
      </trkpt>
      <trkpt lat="49.01856" lon="1.12993">
        <ele>117.9</ele>
        <time>2017-09-19T16:15:57Z</time>
      </trkpt>
      <trkpt lat="49.01866" lon="1.12982">
        <ele>117.8</ele>
        <time>2017-09-19T16:15:59Z</time>
      </trkpt>
      <trkpt lat="49.01876" lon="1.12972">
        <ele>117.8</ele>
        <time>2017-09-19T16:16:01Z</time>
      </trkpt>
      <trkpt lat="49.01886" lon="1.12962">
        <ele>117.7</ele>
        <time>2017-09-19T16:16:03Z</time>
      </trkpt>
      <trkpt lat="49.01897" lon="1.12953">
        <ele>117.5</ele>
        <time>2017-09-19T16:16:05Z</time>
      </trkpt>
      <trkpt lat="49.01908" lon="1.12944">
        <ele>117.3</ele>
        <time>2017-09-19T16:16:07Z</time>
      </trkpt>
      <trkpt lat="49.01919" lon="1.12935">
        <ele>117.3</ele>
        <time>2017-09-19T16:16:09Z</time>
      </trkpt>
      <trkpt lat="49.01931" lon="1.12926">
        <ele>117.1</ele>
        <time>2017-09-19T16:16:11Z</time>
      </trkpt>
      <trkpt lat="49.01942" lon="1.12917">
        <ele>116.9</ele>
        <time>2017-09-19T16:16:13Z</time>
      </trkpt>
      <trkpt lat="49.01953" lon="1.12908">
        <ele>116.8</ele>
        <time>2017-09-19T16:16:15Z</time>
      </trkpt>
      <trkpt lat="49.01965" lon="1.12897">
        <ele>116.6</ele>
        <time>2017-09-19T16:16:17Z</time>
      </trkpt>
      <trkpt lat="49.01976" lon="1.12888">
        <ele>116.4</ele>
        <time>2017-09-19T16:16:19Z</time>
      </trkpt>
      <trkpt lat="49.01987" lon="1.12879">
        <ele>116.2</ele>
        <time>2017-09-19T16:16:21Z</time>
      </trkpt>
      <trkpt lat="49.01998" lon="1.1287">
        <ele>116.1</ele>
        <time>2017-09-19T16:16:23Z</time>
      </trkpt>
      <trkpt lat="49.0201" lon="1.1286">
        <ele>116</ele>
        <time>2017-09-19T16:16:25Z</time>
      </trkpt>
      <trkpt lat="49.0202" lon="1.1285">
        <ele>115.9</ele>
        <time>2017-09-19T16:16:27Z</time>
      </trkpt>
      <trkpt lat="49.02031" lon="1.12839">
        <ele>115.8</ele>
        <time>2017-09-19T16:16:29Z</time>
      </trkpt>
      <trkpt lat="49.02042" lon="1.12828">
        <ele>115.8</ele>
        <time>2017-09-19T16:16:31Z</time>
      </trkpt>
      <trkpt lat="49.02053" lon="1.12817">
        <ele>115.7</ele>
        <time>2017-09-19T16:16:33Z</time>
      </trkpt>
      <trkpt lat="49.02063" lon="1.12805">
        <ele>115.7</ele>
        <time>2017-09-19T16:16:35Z</time>
      </trkpt>
      <trkpt lat="49.02073" lon="1.12793">
        <ele>115.5</ele>
        <time>2017-09-19T16:16:37Z</time>
      </trkpt>
      <trkpt lat="49.02084" lon="1.12781">
        <ele>115.3</ele>
        <time>2017-09-19T16:16:39Z</time>
      </trkpt>
      <trkpt lat="49.02094" lon="1.12769">
        <ele>115.1</ele>
        <time>2017-09-19T16:16:41Z</time>
      </trkpt>
      <trkpt lat="49.02104" lon="1.12758">
        <ele>115.1</ele>
        <time>2017-09-19T16:16:43Z</time>
      </trkpt>
      <trkpt lat="49.02113" lon="1.12746">
        <ele>115.1</ele>
        <time>2017-09-19T16:16:45Z</time>
      </trkpt>
      <trkpt lat="49.02123" lon="1.12733">
        <ele>114.9</ele>
        <time>2017-09-19T16:16:47Z</time>
      </trkpt>
      <trkpt lat="49.02132" lon="1.12721">
        <ele>114.9</ele>
        <time>2017-09-19T16:16:49Z</time>
      </trkpt>
      <trkpt lat="49.02141" lon="1.12708">
        <ele>115</ele>
        <time>2017-09-19T16:16:51Z</time>
      </trkpt>
      <trkpt lat="49.02149" lon="1.12694">
        <ele>114.9</ele>
        <time>2017-09-19T16:16:53Z</time>
      </trkpt>
      <trkpt lat="49.02158" lon="1.12681">
        <ele>114.8</ele>
        <time>2017-09-19T16:16:55Z</time>
      </trkpt>
      <trkpt lat="49.02166" lon="1.12668">
        <ele>114.8</ele>
        <time>2017-09-19T16:16:57Z</time>
      </trkpt>
      <trkpt lat="49.02175" lon="1.12656">
        <ele>114.9</ele>
        <time>2017-09-19T16:16:59Z</time>
      </trkpt>
      <trkpt lat="49.02184" lon="1.12642">
        <ele>114.9</ele>
        <time>2017-09-19T16:17:01Z</time>
      </trkpt>
      <trkpt lat="49.02192" lon="1.12629">
        <ele>114.8</ele>
        <time>2017-09-19T16:17:03Z</time>
      </trkpt>
      <trkpt lat="49.02201" lon="1.12614">
        <ele>114.8</ele>
        <time>2017-09-19T16:17:05Z</time>
      </trkpt>
      <trkpt lat="49.02209" lon="1.126">
        <ele>114.8</ele>
        <time>2017-09-19T16:17:07Z</time>
      </trkpt>
      <trkpt lat="49.02218" lon="1.12586">
        <ele>114.8</ele>
        <time>2017-09-19T16:17:09Z</time>
      </trkpt>
      <trkpt lat="49.02226" lon="1.12572">
        <ele>114.8</ele>
        <time>2017-09-19T16:17:12Z</time>
      </trkpt>
      <trkpt lat="49.02232" lon="1.12561">
        <ele>116</ele>
        <time>2017-09-19T16:17:30Z</time>
      </trkpt>
      <trkpt lat="49.02239" lon="1.1255">
        <ele>115.9</ele>
        <time>2017-09-19T16:17:34Z</time>
      </trkpt>
      <trkpt lat="49.02247" lon="1.1254">
        <ele>115.9</ele>
        <time>2017-09-19T16:17:37Z</time>
      </trkpt>
      <trkpt lat="49.02256" lon="1.12527">
        <ele>115.9</ele>
        <time>2017-09-19T16:17:40Z</time>
      </trkpt>
      <trkpt lat="49.02265" lon="1.12512">
        <ele>116.1</ele>
        <time>2017-09-19T16:17:43Z</time>
      </trkpt>
      <trkpt lat="49.02272" lon="1.12502">
        <ele>116.1</ele>
        <time>2017-09-19T16:17:45Z</time>
      </trkpt>
      <trkpt lat="49.0228" lon="1.12492">
        <ele>116.1</ele>
        <time>2017-09-19T16:17:47Z</time>
      </trkpt>
      <trkpt lat="49.02287" lon="1.12481">
        <ele>116.2</ele>
        <time>2017-09-19T16:17:49Z</time>
      </trkpt>
      <trkpt lat="49.02295" lon="1.12472">
        <ele>116.2</ele>
        <time>2017-09-19T16:17:51Z</time>
      </trkpt>
      <trkpt lat="49.02303" lon="1.12462">
        <ele>116.1</ele>
        <time>2017-09-19T16:17:53Z</time>
      </trkpt>
      <trkpt lat="49.02312" lon="1.12452">
        <ele>116.3</ele>
        <time>2017-09-19T16:17:55Z</time>
      </trkpt>
      <trkpt lat="49.0232" lon="1.12441">
        <ele>116.3</ele>
        <time>2017-09-19T16:17:57Z</time>
      </trkpt>
      <trkpt lat="49.02329" lon="1.12432">
        <ele>116.4</ele>
        <time>2017-09-19T16:17:59Z</time>
      </trkpt>
      <trkpt lat="49.02337" lon="1.12423">
        <ele>116.5</ele>
        <time>2017-09-19T16:18:01Z</time>
      </trkpt>
      <trkpt lat="49.02346" lon="1.12415">
        <ele>116.6</ele>
        <time>2017-09-19T16:18:03Z</time>
      </trkpt>
      <trkpt lat="49.02355" lon="1.12406">
        <ele>116.8</ele>
        <time>2017-09-19T16:18:05Z</time>
      </trkpt>
      <trkpt lat="49.02364" lon="1.12397">
        <ele>116.7</ele>
        <time>2017-09-19T16:18:07Z</time>
      </trkpt>
      <trkpt lat="49.02374" lon="1.12389">
        <ele>116.8</ele>
        <time>2017-09-19T16:18:09Z</time>
      </trkpt>
      <trkpt lat="49.02386" lon="1.12381">
        <ele>116.8</ele>
        <time>2017-09-19T16:18:12Z</time>
      </trkpt>
      <trkpt lat="49.02396" lon="1.12373">
        <ele>117</ele>
        <time>2017-09-19T16:18:14Z</time>
      </trkpt>
      <trkpt lat="49.02407" lon="1.12365">
        <ele>117</ele>
        <time>2017-09-19T16:18:16Z</time>
      </trkpt>
      <trkpt lat="49.02419" lon="1.12359">
        <ele>117.1</ele>
        <time>2017-09-19T16:18:18Z</time>
      </trkpt>
      <trkpt lat="49.0243" lon="1.12352">
        <ele>117.2</ele>
        <time>2017-09-19T16:18:20Z</time>
      </trkpt>
      <trkpt lat="49.02441" lon="1.12347">
        <ele>117.4</ele>
        <time>2017-09-19T16:18:22Z</time>
      </trkpt>
      <trkpt lat="49.02452" lon="1.12341">
        <ele>117.6</ele>
        <time>2017-09-19T16:18:24Z</time>
      </trkpt>
      <trkpt lat="49.02462" lon="1.12336">
        <ele>117.9</ele>
        <time>2017-09-19T16:18:26Z</time>
      </trkpt>
      <trkpt lat="49.02472" lon="1.12333">
        <ele>118</ele>
        <time>2017-09-19T16:18:28Z</time>
      </trkpt>
      <trkpt lat="49.02483" lon="1.12329">
        <ele>118.2</ele>
        <time>2017-09-19T16:18:30Z</time>
      </trkpt>
      <trkpt lat="49.02493" lon="1.12326">
        <ele>118.3</ele>
        <time>2017-09-19T16:18:32Z</time>
      </trkpt>
      <trkpt lat="49.02507" lon="1.12323">
        <ele>118.5</ele>
        <time>2017-09-19T16:18:35Z</time>
      </trkpt>
      <trkpt lat="49.02518" lon="1.1232">
        <ele>118.7</ele>
        <time>2017-09-19T16:18:37Z</time>
      </trkpt>
      <trkpt lat="49.0253" lon="1.12317">
        <ele>118.9</ele>
        <time>2017-09-19T16:18:39Z</time>
      </trkpt>
      <trkpt lat="49.02541" lon="1.12316">
        <ele>119.1</ele>
        <time>2017-09-19T16:18:41Z</time>
      </trkpt>
      <trkpt lat="49.02553" lon="1.12314">
        <ele>119.1</ele>
        <time>2017-09-19T16:18:43Z</time>
      </trkpt>
      <trkpt lat="49.02565" lon="1.12314">
        <ele>119.2</ele>
        <time>2017-09-19T16:18:45Z</time>
      </trkpt>
      <trkpt lat="49.02576" lon="1.12313">
        <ele>119.3</ele>
        <time>2017-09-19T16:18:47Z</time>
      </trkpt>
      <trkpt lat="49.02588" lon="1.12313">
        <ele>119.5</ele>
        <time>2017-09-19T16:18:49Z</time>
      </trkpt>
      <trkpt lat="49.026" lon="1.12314">
        <ele>119.5</ele>
        <time>2017-09-19T16:18:51Z</time>
      </trkpt>
      <trkpt lat="49.02612" lon="1.12314">
        <ele>119.6</ele>
        <time>2017-09-19T16:18:53Z</time>
      </trkpt>
      <trkpt lat="49.02623" lon="1.12315">
        <ele>119.7</ele>
        <time>2017-09-19T16:18:55Z</time>
      </trkpt>
      <trkpt lat="49.02635" lon="1.12317">
        <ele>119.8</ele>
        <time>2017-09-19T16:18:57Z</time>
      </trkpt>
      <trkpt lat="49.02646" lon="1.12319">
        <ele>119.9</ele>
        <time>2017-09-19T16:18:59Z</time>
      </trkpt>
      <trkpt lat="49.02658" lon="1.12321">
        <ele>120</ele>
        <time>2017-09-19T16:19:01Z</time>
      </trkpt>
      <trkpt lat="49.02669" lon="1.12323">
        <ele>120</ele>
        <time>2017-09-19T16:19:03Z</time>
      </trkpt>
      <trkpt lat="49.0268" lon="1.12325">
        <ele>120.1</ele>
        <time>2017-09-19T16:19:05Z</time>
      </trkpt>
      <trkpt lat="49.02691" lon="1.12326">
        <ele>120.1</ele>
        <time>2017-09-19T16:19:07Z</time>
      </trkpt>
      <trkpt lat="49.02702" lon="1.12328">
        <ele>120.3</ele>
        <time>2017-09-19T16:19:09Z</time>
      </trkpt>
      <trkpt lat="49.02714" lon="1.1233">
        <ele>120.5</ele>
        <time>2017-09-19T16:19:11Z</time>
      </trkpt>
      <trkpt lat="49.02724" lon="1.12332">
        <ele>120.6</ele>
        <time>2017-09-19T16:19:13Z</time>
      </trkpt>
      <trkpt lat="49.02735" lon="1.12334">
        <ele>120.6</ele>
        <time>2017-09-19T16:19:15Z</time>
      </trkpt>
      <trkpt lat="49.02746" lon="1.12336">
        <ele>120.7</ele>
        <time>2017-09-19T16:19:17Z</time>
      </trkpt>
      <trkpt lat="49.02756" lon="1.12338">
        <ele>120.7</ele>
        <time>2017-09-19T16:19:19Z</time>
      </trkpt>
      <trkpt lat="49.02768" lon="1.12339">
        <ele>121</ele>
        <time>2017-09-19T16:19:21Z</time>
      </trkpt>
      <trkpt lat="49.0278" lon="1.12341">
        <ele>121.2</ele>
        <time>2017-09-19T16:19:23Z</time>
      </trkpt>
      <trkpt lat="49.02791" lon="1.12343">
        <ele>121.3</ele>
        <time>2017-09-19T16:19:25Z</time>
      </trkpt>
      <trkpt lat="49.02801" lon="1.12345">
        <ele>121.4</ele>
        <time>2017-09-19T16:19:27Z</time>
      </trkpt>
      <trkpt lat="49.02812" lon="1.12347">
        <ele>121.7</ele>
        <time>2017-09-19T16:19:29Z</time>
      </trkpt>
      <trkpt lat="49.02823" lon="1.12348">
        <ele>121.8</ele>
        <time>2017-09-19T16:19:31Z</time>
      </trkpt>
      <trkpt lat="49.02834" lon="1.12351">
        <ele>121.7</ele>
        <time>2017-09-19T16:19:33Z</time>
      </trkpt>
      <trkpt lat="49.02844" lon="1.12353">
        <ele>121.7</ele>
        <time>2017-09-19T16:19:35Z</time>
      </trkpt>
      <trkpt lat="49.02855" lon="1.12356">
        <ele>121.8</ele>
        <time>2017-09-19T16:19:37Z</time>
      </trkpt>
      <trkpt lat="49.02865" lon="1.12359">
        <ele>122</ele>
        <time>2017-09-19T16:19:39Z</time>
      </trkpt>
      <trkpt lat="49.02876" lon="1.12361">
        <ele>122.2</ele>
        <time>2017-09-19T16:19:41Z</time>
      </trkpt>
      <trkpt lat="49.02887" lon="1.12362">
        <ele>122.4</ele>
        <time>2017-09-19T16:19:43Z</time>
      </trkpt>
      <trkpt lat="49.02899" lon="1.12363">
        <ele>122.5</ele>
        <time>2017-09-19T16:19:45Z</time>
      </trkpt>
      <trkpt lat="49.0291" lon="1.12365">
        <ele>122.6</ele>
        <time>2017-09-19T16:19:47Z</time>
      </trkpt>
      <trkpt lat="49.02921" lon="1.12368">
        <ele>122.7</ele>
        <time>2017-09-19T16:19:49Z</time>
      </trkpt>
      <trkpt lat="49.02933" lon="1.12369">
        <ele>122.8</ele>
        <time>2017-09-19T16:19:51Z</time>
      </trkpt>
      <trkpt lat="49.02945" lon="1.12371">
        <ele>122.8</ele>
        <time>2017-09-19T16:19:53Z</time>
      </trkpt>
      <trkpt lat="49.02955" lon="1.12373">
        <ele>122.9</ele>
        <time>2017-09-19T16:19:55Z</time>
      </trkpt>
      <trkpt lat="49.02967" lon="1.12375">
        <ele>123</ele>
        <time>2017-09-19T16:19:57Z</time>
      </trkpt>
      <trkpt lat="49.02979" lon="1.12376">
        <ele>123.1</ele>
        <time>2017-09-19T16:19:59Z</time>
      </trkpt>
      <trkpt lat="49.0299" lon="1.12378">
        <ele>123.2</ele>
        <time>2017-09-19T16:20:01Z</time>
      </trkpt>
      <trkpt lat="49.03002" lon="1.1238">
        <ele>123.4</ele>
        <time>2017-09-19T16:20:03Z</time>
      </trkpt>
      <trkpt lat="49.03014" lon="1.12382">
        <ele>123.5</ele>
        <time>2017-09-19T16:20:05Z</time>
      </trkpt>
      <trkpt lat="49.03024" lon="1.12384">
        <ele>123.7</ele>
        <time>2017-09-19T16:20:07Z</time>
      </trkpt>
      <trkpt lat="49.03036" lon="1.12384">
        <ele>123.9</ele>
        <time>2017-09-19T16:20:09Z</time>
      </trkpt>
      <trkpt lat="49.03048" lon="1.12386">
        <ele>124.1</ele>
        <time>2017-09-19T16:20:11Z</time>
      </trkpt>
      <trkpt lat="49.03059" lon="1.12386">
        <ele>124.2</ele>
        <time>2017-09-19T16:20:13Z</time>
      </trkpt>
      <trkpt lat="49.03071" lon="1.12386">
        <ele>124.2</ele>
        <time>2017-09-19T16:20:15Z</time>
      </trkpt>
      <trkpt lat="49.03083" lon="1.12386">
        <ele>124.3</ele>
        <time>2017-09-19T16:20:17Z</time>
      </trkpt>
      <trkpt lat="49.03094" lon="1.12385">
        <ele>124.5</ele>
        <time>2017-09-19T16:20:19Z</time>
      </trkpt>
      <trkpt lat="49.03106" lon="1.12383">
        <ele>124.7</ele>
        <time>2017-09-19T16:20:21Z</time>
      </trkpt>
      <trkpt lat="49.03118" lon="1.12381">
        <ele>124.8</ele>
        <time>2017-09-19T16:20:23Z</time>
      </trkpt>
      <trkpt lat="49.0313" lon="1.12379">
        <ele>124.9</ele>
        <time>2017-09-19T16:20:25Z</time>
      </trkpt>
      <trkpt lat="49.03141" lon="1.12376">
        <ele>125</ele>
        <time>2017-09-19T16:20:27Z</time>
      </trkpt>
      <trkpt lat="49.03153" lon="1.12373">
        <ele>125.1</ele>
        <time>2017-09-19T16:20:29Z</time>
      </trkpt>
      <trkpt lat="49.03165" lon="1.1237">
        <ele>125.4</ele>
        <time>2017-09-19T16:20:31Z</time>
      </trkpt>
      <trkpt lat="49.03175" lon="1.12366">
        <ele>125.5</ele>
        <time>2017-09-19T16:20:33Z</time>
      </trkpt>
      <trkpt lat="49.03186" lon="1.12362">
        <ele>125.5</ele>
        <time>2017-09-19T16:20:35Z</time>
      </trkpt>
      <trkpt lat="49.03196" lon="1.12357">
        <ele>125.6</ele>
        <time>2017-09-19T16:20:37Z</time>
      </trkpt>
      <trkpt lat="49.03207" lon="1.12353">
        <ele>125.8</ele>
        <time>2017-09-19T16:20:39Z</time>
      </trkpt>
      <trkpt lat="49.03219" lon="1.12348">
        <ele>126.1</ele>
        <time>2017-09-19T16:20:41Z</time>
      </trkpt>
      <trkpt lat="49.03229" lon="1.12342">
        <ele>126.3</ele>
        <time>2017-09-19T16:20:43Z</time>
      </trkpt>
      <trkpt lat="49.0324" lon="1.12336">
        <ele>126.4</ele>
        <time>2017-09-19T16:20:45Z</time>
      </trkpt>
      <trkpt lat="49.03251" lon="1.12329">
        <ele>126.5</ele>
        <time>2017-09-19T16:20:47Z</time>
      </trkpt>
      <trkpt lat="49.03261" lon="1.12321">
        <ele>126.6</ele>
        <time>2017-09-19T16:20:49Z</time>
      </trkpt>
      <trkpt lat="49.03271" lon="1.12314">
        <ele>126.7</ele>
        <time>2017-09-19T16:20:51Z</time>
      </trkpt>
      <trkpt lat="49.03281" lon="1.12306">
        <ele>126.7</ele>
        <time>2017-09-19T16:20:53Z</time>
      </trkpt>
      <trkpt lat="49.03292" lon="1.12297">
        <ele>126.8</ele>
        <time>2017-09-19T16:20:55Z</time>
      </trkpt>
      <trkpt lat="49.03301" lon="1.12289">
        <ele>127</ele>
        <time>2017-09-19T16:20:57Z</time>
      </trkpt>
      <trkpt lat="49.03311" lon="1.12281">
        <ele>127</ele>
        <time>2017-09-19T16:20:59Z</time>
      </trkpt>
      <trkpt lat="49.03321" lon="1.12271">
        <ele>127.1</ele>
        <time>2017-09-19T16:21:01Z</time>
      </trkpt>
      <trkpt lat="49.0333" lon="1.12261">
        <ele>127.1</ele>
        <time>2017-09-19T16:21:03Z</time>
      </trkpt>
      <trkpt lat="49.03339" lon="1.1225">
        <ele>127</ele>
        <time>2017-09-19T16:21:05Z</time>
      </trkpt>
      <trkpt lat="49.03349" lon="1.12239">
        <ele>127.1</ele>
        <time>2017-09-19T16:21:07Z</time>
      </trkpt>
      <trkpt lat="49.03357" lon="1.12228">
        <ele>127.2</ele>
        <time>2017-09-19T16:21:09Z</time>
      </trkpt>
      <trkpt lat="49.03366" lon="1.12217">
        <ele>127.5</ele>
        <time>2017-09-19T16:21:11Z</time>
      </trkpt>
      <trkpt lat="49.03375" lon="1.12205">
        <ele>127.6</ele>
        <time>2017-09-19T16:21:13Z</time>
      </trkpt>
      <trkpt lat="49.03383" lon="1.12195">
        <ele>127.8</ele>
        <time>2017-09-19T16:21:15Z</time>
      </trkpt>
      <trkpt lat="49.03391" lon="1.12183">
        <ele>127.9</ele>
        <time>2017-09-19T16:21:17Z</time>
      </trkpt>
      <trkpt lat="49.034" lon="1.1217">
        <ele>128</ele>
        <time>2017-09-19T16:21:19Z</time>
      </trkpt>
      <trkpt lat="49.03407" lon="1.12157">
        <ele>128.2</ele>
        <time>2017-09-19T16:21:21Z</time>
      </trkpt>
      <trkpt lat="49.03415" lon="1.12143">
        <ele>128.3</ele>
        <time>2017-09-19T16:21:23Z</time>
      </trkpt>
      <trkpt lat="49.03423" lon="1.1213">
        <ele>128.5</ele>
        <time>2017-09-19T16:21:25Z</time>
      </trkpt>
      <trkpt lat="49.0343" lon="1.12117">
        <ele>128.7</ele>
        <time>2017-09-19T16:21:27Z</time>
      </trkpt>
      <trkpt lat="49.03437" lon="1.12104">
        <ele>128.9</ele>
        <time>2017-09-19T16:21:29Z</time>
      </trkpt>
      <trkpt lat="49.03444" lon="1.12091">
        <ele>129</ele>
        <time>2017-09-19T16:21:31Z</time>
      </trkpt>
      <trkpt lat="49.03451" lon="1.1208">
        <ele>129.2</ele>
        <time>2017-09-19T16:21:33Z</time>
      </trkpt>
      <trkpt lat="49.03457" lon="1.12069">
        <ele>129.4</ele>
        <time>2017-09-19T16:21:35Z</time>
      </trkpt>
      <trkpt lat="49.03463" lon="1.12058">
        <ele>129.4</ele>
        <time>2017-09-19T16:21:37Z</time>
      </trkpt>
      <trkpt lat="49.03469" lon="1.12047">
        <ele>129.7</ele>
        <time>2017-09-19T16:21:39Z</time>
      </trkpt>
      <trkpt lat="49.03475" lon="1.12034">
        <ele>129.8</ele>
        <time>2017-09-19T16:21:41Z</time>
      </trkpt>
      <trkpt lat="49.03481" lon="1.12021">
        <ele>129.9</ele>
        <time>2017-09-19T16:21:43Z</time>
      </trkpt>
      <trkpt lat="49.03488" lon="1.12008">
        <ele>130.1</ele>
        <time>2017-09-19T16:21:45Z</time>
      </trkpt>
      <trkpt lat="49.03495" lon="1.11995">
        <ele>130.3</ele>
        <time>2017-09-19T16:21:47Z</time>
      </trkpt>
      <trkpt lat="49.03503" lon="1.11982">
        <ele>130.4</ele>
        <time>2017-09-19T16:21:49Z</time>
      </trkpt>
      <trkpt lat="49.0351" lon="1.11969">
        <ele>130.6</ele>
        <time>2017-09-19T16:21:51Z</time>
      </trkpt>
      <trkpt lat="49.03518" lon="1.11956">
        <ele>130.8</ele>
        <time>2017-09-19T16:21:53Z</time>
      </trkpt>
      <trkpt lat="49.03525" lon="1.11942">
        <ele>130.8</ele>
        <time>2017-09-19T16:21:55Z</time>
      </trkpt>
      <trkpt lat="49.03533" lon="1.11929">
        <ele>131</ele>
        <time>2017-09-19T16:21:57Z</time>
      </trkpt>
      <trkpt lat="49.0354" lon="1.11917">
        <ele>131.2</ele>
        <time>2017-09-19T16:21:59Z</time>
      </trkpt>
      <trkpt lat="49.03548" lon="1.11904">
        <ele>131.3</ele>
        <time>2017-09-19T16:22:01Z</time>
      </trkpt>
      <trkpt lat="49.03555" lon="1.11891">
        <ele>131.4</ele>
        <time>2017-09-19T16:22:03Z</time>
      </trkpt>
      <trkpt lat="49.03562" lon="1.11878">
        <ele>131.4</ele>
        <time>2017-09-19T16:22:05Z</time>
      </trkpt>
      <trkpt lat="49.03569" lon="1.11868">
        <ele>131.4</ele>
        <time>2017-09-19T16:22:07Z</time>
      </trkpt>
      <trkpt lat="49.03576" lon="1.11853">
        <ele>131.3</ele>
        <time>2017-09-19T16:22:09Z</time>
      </trkpt>
      <trkpt lat="49.03583" lon="1.11839">
        <ele>131.5</ele>
        <time>2017-09-19T16:22:11Z</time>
      </trkpt>
      <trkpt lat="49.03591" lon="1.11825">
        <ele>131.6</ele>
        <time>2017-09-19T16:22:13Z</time>
      </trkpt>
      <trkpt lat="49.03599" lon="1.11813">
        <ele>131.7</ele>
        <time>2017-09-19T16:22:15Z</time>
      </trkpt>
      <trkpt lat="49.03609" lon="1.11803">
        <ele>131.8</ele>
        <time>2017-09-19T16:22:17Z</time>
      </trkpt>
      <trkpt lat="49.0362" lon="1.11803">
        <ele>131.6</ele>
        <time>2017-09-19T16:22:19Z</time>
      </trkpt>
      <trkpt lat="49.03629" lon="1.118">
        <ele>131.1</ele>
        <time>2017-09-19T16:22:21Z</time>
      </trkpt>
      <trkpt lat="49.03639" lon="1.11797">
        <ele>130.4</ele>
        <time>2017-09-19T16:22:23Z</time>
      </trkpt>
      <trkpt lat="49.03654" lon="1.11804">
        <ele>129.8</ele>
        <time>2017-09-19T16:22:25Z</time>
      </trkpt>
      <trkpt lat="49.03665" lon="1.11811">
        <ele>129.5</ele>
        <time>2017-09-19T16:22:27Z</time>
      </trkpt>
      <trkpt lat="49.03678" lon="1.11815">
        <ele>129.3</ele>
        <time>2017-09-19T16:22:29Z</time>
      </trkpt>
      <trkpt lat="49.03689" lon="1.1182">
        <ele>129.1</ele>
        <time>2017-09-19T16:22:31Z</time>
      </trkpt>
      <trkpt lat="49.037" lon="1.11825">
        <ele>129.1</ele>
        <time>2017-09-19T16:22:33Z</time>
      </trkpt>
      <trkpt lat="49.03712" lon="1.11827">
        <ele>129.2</ele>
        <time>2017-09-19T16:22:35Z</time>
      </trkpt>
      <trkpt lat="49.03722" lon="1.11829">
        <ele>129.2</ele>
        <time>2017-09-19T16:22:37Z</time>
      </trkpt>
      <trkpt lat="49.03732" lon="1.11831">
        <ele>129.4</ele>
        <time>2017-09-19T16:22:39Z</time>
      </trkpt>
      <trkpt lat="49.03744" lon="1.11836">
        <ele>129.4</ele>
        <time>2017-09-19T16:22:41Z</time>
      </trkpt>
      <trkpt lat="49.03756" lon="1.11834">
        <ele>129.5</ele>
        <time>2017-09-19T16:22:43Z</time>
      </trkpt>
      <trkpt lat="49.03767" lon="1.11836">
        <ele>129.6</ele>
        <time>2017-09-19T16:22:45Z</time>
      </trkpt>
      <trkpt lat="49.03779" lon="1.11836">
        <ele>129.7</ele>
        <time>2017-09-19T16:22:47Z</time>
      </trkpt>
      <trkpt lat="49.03788" lon="1.11836">
        <ele>129.9</ele>
        <time>2017-09-19T16:22:49Z</time>
      </trkpt>
      <trkpt lat="49.038" lon="1.11838">
        <ele>130</ele>
        <time>2017-09-19T16:22:51Z</time>
      </trkpt>
      <trkpt lat="49.03814" lon="1.11836">
        <ele>130.2</ele>
        <time>2017-09-19T16:22:53Z</time>
      </trkpt>
      <trkpt lat="49.03826" lon="1.11833">
        <ele>130.3</ele>
        <time>2017-09-19T16:22:55Z</time>
      </trkpt>
      <trkpt lat="49.03836" lon="1.11831">
        <ele>130.6</ele>
        <time>2017-09-19T16:22:57Z</time>
      </trkpt>
      <trkpt lat="49.03851" lon="1.11826">
        <ele>130.9</ele>
        <time>2017-09-19T16:22:59Z</time>
      </trkpt>
      <trkpt lat="49.0386" lon="1.11821">
        <ele>131.4</ele>
        <time>2017-09-19T16:23:01Z</time>
      </trkpt>
      <trkpt lat="49.03864" lon="1.11807">
        <ele>131.6</ele>
        <time>2017-09-19T16:23:03Z</time>
      </trkpt>
      <trkpt lat="49.03865" lon="1.11792">
        <ele>131.8</ele>
        <time>2017-09-19T16:23:05Z</time>
      </trkpt>
      <trkpt lat="49.03866" lon="1.11775">
        <ele>132</ele>
        <time>2017-09-19T16:23:07Z</time>
      </trkpt>
      <trkpt lat="49.03866" lon="1.11757">
        <ele>132</ele>
        <time>2017-09-19T16:23:09Z</time>
      </trkpt>
      <trkpt lat="49.03865" lon="1.11737">
        <ele>132.1</ele>
        <time>2017-09-19T16:23:11Z</time>
      </trkpt>
      <trkpt lat="49.03865" lon="1.11719">
        <ele>132.1</ele>
        <time>2017-09-19T16:23:13Z</time>
      </trkpt>
      <trkpt lat="49.03866" lon="1.11701">
        <ele>132.2</ele>
        <time>2017-09-19T16:23:15Z</time>
      </trkpt>
      <trkpt lat="49.03867" lon="1.11683">
        <ele>132.2</ele>
        <time>2017-09-19T16:23:17Z</time>
      </trkpt>
      <trkpt lat="49.03864" lon="1.11667">
        <ele>132.4</ele>
        <time>2017-09-19T16:23:19Z</time>
      </trkpt>
      <trkpt lat="49.0386" lon="1.11651">
        <ele>132.6</ele>
        <time>2017-09-19T16:23:21Z</time>
      </trkpt>
      <trkpt lat="49.03857" lon="1.11637">
        <ele>132.7</ele>
        <time>2017-09-19T16:23:23Z</time>
      </trkpt>
      <trkpt lat="49.03852" lon="1.11622">
        <ele>132.8</ele>
        <time>2017-09-19T16:23:25Z</time>
      </trkpt>
      <trkpt lat="49.03851" lon="1.11607">
        <ele>132.9</ele>
        <time>2017-09-19T16:23:27Z</time>
      </trkpt>
      <trkpt lat="49.03845" lon="1.11591">
        <ele>133.4</ele>
        <time>2017-09-19T16:23:30Z</time>
      </trkpt>
      <trkpt lat="49.03842" lon="1.11575">
        <ele>133.5</ele>
        <time>2017-09-19T16:23:33Z</time>
      </trkpt>
      <trkpt lat="49.03839" lon="1.11561">
        <ele>133.7</ele>
        <time>2017-09-19T16:23:36Z</time>
      </trkpt>
      <trkpt lat="49.03835" lon="1.11549">
        <ele>133.8</ele>
        <time>2017-09-19T16:23:39Z</time>
      </trkpt>
      <trkpt lat="49.03832" lon="1.11532">
        <ele>133.9</ele>
        <time>2017-09-19T16:23:43Z</time>
      </trkpt>
      <trkpt lat="49.0384" lon="1.11519">
        <ele>134.9</ele>
        <time>2017-09-19T16:23:49Z</time>
      </trkpt>
      <trkpt lat="49.03848" lon="1.11511">
        <ele>138.1</ele>
        <time>2017-09-19T16:23:56Z</time>
      </trkpt>
      <trkpt lat="49.03857" lon="1.11505">
        <ele>140.3</ele>
        <time>2017-09-19T16:24:01Z</time>
      </trkpt>
      <trkpt lat="49.03857" lon="1.11491">
        <ele>144</ele>
        <time>2017-09-19T16:24:12Z</time>
      </trkpt>
      <trkpt lat="49.0385" lon="1.11483">
        <ele>144.4</ele>
        <time>2017-09-19T16:24:33Z</time>
      </trkpt>
      <trkpt lat="49.03844" lon="1.11471">
        <ele>143.7</ele>
        <time>2017-09-19T16:24:37Z</time>
      </trkpt>
      <trkpt lat="49.0384" lon="1.11458">
        <ele>143.5</ele>
        <time>2017-09-19T16:24:40Z</time>
      </trkpt>
      <trkpt lat="49.03834" lon="1.11447">
        <ele>143.3</ele>
        <time>2017-09-19T16:24:43Z</time>
      </trkpt>
      <trkpt lat="49.03828" lon="1.11433">
        <ele>142.9</ele>
        <time>2017-09-19T16:24:46Z</time>
      </trkpt>
      <trkpt lat="49.03824" lon="1.11415">
        <ele>142.6</ele>
        <time>2017-09-19T16:24:49Z</time>
      </trkpt>
      <trkpt lat="49.03816" lon="1.11395">
        <ele>142.1</ele>
        <time>2017-09-19T16:24:52Z</time>
      </trkpt>
      <trkpt lat="49.03808" lon="1.11384">
        <ele>142</ele>
        <time>2017-09-19T16:24:54Z</time>
      </trkpt>
      <trkpt lat="49.03801" lon="1.1137">
        <ele>141.4</ele>
        <time>2017-09-19T16:24:56Z</time>
      </trkpt>
      <trkpt lat="49.03793" lon="1.11355">
        <ele>140.3</ele>
        <time>2017-09-19T16:24:58Z</time>
      </trkpt>
      <trkpt lat="49.03786" lon="1.11342">
        <ele>139.2</ele>
        <time>2017-09-19T16:25:00Z</time>
      </trkpt>
      <trkpt lat="49.03781" lon="1.1133">
        <ele>138.2</ele>
        <time>2017-09-19T16:25:02Z</time>
      </trkpt>
      <trkpt lat="49.03784" lon="1.11315">
        <ele>137.2</ele>
        <time>2017-09-19T16:25:05Z</time>
      </trkpt>
      <trkpt lat="49.03789" lon="1.11297">
        <ele>136.9</ele>
        <time>2017-09-19T16:25:08Z</time>
      </trkpt>
      <trkpt lat="49.0379" lon="1.11282">
        <ele>136.7</ele>
        <time>2017-09-19T16:25:11Z</time>
      </trkpt>
      <trkpt lat="49.03794" lon="1.11267">
        <ele>136.7</ele>
        <time>2017-09-19T16:25:13Z</time>
      </trkpt>
      <trkpt lat="49.03796" lon="1.11254">
        <ele>136.7</ele>
        <time>2017-09-19T16:25:15Z</time>
      </trkpt>
      <trkpt lat="49.03799" lon="1.1124">
        <ele>137</ele>
        <time>2017-09-19T16:25:17Z</time>
      </trkpt>
      <trkpt lat="49.03807" lon="1.11223">
        <ele>137.1</ele>
        <time>2017-09-19T16:25:20Z</time>
      </trkpt>
      <trkpt lat="49.03811" lon="1.11209">
        <ele>137.2</ele>
        <time>2017-09-19T16:25:22Z</time>
      </trkpt>
      <trkpt lat="49.03817" lon="1.11196">
        <ele>137.5</ele>
        <time>2017-09-19T16:25:24Z</time>
      </trkpt>
      <trkpt lat="49.03822" lon="1.11183">
        <ele>137.9</ele>
        <time>2017-09-19T16:25:26Z</time>
      </trkpt>
      <trkpt lat="49.03828" lon="1.11172">
        <ele>138.1</ele>
        <time>2017-09-19T16:25:28Z</time>
      </trkpt>
      <trkpt lat="49.03837" lon="1.11155">
        <ele>138.4</ele>
        <time>2017-09-19T16:25:31Z</time>
      </trkpt>
      <trkpt lat="49.03843" lon="1.1114">
        <ele>138.5</ele>
        <time>2017-09-19T16:25:33Z</time>
      </trkpt>
      <trkpt lat="49.03851" lon="1.11125">
        <ele>138.9</ele>
        <time>2017-09-19T16:25:36Z</time>
      </trkpt>
      <trkpt lat="49.03858" lon="1.11113">
        <ele>138.9</ele>
        <time>2017-09-19T16:25:38Z</time>
      </trkpt>
      <trkpt lat="49.03866" lon="1.11103">
        <ele>139</ele>
        <time>2017-09-19T16:25:40Z</time>
      </trkpt>
      <trkpt lat="49.03875" lon="1.11096">
        <ele>138.9</ele>
        <time>2017-09-19T16:25:42Z</time>
      </trkpt>
      <trkpt lat="49.03886" lon="1.11094">
        <ele>138.8</ele>
        <time>2017-09-19T16:25:45Z</time>
      </trkpt>
      <trkpt lat="49.03896" lon="1.11095">
        <ele>138.6</ele>
        <time>2017-09-19T16:25:47Z</time>
      </trkpt>
      <trkpt lat="49.03906" lon="1.11094">
        <ele>138.6</ele>
        <time>2017-09-19T16:25:49Z</time>
      </trkpt>
      <trkpt lat="49.03917" lon="1.11092">
        <ele>138.6</ele>
        <time>2017-09-19T16:25:51Z</time>
      </trkpt>
      <trkpt lat="49.03928" lon="1.11088">
        <ele>138.5</ele>
        <time>2017-09-19T16:25:53Z</time>
      </trkpt>
      <trkpt lat="49.03941" lon="1.11086">
        <ele>138.5</ele>
        <time>2017-09-19T16:25:56Z</time>
      </trkpt>
      <trkpt lat="49.03954" lon="1.11083">
        <ele>138.5</ele>
        <time>2017-09-19T16:25:59Z</time>
      </trkpt>
      <trkpt lat="49.03966" lon="1.1108">
        <ele>138.5</ele>
        <time>2017-09-19T16:26:01Z</time>
      </trkpt>
      <trkpt lat="49.03977" lon="1.11078">
        <ele>138.6</ele>
        <time>2017-09-19T16:26:03Z</time>
      </trkpt>
      <trkpt lat="49.03989" lon="1.11075">
        <ele>138.6</ele>
        <time>2017-09-19T16:26:05Z</time>
      </trkpt>
      <trkpt lat="49.04003" lon="1.11072">
        <ele>138.7</ele>
        <time>2017-09-19T16:26:08Z</time>
      </trkpt>
      <trkpt lat="49.04012" lon="1.11067">
        <ele>138.9</ele>
        <time>2017-09-19T16:26:10Z</time>
      </trkpt>
      <trkpt lat="49.04021" lon="1.11063">
        <ele>139</ele>
        <time>2017-09-19T16:26:12Z</time>
      </trkpt>
      <trkpt lat="49.04033" lon="1.1106">
        <ele>139.3</ele>
        <time>2017-09-19T16:26:14Z</time>
      </trkpt>
      <trkpt lat="49.04045" lon="1.11059">
        <ele>139.6</ele>
        <time>2017-09-19T16:26:17Z</time>
      </trkpt>
      <trkpt lat="49.04055" lon="1.11055">
        <ele>139.7</ele>
        <time>2017-09-19T16:26:19Z</time>
      </trkpt>
      <trkpt lat="49.04066" lon="1.11056">
        <ele>139.8</ele>
        <time>2017-09-19T16:26:21Z</time>
      </trkpt>
      <trkpt lat="49.04076" lon="1.11055">
        <ele>140</ele>
        <time>2017-09-19T16:26:23Z</time>
      </trkpt>
      <trkpt lat="49.04088" lon="1.11055">
        <ele>140</ele>
        <time>2017-09-19T16:26:25Z</time>
      </trkpt>
      <trkpt lat="49.041" lon="1.11053">
        <ele>140.1</ele>
        <time>2017-09-19T16:26:27Z</time>
      </trkpt>
      <trkpt lat="49.04114" lon="1.11047">
        <ele>140.3</ele>
        <time>2017-09-19T16:26:29Z</time>
      </trkpt>
      <trkpt lat="49.04125" lon="1.11043">
        <ele>140.4</ele>
        <time>2017-09-19T16:26:31Z</time>
      </trkpt>
      <trkpt lat="49.04137" lon="1.11037">
        <ele>140.6</ele>
        <time>2017-09-19T16:26:33Z</time>
      </trkpt>
      <trkpt lat="49.04148" lon="1.11035">
        <ele>140.8</ele>
        <time>2017-09-19T16:26:35Z</time>
      </trkpt>
      <trkpt lat="49.04159" lon="1.11031">
        <ele>140.9</ele>
        <time>2017-09-19T16:26:37Z</time>
      </trkpt>
      <trkpt lat="49.04168" lon="1.11026">
        <ele>141</ele>
        <time>2017-09-19T16:26:39Z</time>
      </trkpt>
      <trkpt lat="49.04177" lon="1.11019">
        <ele>141.3</ele>
        <time>2017-09-19T16:26:41Z</time>
      </trkpt>
      <trkpt lat="49.04187" lon="1.11014">
        <ele>141.4</ele>
        <time>2017-09-19T16:26:43Z</time>
      </trkpt>
      <trkpt lat="49.04198" lon="1.11007">
        <ele>141.4</ele>
        <time>2017-09-19T16:26:46Z</time>
      </trkpt>
      <trkpt lat="49.04209" lon="1.10997">
        <ele>141.5</ele>
        <time>2017-09-19T16:26:48Z</time>
      </trkpt>
      <trkpt lat="49.0422" lon="1.10988">
        <ele>141.5</ele>
        <time>2017-09-19T16:26:50Z</time>
      </trkpt>
      <trkpt lat="49.04229" lon="1.10979">
        <ele>141.6</ele>
        <time>2017-09-19T16:26:52Z</time>
      </trkpt>
      <trkpt lat="49.04239" lon="1.10967">
        <ele>141.8</ele>
        <time>2017-09-19T16:26:54Z</time>
      </trkpt>
      <trkpt lat="49.04246" lon="1.10955">
        <ele>142</ele>
        <time>2017-09-19T16:26:56Z</time>
      </trkpt>
      <trkpt lat="49.04255" lon="1.1094">
        <ele>142.5</ele>
        <time>2017-09-19T16:26:59Z</time>
      </trkpt>
      <trkpt lat="49.04264" lon="1.10933">
        <ele>142.7</ele>
        <time>2017-09-19T16:27:01Z</time>
      </trkpt>
      <trkpt lat="49.04272" lon="1.10926">
        <ele>142.9</ele>
        <time>2017-09-19T16:27:03Z</time>
      </trkpt>
      <trkpt lat="49.04282" lon="1.10924">
        <ele>143.3</ele>
        <time>2017-09-19T16:27:05Z</time>
      </trkpt>
      <trkpt lat="49.04293" lon="1.10926">
        <ele>143.8</ele>
        <time>2017-09-19T16:27:08Z</time>
      </trkpt>
      <trkpt lat="49.04304" lon="1.10937">
        <ele>144.6</ele>
        <time>2017-09-19T16:27:11Z</time>
      </trkpt>
      <trkpt lat="49.0431" lon="1.10949">
        <ele>145.2</ele>
        <time>2017-09-19T16:27:14Z</time>
      </trkpt>
      <trkpt lat="49.04319" lon="1.10958">
        <ele>145.4</ele>
        <time>2017-09-19T16:27:17Z</time>
      </trkpt>
      <trkpt lat="49.04328" lon="1.10969">
        <ele>145.8</ele>
        <time>2017-09-19T16:27:20Z</time>
      </trkpt>
      <trkpt lat="49.04336" lon="1.10979">
        <ele>146.2</ele>
        <time>2017-09-19T16:27:23Z</time>
      </trkpt>
      <trkpt lat="49.04344" lon="1.10987">
        <ele>146.4</ele>
        <time>2017-09-19T16:27:25Z</time>
      </trkpt>
      <trkpt lat="49.04351" lon="1.10998">
        <ele>147</ele>
        <time>2017-09-19T16:27:28Z</time>
      </trkpt>
      <trkpt lat="49.04359" lon="1.11003">
        <ele>147.3</ele>
        <time>2017-09-19T16:27:30Z</time>
      </trkpt>
      <trkpt lat="49.04367" lon="1.11011">
        <ele>148.2</ele>
        <time>2017-09-19T16:27:33Z</time>
      </trkpt>
      <trkpt lat="49.04377" lon="1.11015">
        <ele>150.2</ele>
        <time>2017-09-19T16:27:37Z</time>
      </trkpt>
      <trkpt lat="49.04385" lon="1.1102">
        <ele>154.8</ele>
        <time>2017-09-19T16:27:58Z</time>
      </trkpt>
      <trkpt lat="49.04393" lon="1.11027">
        <ele>157.4</ele>
        <time>2017-09-19T16:28:14Z</time>
      </trkpt>
      <trkpt lat="49.04401" lon="1.11036">
        <ele>159.6</ele>
        <time>2017-09-19T16:28:26Z</time>
      </trkpt>
      <trkpt lat="49.04408" lon="1.11044">
        <ele>161</ele>
        <time>2017-09-19T16:28:58Z</time>
      </trkpt>
      <trkpt lat="49.04417" lon="1.1105">
        <ele>161.8</ele>
        <time>2017-09-19T16:29:04Z</time>
      </trkpt>
      <trkpt lat="49.04424" lon="1.1106">
        <ele>162.6</ele>
        <time>2017-09-19T16:29:09Z</time>
      </trkpt>
      <trkpt lat="49.04433" lon="1.1107">
        <ele>163.5</ele>
        <time>2017-09-19T16:29:14Z</time>
      </trkpt>
      <trkpt lat="49.04441" lon="1.11082">
        <ele>164.3</ele>
        <time>2017-09-19T16:29:19Z</time>
      </trkpt>
      <trkpt lat="49.0445" lon="1.11088">
        <ele>164.9</ele>
        <time>2017-09-19T16:29:24Z</time>
      </trkpt>
      <trkpt lat="49.0446" lon="1.11084">
        <ele>165.6</ele>
        <time>2017-09-19T16:29:28Z</time>
      </trkpt>
      <trkpt lat="49.04468" lon="1.11078">
        <ele>165.9</ele>
        <time>2017-09-19T16:29:31Z</time>
      </trkpt>
      <trkpt lat="49.04469" lon="1.11063">
        <ele>166.2</ele>
        <time>2017-09-19T16:29:35Z</time>
      </trkpt>
      <trkpt lat="49.04469" lon="1.11046">
        <ele>166.1</ele>
        <time>2017-09-19T16:29:38Z</time>
      </trkpt>
      <trkpt lat="49.04474" lon="1.1103">
        <ele>166</ele>
        <time>2017-09-19T16:29:41Z</time>
      </trkpt>
      <trkpt lat="49.04475" lon="1.11012">
        <ele>166.1</ele>
        <time>2017-09-19T16:29:44Z</time>
      </trkpt>
      <trkpt lat="49.04476" lon="1.10992">
        <ele>166.1</ele>
        <time>2017-09-19T16:29:47Z</time>
      </trkpt>
      <trkpt lat="49.04478" lon="1.10976">
        <ele>166</ele>
        <time>2017-09-19T16:29:49Z</time>
      </trkpt>
      <trkpt lat="49.04479" lon="1.10962">
        <ele>166</ele>
        <time>2017-09-19T16:29:51Z</time>
      </trkpt>
      <trkpt lat="49.0448" lon="1.10946">
        <ele>165.9</ele>
        <time>2017-09-19T16:29:53Z</time>
      </trkpt>
      <trkpt lat="49.04482" lon="1.10931">
        <ele>165.8</ele>
        <time>2017-09-19T16:29:55Z</time>
      </trkpt>
      <trkpt lat="49.04482" lon="1.10915">
        <ele>165.6</ele>
        <time>2017-09-19T16:29:57Z</time>
      </trkpt>
      <trkpt lat="49.04482" lon="1.109">
        <ele>165.3</ele>
        <time>2017-09-19T16:29:59Z</time>
      </trkpt>
      <trkpt lat="49.04484" lon="1.10886">
        <ele>165</ele>
        <time>2017-09-19T16:30:01Z</time>
      </trkpt>
      <trkpt lat="49.04489" lon="1.10867">
        <ele>164.7</ele>
        <time>2017-09-19T16:30:04Z</time>
      </trkpt>
      <trkpt lat="49.0449" lon="1.10853">
        <ele>164.7</ele>
        <time>2017-09-19T16:30:06Z</time>
      </trkpt>
      <trkpt lat="49.04489" lon="1.10832">
        <ele>164.6</ele>
        <time>2017-09-19T16:30:09Z</time>
      </trkpt>
      <trkpt lat="49.0449" lon="1.10817">
        <ele>164.8</ele>
        <time>2017-09-19T16:30:11Z</time>
      </trkpt>
      <trkpt lat="49.04491" lon="1.10801">
        <ele>164.8</ele>
        <time>2017-09-19T16:30:13Z</time>
      </trkpt>
      <trkpt lat="49.04493" lon="1.10781">
        <ele>164.9</ele>
        <time>2017-09-19T16:30:16Z</time>
      </trkpt>
      <trkpt lat="49.04496" lon="1.10767">
        <ele>165</ele>
        <time>2017-09-19T16:30:18Z</time>
      </trkpt>
      <trkpt lat="49.04497" lon="1.10747">
        <ele>165.1</ele>
        <time>2017-09-19T16:30:21Z</time>
      </trkpt>
      <trkpt lat="49.04498" lon="1.10727">
        <ele>165.2</ele>
        <time>2017-09-19T16:30:24Z</time>
      </trkpt>
      <trkpt lat="49.045" lon="1.10713">
        <ele>165.4</ele>
        <time>2017-09-19T16:30:26Z</time>
      </trkpt>
      <trkpt lat="49.04509" lon="1.10706">
        <ele>165.7</ele>
        <time>2017-09-19T16:30:29Z</time>
      </trkpt>
      <trkpt lat="49.04521" lon="1.10707">
        <ele>166.1</ele>
        <time>2017-09-19T16:30:33Z</time>
      </trkpt>
      <trkpt lat="49.04532" lon="1.10707">
        <ele>166.5</ele>
        <time>2017-09-19T16:30:36Z</time>
      </trkpt>
      <trkpt lat="49.04542" lon="1.10707">
        <ele>167.2</ele>
        <time>2017-09-19T16:30:39Z</time>
      </trkpt>
      <trkpt lat="49.04552" lon="1.10714">
        <ele>167.8</ele>
        <time>2017-09-19T16:30:42Z</time>
      </trkpt>
      <trkpt lat="49.04563" lon="1.10716">
        <ele>168.3</ele>
        <time>2017-09-19T16:30:45Z</time>
      </trkpt>
      <trkpt lat="49.04574" lon="1.10715">
        <ele>168.7</ele>
        <time>2017-09-19T16:30:48Z</time>
      </trkpt>
      <trkpt lat="49.04584" lon="1.10713">
        <ele>169.1</ele>
        <time>2017-09-19T16:30:51Z</time>
      </trkpt>
      <trkpt lat="49.04595" lon="1.10712">
        <ele>169.4</ele>
        <time>2017-09-19T16:30:54Z</time>
      </trkpt>
      <trkpt lat="49.04605" lon="1.10715">
        <ele>169.7</ele>
        <time>2017-09-19T16:30:57Z</time>
      </trkpt>
      <trkpt lat="49.04614" lon="1.10723">
        <ele>170.2</ele>
        <time>2017-09-19T16:31:00Z</time>
      </trkpt>
      <trkpt lat="49.04623" lon="1.10733">
        <ele>170.5</ele>
        <time>2017-09-19T16:31:03Z</time>
      </trkpt>
      <trkpt lat="49.04631" lon="1.10747">
        <ele>170.6</ele>
        <time>2017-09-19T16:31:06Z</time>
      </trkpt>
      <trkpt lat="49.04637" lon="1.10763">
        <ele>170.8</ele>
        <time>2017-09-19T16:31:09Z</time>
      </trkpt>
      <trkpt lat="49.04644" lon="1.10775">
        <ele>171</ele>
        <time>2017-09-19T16:31:12Z</time>
      </trkpt>
      <trkpt lat="49.04655" lon="1.1077">
        <ele>171.1</ele>
        <time>2017-09-19T16:31:15Z</time>
      </trkpt>
      <trkpt lat="49.04663" lon="1.10756">
        <ele>171.2</ele>
        <time>2017-09-19T16:31:18Z</time>
      </trkpt>
      <trkpt lat="49.04673" lon="1.10748">
        <ele>171.3</ele>
        <time>2017-09-19T16:31:21Z</time>
      </trkpt>
      <trkpt lat="49.04683" lon="1.10752">
        <ele>171.5</ele>
        <time>2017-09-19T16:31:24Z</time>
      </trkpt>
      <trkpt lat="49.04694" lon="1.10758">
        <ele>171.9</ele>
        <time>2017-09-19T16:31:27Z</time>
      </trkpt>
      <trkpt lat="49.04704" lon="1.10764">
        <ele>172.1</ele>
        <time>2017-09-19T16:31:30Z</time>
      </trkpt>
      <trkpt lat="49.04715" lon="1.1077">
        <ele>172.4</ele>
        <time>2017-09-19T16:31:33Z</time>
      </trkpt>
      <trkpt lat="49.0472" lon="1.10782">
        <ele>172.5</ele>
        <time>2017-09-19T16:31:36Z</time>
      </trkpt>
      <trkpt lat="49.04721" lon="1.10799">
        <ele>172.6</ele>
        <time>2017-09-19T16:31:39Z</time>
      </trkpt>
      <trkpt lat="49.0472" lon="1.10818">
        <ele>172.7</ele>
        <time>2017-09-19T16:31:42Z</time>
      </trkpt>
      <trkpt lat="49.04719" lon="1.10835">
        <ele>172.6</ele>
        <time>2017-09-19T16:31:45Z</time>
      </trkpt>
      <trkpt lat="49.04719" lon="1.10855">
        <ele>172.4</ele>
        <time>2017-09-19T16:31:48Z</time>
      </trkpt>
      <trkpt lat="49.04713" lon="1.10871">
        <ele>172.2</ele>
        <time>2017-09-19T16:31:51Z</time>
      </trkpt>
      <trkpt lat="49.04707" lon="1.10882">
        <ele>172.1</ele>
        <time>2017-09-19T16:31:53Z</time>
      </trkpt>
      <trkpt lat="49.04702" lon="1.10894">
        <ele>172</ele>
        <time>2017-09-19T16:31:55Z</time>
      </trkpt>
      <trkpt lat="49.04697" lon="1.10908">
        <ele>171.6</ele>
        <time>2017-09-19T16:31:57Z</time>
      </trkpt>
      <trkpt lat="49.04691" lon="1.10919">
        <ele>171.3</ele>
        <time>2017-09-19T16:31:59Z</time>
      </trkpt>
      <trkpt lat="49.04684" lon="1.10935">
        <ele>171</ele>
        <time>2017-09-19T16:32:02Z</time>
      </trkpt>
      <trkpt lat="49.04673" lon="1.10946">
        <ele>170.9</ele>
        <time>2017-09-19T16:32:04Z</time>
      </trkpt>
      <trkpt lat="49.04663" lon="1.10957">
        <ele>170.9</ele>
        <time>2017-09-19T16:32:06Z</time>
      </trkpt>
      <trkpt lat="49.04651" lon="1.10968">
        <ele>170.8</ele>
        <time>2017-09-19T16:32:09Z</time>
      </trkpt>
      <trkpt lat="49.04643" lon="1.10976">
        <ele>170.7</ele>
        <time>2017-09-19T16:32:11Z</time>
      </trkpt>
      <trkpt lat="49.04635" lon="1.10985">
        <ele>170.6</ele>
        <time>2017-09-19T16:32:13Z</time>
      </trkpt>
      <trkpt lat="49.0463" lon="1.10996">
        <ele>170.5</ele>
        <time>2017-09-19T16:32:15Z</time>
      </trkpt>
      <trkpt lat="49.04623" lon="1.11008">
        <ele>170.4</ele>
        <time>2017-09-19T16:32:17Z</time>
      </trkpt>
      <trkpt lat="49.04614" lon="1.11015">
        <ele>170.4</ele>
        <time>2017-09-19T16:32:19Z</time>
      </trkpt>
      <trkpt lat="49.04603" lon="1.11022">
        <ele>170.5</ele>
        <time>2017-09-19T16:32:22Z</time>
      </trkpt>
      <trkpt lat="49.04597" lon="1.11032">
        <ele>170.4</ele>
        <time>2017-09-19T16:32:24Z</time>
      </trkpt>
      <trkpt lat="49.04588" lon="1.11047">
        <ele>170.1</ele>
        <time>2017-09-19T16:32:27Z</time>
      </trkpt>
      <trkpt lat="49.04582" lon="1.11057">
        <ele>169.8</ele>
        <time>2017-09-19T16:32:29Z</time>
      </trkpt>
      <trkpt lat="49.04576" lon="1.11074">
        <ele>169.8</ele>
        <time>2017-09-19T16:32:31Z</time>
      </trkpt>
      <trkpt lat="49.04569" lon="1.11088">
        <ele>169.8</ele>
        <time>2017-09-19T16:32:33Z</time>
      </trkpt>
      <trkpt lat="49.04559" lon="1.11097">
        <ele>169.5</ele>
        <time>2017-09-19T16:32:35Z</time>
      </trkpt>
      <trkpt lat="49.04551" lon="1.11107">
        <ele>169.3</ele>
        <time>2017-09-19T16:32:37Z</time>
      </trkpt>
      <trkpt lat="49.04541" lon="1.11117">
        <ele>169.3</ele>
        <time>2017-09-19T16:32:39Z</time>
      </trkpt>
      <trkpt lat="49.04533" lon="1.11125">
        <ele>169.1</ele>
        <time>2017-09-19T16:32:41Z</time>
      </trkpt>
      <trkpt lat="49.04524" lon="1.11136">
        <ele>168.8</ele>
        <time>2017-09-19T16:32:43Z</time>
      </trkpt>
      <trkpt lat="49.04514" lon="1.11148">
        <ele>168.6</ele>
        <time>2017-09-19T16:32:45Z</time>
      </trkpt>
      <trkpt lat="49.04513" lon="1.11163">
        <ele>168.3</ele>
        <time>2017-09-19T16:32:48Z</time>
      </trkpt>
      <trkpt lat="49.04516" lon="1.11177">
        <ele>168.1</ele>
        <time>2017-09-19T16:32:51Z</time>
      </trkpt>
      <trkpt lat="49.04518" lon="1.11196">
        <ele>168.2</ele>
        <time>2017-09-19T16:32:54Z</time>
      </trkpt>
      <trkpt lat="49.04521" lon="1.11209">
        <ele>168.2</ele>
        <time>2017-09-19T16:32:56Z</time>
      </trkpt>
      <trkpt lat="49.04524" lon="1.11228">
        <ele>168.3</ele>
        <time>2017-09-19T16:32:59Z</time>
      </trkpt>
      <trkpt lat="49.04529" lon="1.11247">
        <ele>168.3</ele>
        <time>2017-09-19T16:33:02Z</time>
      </trkpt>
      <trkpt lat="49.04533" lon="1.11265">
        <ele>168.9</ele>
        <time>2017-09-19T16:33:05Z</time>
      </trkpt>
      <trkpt lat="49.04537" lon="1.11278">
        <ele>169</ele>
        <time>2017-09-19T16:33:07Z</time>
      </trkpt>
      <trkpt lat="49.04541" lon="1.11297">
        <ele>168.9</ele>
        <time>2017-09-19T16:33:10Z</time>
      </trkpt>
      <trkpt lat="49.04545" lon="1.1131">
        <ele>169.2</ele>
        <time>2017-09-19T16:33:12Z</time>
      </trkpt>
      <trkpt lat="49.04553" lon="1.11325">
        <ele>169.4</ele>
        <time>2017-09-19T16:33:15Z</time>
      </trkpt>
      <trkpt lat="49.04557" lon="1.11341">
        <ele>169.6</ele>
        <time>2017-09-19T16:33:17Z</time>
      </trkpt>
      <trkpt lat="49.04561" lon="1.1136">
        <ele>169.9</ele>
        <time>2017-09-19T16:33:20Z</time>
      </trkpt>
      <trkpt lat="49.04565" lon="1.11381">
        <ele>169.9</ele>
        <time>2017-09-19T16:33:23Z</time>
      </trkpt>
      <trkpt lat="49.04569" lon="1.11395">
        <ele>170.2</ele>
        <time>2017-09-19T16:33:25Z</time>
      </trkpt>
      <trkpt lat="49.04573" lon="1.1141">
        <ele>170.1</ele>
        <time>2017-09-19T16:33:27Z</time>
      </trkpt>
      <trkpt lat="49.04579" lon="1.11424">
        <ele>170.1</ele>
        <time>2017-09-19T16:33:29Z</time>
      </trkpt>
      <trkpt lat="49.04582" lon="1.11444">
        <ele>170.2</ele>
        <time>2017-09-19T16:33:32Z</time>
      </trkpt>
      <trkpt lat="49.04586" lon="1.11458">
        <ele>170.2</ele>
        <time>2017-09-19T16:33:34Z</time>
      </trkpt>
      <trkpt lat="49.04585" lon="1.11475">
        <ele>170.1</ele>
        <time>2017-09-19T16:33:37Z</time>
      </trkpt>
      <trkpt lat="49.04575" lon="1.11476">
        <ele>169.8</ele>
        <time>2017-09-19T16:33:42Z</time>
      </trkpt>
      <trkpt lat="49.04563" lon="1.11467">
        <ele>169.7</ele>
        <time>2017-09-19T16:33:47Z</time>
      </trkpt>
      <trkpt lat="49.04554" lon="1.11463">
        <ele>169.6</ele>
        <time>2017-09-19T16:33:49Z</time>
      </trkpt>
      <trkpt lat="49.04543" lon="1.11455">
        <ele>169.7</ele>
        <time>2017-09-19T16:33:52Z</time>
      </trkpt>
      <trkpt lat="49.04529" lon="1.1145">
        <ele>169.5</ele>
        <time>2017-09-19T16:33:55Z</time>
      </trkpt>
      <trkpt lat="49.04517" lon="1.11448">
        <ele>169.3</ele>
        <time>2017-09-19T16:33:57Z</time>
      </trkpt>
      <trkpt lat="49.04505" lon="1.11441">
        <ele>168.9</ele>
        <time>2017-09-19T16:34:00Z</time>
      </trkpt>
      <trkpt lat="49.04494" lon="1.11436">
        <ele>168.8</ele>
        <time>2017-09-19T16:34:02Z</time>
      </trkpt>
      <trkpt lat="49.04485" lon="1.11429">
        <ele>168.8</ele>
        <time>2017-09-19T16:34:04Z</time>
      </trkpt>
      <trkpt lat="49.04474" lon="1.11424">
        <ele>168.4</ele>
        <time>2017-09-19T16:34:06Z</time>
      </trkpt>
      <trkpt lat="49.04463" lon="1.11418">
        <ele>168</ele>
        <time>2017-09-19T16:34:08Z</time>
      </trkpt>
      <trkpt lat="49.04451" lon="1.11411">
        <ele>167.3</ele>
        <time>2017-09-19T16:34:10Z</time>
      </trkpt>
      <trkpt lat="49.04441" lon="1.11404">
        <ele>166.9</ele>
        <time>2017-09-19T16:34:12Z</time>
      </trkpt>
      <trkpt lat="49.0443" lon="1.11399">
        <ele>166.6</ele>
        <time>2017-09-19T16:34:14Z</time>
      </trkpt>
      <trkpt lat="49.04417" lon="1.11394">
        <ele>166.4</ele>
        <time>2017-09-19T16:34:16Z</time>
      </trkpt>
      <trkpt lat="49.04406" lon="1.1139">
        <ele>166</ele>
        <time>2017-09-19T16:34:18Z</time>
      </trkpt>
      <trkpt lat="49.04395" lon="1.11391">
        <ele>165.5</ele>
        <time>2017-09-19T16:34:20Z</time>
      </trkpt>
      <trkpt lat="49.04384" lon="1.11393">
        <ele>165.2</ele>
        <time>2017-09-19T16:34:22Z</time>
      </trkpt>
      <trkpt lat="49.04372" lon="1.11397">
        <ele>164.7</ele>
        <time>2017-09-19T16:34:24Z</time>
      </trkpt>
      <trkpt lat="49.04359" lon="1.11399">
        <ele>163.6</ele>
        <time>2017-09-19T16:34:26Z</time>
      </trkpt>
      <trkpt lat="49.04343" lon="1.11403">
        <ele>161.6</ele>
        <time>2017-09-19T16:34:28Z</time>
      </trkpt>
      <trkpt lat="49.04329" lon="1.11401">
        <ele>161</ele>
        <time>2017-09-19T16:34:30Z</time>
      </trkpt>
      <trkpt lat="49.04317" lon="1.11399">
        <ele>160.4</ele>
        <time>2017-09-19T16:34:32Z</time>
      </trkpt>
      <trkpt lat="49.04309" lon="1.11391">
        <ele>160.1</ele>
        <time>2017-09-19T16:34:34Z</time>
      </trkpt>
      <trkpt lat="49.04303" lon="1.11376">
        <ele>159.9</ele>
        <time>2017-09-19T16:34:37Z</time>
      </trkpt>
      <trkpt lat="49.04297" lon="1.11362">
        <ele>160.3</ele>
        <time>2017-09-19T16:34:40Z</time>
      </trkpt>
      <trkpt lat="49.04291" lon="1.11345">
        <ele>161.1</ele>
        <time>2017-09-19T16:34:43Z</time>
      </trkpt>
      <trkpt lat="49.04287" lon="1.11332">
        <ele>161.4</ele>
        <time>2017-09-19T16:34:45Z</time>
      </trkpt>
      <trkpt lat="49.04282" lon="1.11313">
        <ele>161.9</ele>
        <time>2017-09-19T16:34:48Z</time>
      </trkpt>
      <trkpt lat="49.04279" lon="1.113">
        <ele>162.2</ele>
        <time>2017-09-19T16:34:50Z</time>
      </trkpt>
      <trkpt lat="49.04274" lon="1.11282">
        <ele>162.7</ele>
        <time>2017-09-19T16:34:53Z</time>
      </trkpt>
      <trkpt lat="49.04269" lon="1.11263">
        <ele>162.9</ele>
        <time>2017-09-19T16:34:56Z</time>
      </trkpt>
      <trkpt lat="49.04264" lon="1.11244">
        <ele>162.8</ele>
        <time>2017-09-19T16:34:59Z</time>
      </trkpt>
      <trkpt lat="49.0426" lon="1.11232">
        <ele>163</ele>
        <time>2017-09-19T16:35:01Z</time>
      </trkpt>
      <trkpt lat="49.04255" lon="1.11213">
        <ele>163.4</ele>
        <time>2017-09-19T16:35:04Z</time>
      </trkpt>
      <trkpt lat="49.04251" lon="1.11195">
        <ele>163.7</ele>
        <time>2017-09-19T16:35:07Z</time>
      </trkpt>
      <trkpt lat="49.04247" lon="1.11177">
        <ele>163.8</ele>
        <time>2017-09-19T16:35:10Z</time>
      </trkpt>
      <trkpt lat="49.0424" lon="1.11166">
        <ele>164.3</ele>
        <time>2017-09-19T16:35:13Z</time>
      </trkpt>
      <trkpt lat="49.04232" lon="1.11177">
        <ele>164.8</ele>
        <time>2017-09-19T16:35:17Z</time>
      </trkpt>
      <trkpt lat="49.04227" lon="1.1119">
        <ele>165</ele>
        <time>2017-09-19T16:35:20Z</time>
      </trkpt>
      <trkpt lat="49.04219" lon="1.11201">
        <ele>165.3</ele>
        <time>2017-09-19T16:35:23Z</time>
      </trkpt>
      <trkpt lat="49.04212" lon="1.11217">
        <ele>165.7</ele>
        <time>2017-09-19T16:35:26Z</time>
      </trkpt>
      <trkpt lat="49.0421" lon="1.11232">
        <ele>165.9</ele>
        <time>2017-09-19T16:35:29Z</time>
      </trkpt>
      <trkpt lat="49.04209" lon="1.1125">
        <ele>166.4</ele>
        <time>2017-09-19T16:35:32Z</time>
      </trkpt>
      <trkpt lat="49.04206" lon="1.11269">
        <ele>166.9</ele>
        <time>2017-09-19T16:35:35Z</time>
      </trkpt>
      <trkpt lat="49.04201" lon="1.11281">
        <ele>167.1</ele>
        <time>2017-09-19T16:35:37Z</time>
      </trkpt>
      <trkpt lat="49.04198" lon="1.11298">
        <ele>167.5</ele>
        <time>2017-09-19T16:35:40Z</time>
      </trkpt>
      <trkpt lat="49.04191" lon="1.11314">
        <ele>167.8</ele>
        <time>2017-09-19T16:35:43Z</time>
      </trkpt>
      <trkpt lat="49.04187" lon="1.11327">
        <ele>168</ele>
        <time>2017-09-19T16:35:45Z</time>
      </trkpt>
      <trkpt lat="49.04185" lon="1.11341">
        <ele>168.2</ele>
        <time>2017-09-19T16:35:47Z</time>
      </trkpt>
      <trkpt lat="49.04181" lon="1.11359">
        <ele>168.2</ele>
        <time>2017-09-19T16:35:50Z</time>
      </trkpt>
      <trkpt lat="49.04175" lon="1.11377">
        <ele>168.1</ele>
        <time>2017-09-19T16:35:53Z</time>
      </trkpt>
      <trkpt lat="49.04166" lon="1.11392">
        <ele>168.3</ele>
        <time>2017-09-19T16:35:55Z</time>
      </trkpt>
      <trkpt lat="49.0416" lon="1.11405">
        <ele>168.5</ele>
        <time>2017-09-19T16:35:57Z</time>
      </trkpt>
      <trkpt lat="49.04158" lon="1.11418">
        <ele>168.6</ele>
        <time>2017-09-19T16:35:59Z</time>
      </trkpt>
      <trkpt lat="49.04155" lon="1.11432">
        <ele>168.8</ele>
        <time>2017-09-19T16:36:01Z</time>
      </trkpt>
      <trkpt lat="49.04154" lon="1.11448">
        <ele>168.9</ele>
        <time>2017-09-19T16:36:03Z</time>
      </trkpt>
      <trkpt lat="49.04158" lon="1.11462">
        <ele>169.2</ele>
        <time>2017-09-19T16:36:05Z</time>
      </trkpt>
      <trkpt lat="49.04158" lon="1.11477">
        <ele>169.4</ele>
        <time>2017-09-19T16:36:07Z</time>
      </trkpt>
      <trkpt lat="49.04158" lon="1.11492">
        <ele>169.7</ele>
        <time>2017-09-19T16:36:09Z</time>
      </trkpt>
      <trkpt lat="49.04158" lon="1.11507">
        <ele>169.7</ele>
        <time>2017-09-19T16:36:11Z</time>
      </trkpt>
      <trkpt lat="49.04162" lon="1.11525">
        <ele>169.7</ele>
        <time>2017-09-19T16:36:14Z</time>
      </trkpt>
      <trkpt lat="49.04171" lon="1.11539">
        <ele>169.6</ele>
        <time>2017-09-19T16:36:17Z</time>
      </trkpt>
      <trkpt lat="49.04183" lon="1.11551">
        <ele>169.4</ele>
        <time>2017-09-19T16:36:20Z</time>
      </trkpt>
      <trkpt lat="49.04189" lon="1.11568">
        <ele>169.3</ele>
        <time>2017-09-19T16:36:23Z</time>
      </trkpt>
      <trkpt lat="49.04196" lon="1.11581">
        <ele>168.9</ele>
        <time>2017-09-19T16:36:26Z</time>
      </trkpt>
      <trkpt lat="49.04205" lon="1.11588">
        <ele>168.6</ele>
        <time>2017-09-19T16:36:28Z</time>
      </trkpt>
      <trkpt lat="49.04213" lon="1.11604">
        <ele>168.2</ele>
        <time>2017-09-19T16:36:31Z</time>
      </trkpt>
      <trkpt lat="49.0422" lon="1.11615">
        <ele>168</ele>
        <time>2017-09-19T16:36:33Z</time>
      </trkpt>
      <trkpt lat="49.04228" lon="1.11627">
        <ele>167.6</ele>
        <time>2017-09-19T16:36:36Z</time>
      </trkpt>
      <trkpt lat="49.04238" lon="1.11625">
        <ele>167.4</ele>
        <time>2017-09-19T16:36:38Z</time>
      </trkpt>
      <trkpt lat="49.04247" lon="1.11614">
        <ele>167.4</ele>
        <time>2017-09-19T16:36:40Z</time>
      </trkpt>
      <trkpt lat="49.04255" lon="1.11599">
        <ele>166.9</ele>
        <time>2017-09-19T16:36:43Z</time>
      </trkpt>
      <trkpt lat="49.0426" lon="1.11587">
        <ele>166.5</ele>
        <time>2017-09-19T16:36:45Z</time>
      </trkpt>
      <trkpt lat="49.04267" lon="1.11576">
        <ele>166.3</ele>
        <time>2017-09-19T16:36:47Z</time>
      </trkpt>
      <trkpt lat="49.04274" lon="1.11566">
        <ele>166.1</ele>
        <time>2017-09-19T16:36:49Z</time>
      </trkpt>
      <trkpt lat="49.04279" lon="1.11552">
        <ele>165.8</ele>
        <time>2017-09-19T16:36:51Z</time>
      </trkpt>
      <trkpt lat="49.04281" lon="1.11538">
        <ele>165.5</ele>
        <time>2017-09-19T16:36:53Z</time>
      </trkpt>
      <trkpt lat="49.04283" lon="1.11523">
        <ele>165.1</ele>
        <time>2017-09-19T16:36:55Z</time>
      </trkpt>
      <trkpt lat="49.04279" lon="1.11507">
        <ele>164.8</ele>
        <time>2017-09-19T16:36:58Z</time>
      </trkpt>
      <trkpt lat="49.04279" lon="1.11493">
        <ele>164.4</ele>
        <time>2017-09-19T16:37:03Z</time>
      </trkpt>
      <trkpt lat="49.0427" lon="1.11493">
        <ele>163.4</ele>
        <time>2017-09-19T16:37:10Z</time>
      </trkpt>
      <trkpt lat="49.0426" lon="1.11492">
        <ele>164.9</ele>
        <time>2017-09-19T16:37:17Z</time>
      </trkpt>
      <trkpt lat="49.04265" lon="1.11481">
        <ele>165.6</ele>
        <time>2017-09-19T16:37:23Z</time>
      </trkpt>
      <trkpt lat="49.04273" lon="1.11473">
        <ele>165.1</ele>
        <time>2017-09-19T16:37:27Z</time>
      </trkpt>
      <trkpt lat="49.04281" lon="1.11464">
        <ele>165</ele>
        <time>2017-09-19T16:37:33Z</time>
      </trkpt>
      <trkpt lat="49.04278" lon="1.1145">
        <ele>163.9</ele>
        <time>2017-09-19T16:37:40Z</time>
      </trkpt>
      <trkpt lat="49.04268" lon="1.11456">
        <ele>163.4</ele>
        <time>2017-09-19T16:37:45Z</time>
      </trkpt>
      <trkpt lat="49.0427" lon="1.11471">
        <ele>164</ele>
        <time>2017-09-19T16:37:51Z</time>
      </trkpt>
      <trkpt lat="49.04264" lon="1.11483">
        <ele>164.8</ele>
        <time>2017-09-19T16:37:57Z</time>
      </trkpt>
      <trkpt lat="49.04269" lon="1.11495">
        <ele>165.4</ele>
        <time>2017-09-19T16:38:05Z</time>
      </trkpt>
      <trkpt lat="49.04278" lon="1.11497">
        <ele>165.5</ele>
        <time>2017-09-19T16:38:11Z</time>
      </trkpt>
      <trkpt lat="49.04281" lon="1.11513">
        <ele>165.2</ele>
        <time>2017-09-19T16:38:15Z</time>
      </trkpt>
      <trkpt lat="49.0428" lon="1.11528">
        <ele>165.2</ele>
        <time>2017-09-19T16:38:18Z</time>
      </trkpt>
      <trkpt lat="49.04277" lon="1.11544">
        <ele>165</ele>
        <time>2017-09-19T16:38:21Z</time>
      </trkpt>
      <trkpt lat="49.0427" lon="1.11558">
        <ele>165.1</ele>
        <time>2017-09-19T16:38:25Z</time>
      </trkpt>
      <trkpt lat="49.04265" lon="1.11576">
        <ele>165.2</ele>
        <time>2017-09-19T16:38:28Z</time>
      </trkpt>
      <trkpt lat="49.04262" lon="1.1159">
        <ele>165.5</ele>
        <time>2017-09-19T16:38:31Z</time>
      </trkpt>
      <trkpt lat="49.04257" lon="1.11602">
        <ele>165.7</ele>
        <time>2017-09-19T16:38:33Z</time>
      </trkpt>
      <trkpt lat="49.04251" lon="1.11618">
        <ele>165.9</ele>
        <time>2017-09-19T16:38:36Z</time>
      </trkpt>
      <trkpt lat="49.04248" lon="1.11635">
        <ele>166.1</ele>
        <time>2017-09-19T16:38:39Z</time>
      </trkpt>
      <trkpt lat="49.04252" lon="1.11648">
        <ele>166.4</ele>
        <time>2017-09-19T16:38:42Z</time>
      </trkpt>
      <trkpt lat="49.04258" lon="1.11662">
        <ele>166.4</ele>
        <time>2017-09-19T16:38:45Z</time>
      </trkpt>
      <trkpt lat="49.04265" lon="1.1168">
        <ele>166.5</ele>
        <time>2017-09-19T16:38:48Z</time>
      </trkpt>
      <trkpt lat="49.0427" lon="1.11692">
        <ele>166.5</ele>
        <time>2017-09-19T16:38:50Z</time>
      </trkpt>
      <trkpt lat="49.04275" lon="1.11703">
        <ele>166.3</ele>
        <time>2017-09-19T16:38:52Z</time>
      </trkpt>
      <trkpt lat="49.04281" lon="1.11714">
        <ele>166.3</ele>
        <time>2017-09-19T16:38:54Z</time>
      </trkpt>
      <trkpt lat="49.04287" lon="1.11727">
        <ele>166.4</ele>
        <time>2017-09-19T16:38:56Z</time>
      </trkpt>
      <trkpt lat="49.04287" lon="1.11741">
        <ele>166.2</ele>
        <time>2017-09-19T16:38:58Z</time>
      </trkpt>
      <trkpt lat="49.04283" lon="1.11756">
        <ele>166</ele>
        <time>2017-09-19T16:39:01Z</time>
      </trkpt>
      <trkpt lat="49.04274" lon="1.1177">
        <ele>166.1</ele>
        <time>2017-09-19T16:39:04Z</time>
      </trkpt>
      <trkpt lat="49.04268" lon="1.11784">
        <ele>166.7</ele>
        <time>2017-09-19T16:39:07Z</time>
      </trkpt>
      <trkpt lat="49.04263" lon="1.11801">
        <ele>167.1</ele>
        <time>2017-09-19T16:39:10Z</time>
      </trkpt>
      <trkpt lat="49.04261" lon="1.11816">
        <ele>167.2</ele>
        <time>2017-09-19T16:39:12Z</time>
      </trkpt>
      <trkpt lat="49.04262" lon="1.1183">
        <ele>167.5</ele>
        <time>2017-09-19T16:39:14Z</time>
      </trkpt>
      <trkpt lat="49.04267" lon="1.11848">
        <ele>167.9</ele>
        <time>2017-09-19T16:39:17Z</time>
      </trkpt>
      <trkpt lat="49.04273" lon="1.11866">
        <ele>168.3</ele>
        <time>2017-09-19T16:39:20Z</time>
      </trkpt>
      <trkpt lat="49.04277" lon="1.11879">
        <ele>168.5</ele>
        <time>2017-09-19T16:39:22Z</time>
      </trkpt>
      <trkpt lat="49.04281" lon="1.11892">
        <ele>168.6</ele>
        <time>2017-09-19T16:39:24Z</time>
      </trkpt>
      <trkpt lat="49.04287" lon="1.1191">
        <ele>168.7</ele>
        <time>2017-09-19T16:39:27Z</time>
      </trkpt>
      <trkpt lat="49.04292" lon="1.11923">
        <ele>168.7</ele>
        <time>2017-09-19T16:39:29Z</time>
      </trkpt>
      <trkpt lat="49.04295" lon="1.11936">
        <ele>168.8</ele>
        <time>2017-09-19T16:39:31Z</time>
      </trkpt>
      <trkpt lat="49.04298" lon="1.11949">
        <ele>168.8</ele>
        <time>2017-09-19T16:39:33Z</time>
      </trkpt>
      <trkpt lat="49.04303" lon="1.11968">
        <ele>168.9</ele>
        <time>2017-09-19T16:39:36Z</time>
      </trkpt>
      <trkpt lat="49.04309" lon="1.11983">
        <ele>168.9</ele>
        <time>2017-09-19T16:39:38Z</time>
      </trkpt>
      <trkpt lat="49.04313" lon="1.11996">
        <ele>169</ele>
        <time>2017-09-19T16:39:40Z</time>
      </trkpt>
      <trkpt lat="49.04318" lon="1.12008">
        <ele>169</ele>
        <time>2017-09-19T16:39:42Z</time>
      </trkpt>
      <trkpt lat="49.04321" lon="1.12025">
        <ele>169.1</ele>
        <time>2017-09-19T16:39:45Z</time>
      </trkpt>
      <trkpt lat="49.04326" lon="1.1204">
        <ele>169.3</ele>
        <time>2017-09-19T16:39:47Z</time>
      </trkpt>
      <trkpt lat="49.04329" lon="1.12052">
        <ele>169.5</ele>
        <time>2017-09-19T16:39:49Z</time>
      </trkpt>
      <trkpt lat="49.04335" lon="1.12066">
        <ele>169.7</ele>
        <time>2017-09-19T16:39:51Z</time>
      </trkpt>
      <trkpt lat="49.04339" lon="1.12078">
        <ele>169.9</ele>
        <time>2017-09-19T16:39:53Z</time>
      </trkpt>
      <trkpt lat="49.04342" lon="1.12091">
        <ele>170</ele>
        <time>2017-09-19T16:39:55Z</time>
      </trkpt>
      <trkpt lat="49.04342" lon="1.12111">
        <ele>170.3</ele>
        <time>2017-09-19T16:39:58Z</time>
      </trkpt>
      <trkpt lat="49.04343" lon="1.12128">
        <ele>170.7</ele>
        <time>2017-09-19T16:40:01Z</time>
      </trkpt>
      <trkpt lat="49.04345" lon="1.12147">
        <ele>171.2</ele>
        <time>2017-09-19T16:40:04Z</time>
      </trkpt>
      <trkpt lat="49.04342" lon="1.12166">
        <ele>171.9</ele>
        <time>2017-09-19T16:40:07Z</time>
      </trkpt>
      <trkpt lat="49.0434" lon="1.1218">
        <ele>172.3</ele>
        <time>2017-09-19T16:40:09Z</time>
      </trkpt>
      <trkpt lat="49.04338" lon="1.12198">
        <ele>172.8</ele>
        <time>2017-09-19T16:40:12Z</time>
      </trkpt>
      <trkpt lat="49.04334" lon="1.12214">
        <ele>173.3</ele>
        <time>2017-09-19T16:40:15Z</time>
      </trkpt>
      <trkpt lat="49.04329" lon="1.12226">
        <ele>173.7</ele>
        <time>2017-09-19T16:40:18Z</time>
      </trkpt>
      <trkpt lat="49.04323" lon="1.12244">
        <ele>173.9</ele>
        <time>2017-09-19T16:40:21Z</time>
      </trkpt>
      <trkpt lat="49.04321" lon="1.12263">
        <ele>174.1</ele>
        <time>2017-09-19T16:40:24Z</time>
      </trkpt>
      <trkpt lat="49.04321" lon="1.1228">
        <ele>174.5</ele>
        <time>2017-09-19T16:40:27Z</time>
      </trkpt>
      <trkpt lat="49.04318" lon="1.12299">
        <ele>174.9</ele>
        <time>2017-09-19T16:40:30Z</time>
      </trkpt>
      <trkpt lat="49.04314" lon="1.12318">
        <ele>175.2</ele>
        <time>2017-09-19T16:40:33Z</time>
      </trkpt>
      <trkpt lat="49.04307" lon="1.12331">
        <ele>175.4</ele>
        <time>2017-09-19T16:40:36Z</time>
      </trkpt>
      <trkpt lat="49.04301" lon="1.12342">
        <ele>175.5</ele>
        <time>2017-09-19T16:40:39Z</time>
      </trkpt>
      <trkpt lat="49.04292" lon="1.12351">
        <ele>175.7</ele>
        <time>2017-09-19T16:40:42Z</time>
      </trkpt>
      <trkpt lat="49.04281" lon="1.12359">
        <ele>175</ele>
        <time>2017-09-19T16:40:45Z</time>
      </trkpt>
      <trkpt lat="49.04269" lon="1.12366">
        <ele>175.5</ele>
        <time>2017-09-19T16:40:48Z</time>
      </trkpt>
      <trkpt lat="49.04266" lon="1.12351">
        <ele>175.9</ele>
        <time>2017-09-19T16:40:52Z</time>
      </trkpt>
      <trkpt lat="49.04263" lon="1.12332">
        <ele>175.9</ele>
        <time>2017-09-19T16:40:56Z</time>
      </trkpt>
      <trkpt lat="49.04258" lon="1.12317">
        <ele>175.9</ele>
        <time>2017-09-19T16:40:59Z</time>
      </trkpt>
      <trkpt lat="49.04255" lon="1.12303">
        <ele>176</ele>
        <time>2017-09-19T16:41:02Z</time>
      </trkpt>
      <trkpt lat="49.04249" lon="1.12285">
        <ele>176</ele>
        <time>2017-09-19T16:41:05Z</time>
      </trkpt>
      <trkpt lat="49.04247" lon="1.12269">
        <ele>176.1</ele>
        <time>2017-09-19T16:41:08Z</time>
      </trkpt>
      <trkpt lat="49.04246" lon="1.1225">
        <ele>176.1</ele>
        <time>2017-09-19T16:41:11Z</time>
      </trkpt>
      <trkpt lat="49.04245" lon="1.12233">
        <ele>176.1</ele>
        <time>2017-09-19T16:41:14Z</time>
      </trkpt>
      <trkpt lat="49.04239" lon="1.12217">
        <ele>175.9</ele>
        <time>2017-09-19T16:41:17Z</time>
      </trkpt>
      <trkpt lat="49.04232" lon="1.12201">
        <ele>175.8</ele>
        <time>2017-09-19T16:41:20Z</time>
      </trkpt>
      <trkpt lat="49.04225" lon="1.12188">
        <ele>175.6</ele>
        <time>2017-09-19T16:41:22Z</time>
      </trkpt>
      <trkpt lat="49.04218" lon="1.12175">
        <ele>175.5</ele>
        <time>2017-09-19T16:41:24Z</time>
      </trkpt>
      <trkpt lat="49.04206" lon="1.12173">
        <ele>175.4</ele>
        <time>2017-09-19T16:41:27Z</time>
      </trkpt>
      <trkpt lat="49.04197" lon="1.12179">
        <ele>175.6</ele>
        <time>2017-09-19T16:41:30Z</time>
      </trkpt>
      <trkpt lat="49.04189" lon="1.12187">
        <ele>175.7</ele>
        <time>2017-09-19T16:41:33Z</time>
      </trkpt>
      <trkpt lat="49.04178" lon="1.12195">
        <ele>175.8</ele>
        <time>2017-09-19T16:41:36Z</time>
      </trkpt>
      <trkpt lat="49.0417" lon="1.12201">
        <ele>175.8</ele>
        <time>2017-09-19T16:41:38Z</time>
      </trkpt>
      <trkpt lat="49.0416" lon="1.12211">
        <ele>175.8</ele>
        <time>2017-09-19T16:41:41Z</time>
      </trkpt>
      <trkpt lat="49.04149" lon="1.1222">
        <ele>175.9</ele>
        <time>2017-09-19T16:41:44Z</time>
      </trkpt>
      <trkpt lat="49.0414" lon="1.12227">
        <ele>175.9</ele>
        <time>2017-09-19T16:41:46Z</time>
      </trkpt>
      <trkpt lat="49.04132" lon="1.12237">
        <ele>175.8</ele>
        <time>2017-09-19T16:41:49Z</time>
      </trkpt>
      <trkpt lat="49.04124" lon="1.12243">
        <ele>176</ele>
        <time>2017-09-19T16:41:58Z</time>
      </trkpt>
      <trkpt lat="49.04116" lon="1.1225">
        <ele>175.8</ele>
        <time>2017-09-19T16:42:18Z</time>
      </trkpt>
      <trkpt lat="49.04107" lon="1.12257">
        <ele>175.8</ele>
        <time>2017-09-19T16:42:22Z</time>
      </trkpt>
      <trkpt lat="49.04097" lon="1.12264">
        <ele>175.7</ele>
        <time>2017-09-19T16:42:26Z</time>
      </trkpt>
      <trkpt lat="49.04089" lon="1.12274">
        <ele>175.6</ele>
        <time>2017-09-19T16:42:30Z</time>
      </trkpt>
      <trkpt lat="49.04082" lon="1.12289">
        <ele>175.3</ele>
        <time>2017-09-19T16:42:34Z</time>
      </trkpt>
      <trkpt lat="49.04075" lon="1.12298">
        <ele>175.1</ele>
        <time>2017-09-19T16:42:37Z</time>
      </trkpt>
      <trkpt lat="49.04067" lon="1.12307">
        <ele>175</ele>
        <time>2017-09-19T16:42:40Z</time>
      </trkpt>
      <trkpt lat="49.04056" lon="1.12315">
        <ele>174.7</ele>
        <time>2017-09-19T16:42:43Z</time>
      </trkpt>
      <trkpt lat="49.04047" lon="1.1233">
        <ele>174.5</ele>
        <time>2017-09-19T16:42:46Z</time>
      </trkpt>
      <trkpt lat="49.0404" lon="1.12338">
        <ele>174.4</ele>
        <time>2017-09-19T16:42:48Z</time>
      </trkpt>
      <trkpt lat="49.04029" lon="1.1235">
        <ele>174.1</ele>
        <time>2017-09-19T16:42:51Z</time>
      </trkpt>
      <trkpt lat="49.04021" lon="1.12363">
        <ele>173.9</ele>
        <time>2017-09-19T16:42:54Z</time>
      </trkpt>
      <trkpt lat="49.04013" lon="1.12373">
        <ele>173.5</ele>
        <time>2017-09-19T16:42:56Z</time>
      </trkpt>
      <trkpt lat="49.04003" lon="1.12383">
        <ele>173.1</ele>
        <time>2017-09-19T16:42:59Z</time>
      </trkpt>
      <trkpt lat="49.03996" lon="1.12393">
        <ele>172.8</ele>
        <time>2017-09-19T16:43:01Z</time>
      </trkpt>
      <trkpt lat="49.03985" lon="1.12405">
        <ele>172.5</ele>
        <time>2017-09-19T16:43:03Z</time>
      </trkpt>
      <trkpt lat="49.03978" lon="1.12415">
        <ele>172.3</ele>
        <time>2017-09-19T16:43:05Z</time>
      </trkpt>
      <trkpt lat="49.03968" lon="1.12427">
        <ele>172.1</ele>
        <time>2017-09-19T16:43:07Z</time>
      </trkpt>
      <trkpt lat="49.03958" lon="1.12438">
        <ele>171.7</ele>
        <time>2017-09-19T16:43:09Z</time>
      </trkpt>
      <trkpt lat="49.03949" lon="1.12448">
        <ele>171.5</ele>
        <time>2017-09-19T16:43:11Z</time>
      </trkpt>
      <trkpt lat="49.03938" lon="1.12461">
        <ele>171.3</ele>
        <time>2017-09-19T16:43:14Z</time>
      </trkpt>
      <trkpt lat="49.03928" lon="1.12475">
        <ele>171.1</ele>
        <time>2017-09-19T16:43:17Z</time>
      </trkpt>
      <trkpt lat="49.03919" lon="1.12484">
        <ele>171</ele>
        <time>2017-09-19T16:43:19Z</time>
      </trkpt>
      <trkpt lat="49.03911" lon="1.12494">
        <ele>170.7</ele>
        <time>2017-09-19T16:43:21Z</time>
      </trkpt>
      <trkpt lat="49.03904" lon="1.12505">
        <ele>170.4</ele>
        <time>2017-09-19T16:43:23Z</time>
      </trkpt>
      <trkpt lat="49.03897" lon="1.12513">
        <ele>170.2</ele>
        <time>2017-09-19T16:43:25Z</time>
      </trkpt>
      <trkpt lat="49.0389" lon="1.12524">
        <ele>170.1</ele>
        <time>2017-09-19T16:43:27Z</time>
      </trkpt>
      <trkpt lat="49.03882" lon="1.12534">
        <ele>170</ele>
        <time>2017-09-19T16:43:29Z</time>
      </trkpt>
      <trkpt lat="49.03873" lon="1.12545">
        <ele>169.7</ele>
        <time>2017-09-19T16:43:31Z</time>
      </trkpt>
      <trkpt lat="49.03866" lon="1.12555">
        <ele>169.6</ele>
        <time>2017-09-19T16:43:33Z</time>
      </trkpt>
      <trkpt lat="49.03857" lon="1.12568">
        <ele>169.4</ele>
        <time>2017-09-19T16:43:35Z</time>
      </trkpt>
      <trkpt lat="49.03848" lon="1.12579">
        <ele>169.2</ele>
        <time>2017-09-19T16:43:37Z</time>
      </trkpt>
      <trkpt lat="49.03838" lon="1.1259">
        <ele>168.9</ele>
        <time>2017-09-19T16:43:39Z</time>
      </trkpt>
      <trkpt lat="49.03831" lon="1.12599">
        <ele>168.7</ele>
        <time>2017-09-19T16:43:41Z</time>
      </trkpt>
      <trkpt lat="49.03819" lon="1.12613">
        <ele>168.4</ele>
        <time>2017-09-19T16:43:44Z</time>
      </trkpt>
      <trkpt lat="49.03807" lon="1.12626">
        <ele>168.4</ele>
        <time>2017-09-19T16:43:46Z</time>
      </trkpt>
      <trkpt lat="49.03798" lon="1.12636">
        <ele>168.2</ele>
        <time>2017-09-19T16:43:48Z</time>
      </trkpt>
      <trkpt lat="49.03787" lon="1.12648">
        <ele>168</ele>
        <time>2017-09-19T16:43:50Z</time>
      </trkpt>
      <trkpt lat="49.03777" lon="1.12659">
        <ele>167.6</ele>
        <time>2017-09-19T16:43:52Z</time>
      </trkpt>
      <trkpt lat="49.03768" lon="1.12665">
        <ele>167.4</ele>
        <time>2017-09-19T16:43:54Z</time>
      </trkpt>
      <trkpt lat="49.0376" lon="1.12673">
        <ele>167.1</ele>
        <time>2017-09-19T16:43:57Z</time>
      </trkpt>
      <trkpt lat="49.03756" lon="1.12686">
        <ele>166.8</ele>
        <time>2017-09-19T16:44:00Z</time>
      </trkpt>
      <trkpt lat="49.03747" lon="1.12696">
        <ele>166.5</ele>
        <time>2017-09-19T16:44:03Z</time>
      </trkpt>
      <trkpt lat="49.03739" lon="1.1271">
        <ele>166.1</ele>
        <time>2017-09-19T16:44:06Z</time>
      </trkpt>
      <trkpt lat="49.03731" lon="1.12719">
        <ele>165.8</ele>
        <time>2017-09-19T16:44:08Z</time>
      </trkpt>
      <trkpt lat="49.03722" lon="1.12728">
        <ele>165.6</ele>
        <time>2017-09-19T16:44:10Z</time>
      </trkpt>
      <trkpt lat="49.03713" lon="1.12742">
        <ele>165.2</ele>
        <time>2017-09-19T16:44:13Z</time>
      </trkpt>
      <trkpt lat="49.03706" lon="1.12753">
        <ele>165</ele>
        <time>2017-09-19T16:44:15Z</time>
      </trkpt>
      <trkpt lat="49.03696" lon="1.12763">
        <ele>164.9</ele>
        <time>2017-09-19T16:44:17Z</time>
      </trkpt>
      <trkpt lat="49.03687" lon="1.12774">
        <ele>164.8</ele>
        <time>2017-09-19T16:44:19Z</time>
      </trkpt>
      <trkpt lat="49.03679" lon="1.12783">
        <ele>164.7</ele>
        <time>2017-09-19T16:44:21Z</time>
      </trkpt>
      <trkpt lat="49.0367" lon="1.12792">
        <ele>164.6</ele>
        <time>2017-09-19T16:44:23Z</time>
      </trkpt>
      <trkpt lat="49.03662" lon="1.12801">
        <ele>164.6</ele>
        <time>2017-09-19T16:44:25Z</time>
      </trkpt>
      <trkpt lat="49.03652" lon="1.12815">
        <ele>164.6</ele>
        <time>2017-09-19T16:44:28Z</time>
      </trkpt>
      <trkpt lat="49.03642" lon="1.12825">
        <ele>164.7</ele>
        <time>2017-09-19T16:44:31Z</time>
      </trkpt>
      <trkpt lat="49.03636" lon="1.12835">
        <ele>164.8</ele>
        <time>2017-09-19T16:44:34Z</time>
      </trkpt>
      <trkpt lat="49.0363" lon="1.12849">
        <ele>164.8</ele>
        <time>2017-09-19T16:44:39Z</time>
      </trkpt>
      <trkpt lat="49.03634" lon="1.12862">
        <ele>164.8</ele>
        <time>2017-09-19T16:44:42Z</time>
      </trkpt>
      <trkpt lat="49.03642" lon="1.12874">
        <ele>164.7</ele>
        <time>2017-09-19T16:44:45Z</time>
      </trkpt>
      <trkpt lat="49.03653" lon="1.12886">
        <ele>164.7</ele>
        <time>2017-09-19T16:44:48Z</time>
      </trkpt>
      <trkpt lat="49.0366" lon="1.12895">
        <ele>164.8</ele>
        <time>2017-09-19T16:44:50Z</time>
      </trkpt>
      <trkpt lat="49.03666" lon="1.12907">
        <ele>164.8</ele>
        <time>2017-09-19T16:44:52Z</time>
      </trkpt>
      <trkpt lat="49.03667" lon="1.12921">
        <ele>165</ele>
        <time>2017-09-19T16:44:54Z</time>
      </trkpt>
      <trkpt lat="49.03667" lon="1.12936">
        <ele>165.1</ele>
        <time>2017-09-19T16:44:56Z</time>
      </trkpt>
      <trkpt lat="49.03677" lon="1.12943">
        <ele>165.2</ele>
        <time>2017-09-19T16:44:59Z</time>
      </trkpt>
      <trkpt lat="49.03688" lon="1.12943">
        <ele>165.3</ele>
        <time>2017-09-19T16:45:02Z</time>
      </trkpt>
      <trkpt lat="49.03702" lon="1.12945">
        <ele>165.4</ele>
        <time>2017-09-19T16:45:05Z</time>
      </trkpt>
      <trkpt lat="49.03711" lon="1.1295">
        <ele>165.6</ele>
        <time>2017-09-19T16:45:07Z</time>
      </trkpt>
      <trkpt lat="49.03719" lon="1.12958">
        <ele>165.6</ele>
        <time>2017-09-19T16:45:09Z</time>
      </trkpt>
      <trkpt lat="49.03723" lon="1.1297">
        <ele>165.6</ele>
        <time>2017-09-19T16:45:12Z</time>
      </trkpt>
      <trkpt lat="49.03717" lon="1.1298">
        <ele>165.7</ele>
        <time>2017-09-19T16:45:15Z</time>
      </trkpt>
      <trkpt lat="49.03708" lon="1.1299">
        <ele>165.6</ele>
        <time>2017-09-19T16:45:18Z</time>
      </trkpt>
      <trkpt lat="49.03696" lon="1.12999">
        <ele>165.4</ele>
        <time>2017-09-19T16:45:21Z</time>
      </trkpt>
      <trkpt lat="49.03687" lon="1.13013">
        <ele>165.3</ele>
        <time>2017-09-19T16:45:24Z</time>
      </trkpt>
      <trkpt lat="49.03694" lon="1.13023">
        <ele>165.3</ele>
        <time>2017-09-19T16:45:28Z</time>
      </trkpt>
      <trkpt lat="49.03703" lon="1.13017">
        <ele>165.2</ele>
        <time>2017-09-19T16:45:31Z</time>
      </trkpt>
      <trkpt lat="49.03713" lon="1.13008">
        <ele>165.2</ele>
        <time>2017-09-19T16:45:34Z</time>
      </trkpt>
      <trkpt lat="49.03722" lon="1.13003">
        <ele>165.3</ele>
        <time>2017-09-19T16:45:36Z</time>
      </trkpt>
      <trkpt lat="49.03732" lon="1.12999">
        <ele>165.4</ele>
        <time>2017-09-19T16:45:38Z</time>
      </trkpt>
      <trkpt lat="49.03742" lon="1.12993">
        <ele>165.5</ele>
        <time>2017-09-19T16:45:40Z</time>
      </trkpt>
      <trkpt lat="49.03752" lon="1.12987">
        <ele>165.6</ele>
        <time>2017-09-19T16:45:42Z</time>
      </trkpt>
      <trkpt lat="49.03762" lon="1.12995">
        <ele>165.6</ele>
        <time>2017-09-19T16:45:45Z</time>
      </trkpt>
      <trkpt lat="49.03762" lon="1.13014">
        <ele>165.6</ele>
        <time>2017-09-19T16:45:48Z</time>
      </trkpt>
      <trkpt lat="49.03759" lon="1.13029">
        <ele>165.6</ele>
        <time>2017-09-19T16:45:50Z</time>
      </trkpt>
      <trkpt lat="49.03762" lon="1.13043">
        <ele>165.7</ele>
        <time>2017-09-19T16:45:52Z</time>
      </trkpt>
      <trkpt lat="49.03762" lon="1.13062">
        <ele>165.7</ele>
        <time>2017-09-19T16:45:55Z</time>
      </trkpt>
      <trkpt lat="49.0376" lon="1.13082">
        <ele>165.5</ele>
        <time>2017-09-19T16:45:58Z</time>
      </trkpt>
      <trkpt lat="49.03759" lon="1.13096">
        <ele>165.5</ele>
        <time>2017-09-19T16:46:00Z</time>
      </trkpt>
      <trkpt lat="49.03754" lon="1.13109">
        <ele>165.4</ele>
        <time>2017-09-19T16:46:02Z</time>
      </trkpt>
      <trkpt lat="49.03747" lon="1.13119">
        <ele>165.3</ele>
        <time>2017-09-19T16:46:04Z</time>
      </trkpt>
      <trkpt lat="49.03739" lon="1.13133">
        <ele>164.9</ele>
        <time>2017-09-19T16:46:07Z</time>
      </trkpt>
      <trkpt lat="49.03744" lon="1.13149">
        <ele>164.7</ele>
        <time>2017-09-19T16:46:12Z</time>
      </trkpt>
      <trkpt lat="49.03741" lon="1.13164">
        <ele>164.5</ele>
        <time>2017-09-19T16:46:15Z</time>
      </trkpt>
      <trkpt lat="49.03731" lon="1.13176">
        <ele>164.3</ele>
        <time>2017-09-19T16:46:18Z</time>
      </trkpt>
      <trkpt lat="49.03723" lon="1.13185">
        <ele>164.2</ele>
        <time>2017-09-19T16:46:20Z</time>
      </trkpt>
      <trkpt lat="49.03715" lon="1.13197">
        <ele>164.1</ele>
        <time>2017-09-19T16:46:23Z</time>
      </trkpt>
      <trkpt lat="49.03714" lon="1.13211">
        <ele>164</ele>
        <time>2017-09-19T16:46:27Z</time>
      </trkpt>
      <trkpt lat="49.03723" lon="1.13226">
        <ele>164</ele>
        <time>2017-09-19T16:46:30Z</time>
      </trkpt>
      <trkpt lat="49.03723" lon="1.13241">
        <ele>163.9</ele>
        <time>2017-09-19T16:46:32Z</time>
      </trkpt>
      <trkpt lat="49.03719" lon="1.13256">
        <ele>163.9</ele>
        <time>2017-09-19T16:46:34Z</time>
      </trkpt>
      <trkpt lat="49.03714" lon="1.13271">
        <ele>163.7</ele>
        <time>2017-09-19T16:46:36Z</time>
      </trkpt>
      <trkpt lat="49.03708" lon="1.13287">
        <ele>163.7</ele>
        <time>2017-09-19T16:46:38Z</time>
      </trkpt>
      <trkpt lat="49.03699" lon="1.13298">
        <ele>163.5</ele>
        <time>2017-09-19T16:46:40Z</time>
      </trkpt>
      <trkpt lat="49.03688" lon="1.13305">
        <ele>163.4</ele>
        <time>2017-09-19T16:46:42Z</time>
      </trkpt>
      <trkpt lat="49.03677" lon="1.13309">
        <ele>163.3</ele>
        <time>2017-09-19T16:46:44Z</time>
      </trkpt>
      <trkpt lat="49.03665" lon="1.13313">
        <ele>162.9</ele>
        <time>2017-09-19T16:46:46Z</time>
      </trkpt>
      <trkpt lat="49.03653" lon="1.13318">
        <ele>162.7</ele>
        <time>2017-09-19T16:46:48Z</time>
      </trkpt>
      <trkpt lat="49.0364" lon="1.13325">
        <ele>162.5</ele>
        <time>2017-09-19T16:46:50Z</time>
      </trkpt>
      <trkpt lat="49.03629" lon="1.13333">
        <ele>162.4</ele>
        <time>2017-09-19T16:46:52Z</time>
      </trkpt>
      <trkpt lat="49.03617" lon="1.13343">
        <ele>162.3</ele>
        <time>2017-09-19T16:46:54Z</time>
      </trkpt>
      <trkpt lat="49.03607" lon="1.13356">
        <ele>162.1</ele>
        <time>2017-09-19T16:46:56Z</time>
      </trkpt>
      <trkpt lat="49.03598" lon="1.1337">
        <ele>162</ele>
        <time>2017-09-19T16:46:58Z</time>
      </trkpt>
      <trkpt lat="49.0359" lon="1.13386">
        <ele>161.8</ele>
        <time>2017-09-19T16:47:00Z</time>
      </trkpt>
      <trkpt lat="49.03587" lon="1.13406">
        <ele>161.7</ele>
        <time>2017-09-19T16:47:02Z</time>
      </trkpt>
      <trkpt lat="49.03586" lon="1.13426">
        <ele>161.6</ele>
        <time>2017-09-19T16:47:04Z</time>
      </trkpt>
      <trkpt lat="49.03587" lon="1.13446">
        <ele>161.4</ele>
        <time>2017-09-19T16:47:06Z</time>
      </trkpt>
      <trkpt lat="49.03588" lon="1.13466">
        <ele>161.5</ele>
        <time>2017-09-19T16:47:08Z</time>
      </trkpt>
      <trkpt lat="49.03588" lon="1.13486">
        <ele>161.2</ele>
        <time>2017-09-19T16:47:10Z</time>
      </trkpt>
      <trkpt lat="49.03586" lon="1.13505">
        <ele>161.1</ele>
        <time>2017-09-19T16:47:12Z</time>
      </trkpt>
      <trkpt lat="49.03581" lon="1.13519">
        <ele>161</ele>
        <time>2017-09-19T16:47:14Z</time>
      </trkpt>
      <trkpt lat="49.03575" lon="1.13532">
        <ele>161.1</ele>
        <time>2017-09-19T16:47:17Z</time>
      </trkpt>
      <trkpt lat="49.03577" lon="1.13549">
        <ele>161.2</ele>
        <time>2017-09-19T16:47:28Z</time>
      </trkpt>
      <trkpt lat="49.03586" lon="1.13562">
        <ele>161</ele>
        <time>2017-09-19T16:47:31Z</time>
      </trkpt>
      <trkpt lat="49.03594" lon="1.1357">
        <ele>160.8</ele>
        <time>2017-09-19T16:47:33Z</time>
      </trkpt>
      <trkpt lat="49.03604" lon="1.13578">
        <ele>160.8</ele>
        <time>2017-09-19T16:47:35Z</time>
      </trkpt>
      <trkpt lat="49.03614" lon="1.13585">
        <ele>160.7</ele>
        <time>2017-09-19T16:47:37Z</time>
      </trkpt>
      <trkpt lat="49.03624" lon="1.13592">
        <ele>160.8</ele>
        <time>2017-09-19T16:47:39Z</time>
      </trkpt>
      <trkpt lat="49.03634" lon="1.13599">
        <ele>161</ele>
        <time>2017-09-19T16:47:41Z</time>
      </trkpt>
      <trkpt lat="49.03644" lon="1.13606">
        <ele>161.1</ele>
        <time>2017-09-19T16:47:43Z</time>
      </trkpt>
      <trkpt lat="49.03653" lon="1.13613">
        <ele>161.4</ele>
        <time>2017-09-19T16:47:45Z</time>
      </trkpt>
      <trkpt lat="49.03663" lon="1.1362">
        <ele>161.7</ele>
        <time>2017-09-19T16:47:47Z</time>
      </trkpt>
      <trkpt lat="49.03672" lon="1.13626">
        <ele>161.9</ele>
        <time>2017-09-19T16:47:49Z</time>
      </trkpt>
      <trkpt lat="49.03682" lon="1.13632">
        <ele>162.2</ele>
        <time>2017-09-19T16:47:51Z</time>
      </trkpt>
      <trkpt lat="49.03691" lon="1.13637">
        <ele>162.4</ele>
        <time>2017-09-19T16:47:53Z</time>
      </trkpt>
      <trkpt lat="49.03696" lon="1.1365">
        <ele>163</ele>
        <time>2017-09-19T16:47:57Z</time>
      </trkpt>
      <trkpt lat="49.03698" lon="1.13666">
        <ele>163.3</ele>
        <time>2017-09-19T16:48:00Z</time>
      </trkpt>
      <trkpt lat="49.03706" lon="1.13677">
        <ele>163.5</ele>
        <time>2017-09-19T16:48:03Z</time>
      </trkpt>
      <trkpt lat="49.03719" lon="1.13686">
        <ele>163.9</ele>
        <time>2017-09-19T16:48:06Z</time>
      </trkpt>
      <trkpt lat="49.03728" lon="1.13693">
        <ele>164.1</ele>
        <time>2017-09-19T16:48:08Z</time>
      </trkpt>
      <trkpt lat="49.03738" lon="1.137">
        <ele>164.3</ele>
        <time>2017-09-19T16:48:10Z</time>
      </trkpt>
      <trkpt lat="49.03749" lon="1.1371">
        <ele>164.5</ele>
        <time>2017-09-19T16:48:13Z</time>
      </trkpt>
      <trkpt lat="49.03758" lon="1.13716">
        <ele>164.5</ele>
        <time>2017-09-19T16:48:15Z</time>
      </trkpt>
      <trkpt lat="49.03766" lon="1.13724">
        <ele>164.8</ele>
        <time>2017-09-19T16:48:17Z</time>
      </trkpt>
      <trkpt lat="49.03778" lon="1.13734">
        <ele>165.2</ele>
        <time>2017-09-19T16:48:20Z</time>
      </trkpt>
      <trkpt lat="49.03788" lon="1.13741">
        <ele>165.6</ele>
        <time>2017-09-19T16:48:22Z</time>
      </trkpt>
      <trkpt lat="49.03798" lon="1.13748">
        <ele>165.8</ele>
        <time>2017-09-19T16:48:24Z</time>
      </trkpt>
      <trkpt lat="49.03808" lon="1.13756">
        <ele>166</ele>
        <time>2017-09-19T16:48:26Z</time>
      </trkpt>
      <trkpt lat="49.03817" lon="1.13763">
        <ele>166.3</ele>
        <time>2017-09-19T16:48:28Z</time>
      </trkpt>
      <trkpt lat="49.03828" lon="1.13771">
        <ele>166.3</ele>
        <time>2017-09-19T16:48:30Z</time>
      </trkpt>
      <trkpt lat="49.03838" lon="1.13779">
        <ele>166.5</ele>
        <time>2017-09-19T16:48:32Z</time>
      </trkpt>
      <trkpt lat="49.03848" lon="1.13786">
        <ele>166.7</ele>
        <time>2017-09-19T16:48:34Z</time>
      </trkpt>
      <trkpt lat="49.03858" lon="1.13794">
        <ele>167</ele>
        <time>2017-09-19T16:48:36Z</time>
      </trkpt>
      <trkpt lat="49.03866" lon="1.13802">
        <ele>167.2</ele>
        <time>2017-09-19T16:48:38Z</time>
      </trkpt>
      <trkpt lat="49.03876" lon="1.13811">
        <ele>167.2</ele>
        <time>2017-09-19T16:48:40Z</time>
      </trkpt>
      <trkpt lat="49.03885" lon="1.13818">
        <ele>167.4</ele>
        <time>2017-09-19T16:48:42Z</time>
      </trkpt>
      <trkpt lat="49.03894" lon="1.13825">
        <ele>167.5</ele>
        <time>2017-09-19T16:48:44Z</time>
      </trkpt>
      <trkpt lat="49.03905" lon="1.13836">
        <ele>167.6</ele>
        <time>2017-09-19T16:48:47Z</time>
      </trkpt>
      <trkpt lat="49.03912" lon="1.13845">
        <ele>167.6</ele>
        <time>2017-09-19T16:48:49Z</time>
      </trkpt>
      <trkpt lat="49.03923" lon="1.13854">
        <ele>167.6</ele>
        <time>2017-09-19T16:48:51Z</time>
      </trkpt>
      <trkpt lat="49.03933" lon="1.13862">
        <ele>167.6</ele>
        <time>2017-09-19T16:48:53Z</time>
      </trkpt>
      <trkpt lat="49.03942" lon="1.13869">
        <ele>167.7</ele>
        <time>2017-09-19T16:48:55Z</time>
      </trkpt>
      <trkpt lat="49.03953" lon="1.13877">
        <ele>167.7</ele>
        <time>2017-09-19T16:48:57Z</time>
      </trkpt>
      <trkpt lat="49.03962" lon="1.13885">
        <ele>167.6</ele>
        <time>2017-09-19T16:48:59Z</time>
      </trkpt>
      <trkpt lat="49.03971" lon="1.13894">
        <ele>167.6</ele>
        <time>2017-09-19T16:49:01Z</time>
      </trkpt>
      <trkpt lat="49.03979" lon="1.139">
        <ele>167.5</ele>
        <time>2017-09-19T16:49:03Z</time>
      </trkpt>
      <trkpt lat="49.03991" lon="1.13908">
        <ele>167.5</ele>
        <time>2017-09-19T16:49:05Z</time>
      </trkpt>
      <trkpt lat="49.03998" lon="1.1392">
        <ele>167.3</ele>
        <time>2017-09-19T16:49:07Z</time>
      </trkpt>
      <trkpt lat="49.04" lon="1.13934">
        <ele>167.1</ele>
        <time>2017-09-19T16:49:09Z</time>
      </trkpt>
      <trkpt lat="49.03999" lon="1.13948">
        <ele>167</ele>
        <time>2017-09-19T16:49:11Z</time>
      </trkpt>
      <trkpt lat="49.03999" lon="1.13961">
        <ele>167</ele>
        <time>2017-09-19T16:49:13Z</time>
      </trkpt>
      <trkpt lat="49.04004" lon="1.13981">
        <ele>167.3</ele>
        <time>2017-09-19T16:49:16Z</time>
      </trkpt>
      <trkpt lat="49.04" lon="1.13996">
        <ele>167.1</ele>
        <time>2017-09-19T16:49:19Z</time>
      </trkpt>
      <trkpt lat="49.03999" lon="1.14017">
        <ele>167</ele>
        <time>2017-09-19T16:49:22Z</time>
      </trkpt>
      <trkpt lat="49.03997" lon="1.14035">
        <ele>167</ele>
        <time>2017-09-19T16:49:24Z</time>
      </trkpt>
      <trkpt lat="49.03996" lon="1.14052">
        <ele>166.9</ele>
        <time>2017-09-19T16:49:26Z</time>
      </trkpt>
      <trkpt lat="49.03991" lon="1.14066">
        <ele>166.6</ele>
        <time>2017-09-19T16:49:29Z</time>
      </trkpt>
      <trkpt lat="49.03979" lon="1.14071">
        <ele>166.5</ele>
        <time>2017-09-19T16:49:31Z</time>
      </trkpt>
      <trkpt lat="49.03966" lon="1.14079">
        <ele>166.6</ele>
        <time>2017-09-19T16:49:34Z</time>
      </trkpt>
      <trkpt lat="49.03961" lon="1.14096">
        <ele>166.6</ele>
        <time>2017-09-19T16:49:37Z</time>
      </trkpt>
      <trkpt lat="49.03953" lon="1.14109">
        <ele>166.5</ele>
        <time>2017-09-19T16:49:40Z</time>
      </trkpt>
      <trkpt lat="49.03945" lon="1.14117">
        <ele>166.6</ele>
        <time>2017-09-19T16:49:42Z</time>
      </trkpt>
      <trkpt lat="49.03939" lon="1.14132">
        <ele>166.6</ele>
        <time>2017-09-19T16:49:45Z</time>
      </trkpt>
      <trkpt lat="49.03936" lon="1.14146">
        <ele>166.5</ele>
        <time>2017-09-19T16:49:47Z</time>
      </trkpt>
      <trkpt lat="49.03929" lon="1.14156">
        <ele>166.6</ele>
        <time>2017-09-19T16:49:49Z</time>
      </trkpt>
      <trkpt lat="49.03921" lon="1.14163">
        <ele>166.5</ele>
        <time>2017-09-19T16:49:51Z</time>
      </trkpt>
      <trkpt lat="49.03913" lon="1.14172">
        <ele>166.3</ele>
        <time>2017-09-19T16:49:53Z</time>
      </trkpt>
      <trkpt lat="49.03901" lon="1.14184">
        <ele>166.1</ele>
        <time>2017-09-19T16:49:56Z</time>
      </trkpt>
      <trkpt lat="49.03896" lon="1.14195">
        <ele>165.9</ele>
        <time>2017-09-19T16:49:58Z</time>
      </trkpt>
      <trkpt lat="49.03894" lon="1.1421">
        <ele>165.7</ele>
        <time>2017-09-19T16:50:00Z</time>
      </trkpt>
      <trkpt lat="49.03889" lon="1.14228">
        <ele>165.4</ele>
        <time>2017-09-19T16:50:02Z</time>
      </trkpt>
      <trkpt lat="49.03889" lon="1.14245">
        <ele>165.3</ele>
        <time>2017-09-19T16:50:04Z</time>
      </trkpt>
      <trkpt lat="49.03892" lon="1.14259">
        <ele>165.3</ele>
        <time>2017-09-19T16:50:06Z</time>
      </trkpt>
      <trkpt lat="49.03891" lon="1.14277">
        <ele>165.3</ele>
        <time>2017-09-19T16:50:08Z</time>
      </trkpt>
      <trkpt lat="49.0389" lon="1.14295">
        <ele>165.1</ele>
        <time>2017-09-19T16:50:10Z</time>
      </trkpt>
      <trkpt lat="49.03887" lon="1.14313">
        <ele>165.1</ele>
        <time>2017-09-19T16:50:12Z</time>
      </trkpt>
      <trkpt lat="49.03884" lon="1.14329">
        <ele>165</ele>
        <time>2017-09-19T16:50:14Z</time>
      </trkpt>
      <trkpt lat="49.0388" lon="1.14345">
        <ele>164.8</ele>
        <time>2017-09-19T16:50:16Z</time>
      </trkpt>
      <trkpt lat="49.03875" lon="1.14357">
        <ele>164.7</ele>
        <time>2017-09-19T16:50:18Z</time>
      </trkpt>
      <trkpt lat="49.03866" lon="1.14372">
        <ele>164.6</ele>
        <time>2017-09-19T16:50:21Z</time>
      </trkpt>
      <trkpt lat="49.03859" lon="1.14383">
        <ele>164.8</ele>
        <time>2017-09-19T16:50:23Z</time>
      </trkpt>
      <trkpt lat="49.03858" lon="1.14397">
        <ele>164.8</ele>
        <time>2017-09-19T16:50:25Z</time>
      </trkpt>
      <trkpt lat="49.03857" lon="1.14415">
        <ele>164.8</ele>
        <time>2017-09-19T16:50:27Z</time>
      </trkpt>
      <trkpt lat="49.03859" lon="1.14435">
        <ele>164.6</ele>
        <time>2017-09-19T16:50:30Z</time>
      </trkpt>
      <trkpt lat="49.03859" lon="1.14452">
        <ele>164.4</ele>
        <time>2017-09-19T16:50:32Z</time>
      </trkpt>
      <trkpt lat="49.03857" lon="1.14466">
        <ele>164.2</ele>
        <time>2017-09-19T16:50:34Z</time>
      </trkpt>
      <trkpt lat="49.03853" lon="1.14486">
        <ele>163.9</ele>
        <time>2017-09-19T16:50:37Z</time>
      </trkpt>
      <trkpt lat="49.0385" lon="1.14502">
        <ele>163.8</ele>
        <time>2017-09-19T16:50:39Z</time>
      </trkpt>
      <trkpt lat="49.03848" lon="1.14518">
        <ele>163.6</ele>
        <time>2017-09-19T16:50:41Z</time>
      </trkpt>
      <trkpt lat="49.03844" lon="1.14532">
        <ele>163.4</ele>
        <time>2017-09-19T16:50:43Z</time>
      </trkpt>
      <trkpt lat="49.03841" lon="1.14549">
        <ele>163.3</ele>
        <time>2017-09-19T16:50:45Z</time>
      </trkpt>
      <trkpt lat="49.03839" lon="1.14567">
        <ele>163</ele>
        <time>2017-09-19T16:50:47Z</time>
      </trkpt>
      <trkpt lat="49.03836" lon="1.14584">
        <ele>162.8</ele>
        <time>2017-09-19T16:50:49Z</time>
      </trkpt>
      <trkpt lat="49.03832" lon="1.146">
        <ele>162.8</ele>
        <time>2017-09-19T16:50:51Z</time>
      </trkpt>
      <trkpt lat="49.03826" lon="1.14612">
        <ele>162.8</ele>
        <time>2017-09-19T16:50:53Z</time>
      </trkpt>
      <trkpt lat="49.03817" lon="1.14625">
        <ele>162.6</ele>
        <time>2017-09-19T16:50:55Z</time>
      </trkpt>
      <trkpt lat="49.03811" lon="1.14641">
        <ele>162.5</ele>
        <time>2017-09-19T16:50:57Z</time>
      </trkpt>
      <trkpt lat="49.03805" lon="1.14656">
        <ele>162.3</ele>
        <time>2017-09-19T16:50:59Z</time>
      </trkpt>
      <trkpt lat="49.038" lon="1.14674">
        <ele>162.4</ele>
        <time>2017-09-19T16:51:01Z</time>
      </trkpt>
      <trkpt lat="49.03797" lon="1.14689">
        <ele>162.2</ele>
        <time>2017-09-19T16:51:03Z</time>
      </trkpt>
      <trkpt lat="49.03788" lon="1.147">
        <ele>161.9</ele>
        <time>2017-09-19T16:51:06Z</time>
      </trkpt>
      <trkpt lat="49.03779" lon="1.14708">
        <ele>161.6</ele>
        <time>2017-09-19T16:51:08Z</time>
      </trkpt>
      <trkpt lat="49.0377" lon="1.14721">
        <ele>161.5</ele>
        <time>2017-09-19T16:51:10Z</time>
      </trkpt>
      <trkpt lat="49.03759" lon="1.14725">
        <ele>161.3</ele>
        <time>2017-09-19T16:51:13Z</time>
      </trkpt>
      <trkpt lat="49.03749" lon="1.14731">
        <ele>161</ele>
        <time>2017-09-19T16:51:15Z</time>
      </trkpt>
      <trkpt lat="49.03739" lon="1.14738">
        <ele>160.8</ele>
        <time>2017-09-19T16:51:17Z</time>
      </trkpt>
      <trkpt lat="49.03729" lon="1.14742">
        <ele>160.5</ele>
        <time>2017-09-19T16:51:19Z</time>
      </trkpt>
      <trkpt lat="49.0372" lon="1.14749">
        <ele>160.2</ele>
        <time>2017-09-19T16:51:21Z</time>
      </trkpt>
      <trkpt lat="49.03713" lon="1.1476">
        <ele>160</ele>
        <time>2017-09-19T16:51:23Z</time>
      </trkpt>
      <trkpt lat="49.03703" lon="1.14766">
        <ele>159.5</ele>
        <time>2017-09-19T16:51:25Z</time>
      </trkpt>
      <trkpt lat="49.0369" lon="1.14773">
        <ele>159.2</ele>
        <time>2017-09-19T16:51:28Z</time>
      </trkpt>
      <trkpt lat="49.0368" lon="1.14783">
        <ele>158.9</ele>
        <time>2017-09-19T16:51:31Z</time>
      </trkpt>
      <trkpt lat="49.03667" lon="1.14789">
        <ele>158.3</ele>
        <time>2017-09-19T16:51:34Z</time>
      </trkpt>
      <trkpt lat="49.03657" lon="1.14793">
        <ele>157.9</ele>
        <time>2017-09-19T16:51:36Z</time>
      </trkpt>
      <trkpt lat="49.03647" lon="1.14795">
        <ele>157.4</ele>
        <time>2017-09-19T16:51:38Z</time>
      </trkpt>
      <trkpt lat="49.03636" lon="1.14796">
        <ele>156.9</ele>
        <time>2017-09-19T16:51:40Z</time>
      </trkpt>
      <trkpt lat="49.03626" lon="1.14802">
        <ele>155.8</ele>
        <time>2017-09-19T16:51:44Z</time>
      </trkpt>
      <trkpt lat="49.0362" lon="1.14816">
        <ele>155.2</ele>
        <time>2017-09-19T16:51:47Z</time>
      </trkpt>
      <trkpt lat="49.03616" lon="1.1483">
        <ele>154.5</ele>
        <time>2017-09-19T16:51:49Z</time>
      </trkpt>
      <trkpt lat="49.03607" lon="1.14843">
        <ele>153.9</ele>
        <time>2017-09-19T16:51:51Z</time>
      </trkpt>
      <trkpt lat="49.03598" lon="1.14856">
        <ele>153</ele>
        <time>2017-09-19T16:51:53Z</time>
      </trkpt>
      <trkpt lat="49.03591" lon="1.14876">
        <ele>151.2</ele>
        <time>2017-09-19T16:51:55Z</time>
      </trkpt>
      <trkpt lat="49.03589" lon="1.149">
        <ele>148.7</ele>
        <time>2017-09-19T16:51:57Z</time>
      </trkpt>
      <trkpt lat="49.03588" lon="1.14924">
        <ele>147.1</ele>
        <time>2017-09-19T16:51:59Z</time>
      </trkpt>
      <trkpt lat="49.0359" lon="1.14945">
        <ele>145.9</ele>
        <time>2017-09-19T16:52:01Z</time>
      </trkpt>
      <trkpt lat="49.03589" lon="1.14963">
        <ele>145</ele>
        <time>2017-09-19T16:52:03Z</time>
      </trkpt>
      <trkpt lat="49.03584" lon="1.14981">
        <ele>144.5</ele>
        <time>2017-09-19T16:52:05Z</time>
      </trkpt>
      <trkpt lat="49.03578" lon="1.15">
        <ele>144</ele>
        <time>2017-09-19T16:52:07Z</time>
      </trkpt>
      <trkpt lat="49.03569" lon="1.15015">
        <ele>142.8</ele>
        <time>2017-09-19T16:52:09Z</time>
      </trkpt>
      <trkpt lat="49.03558" lon="1.15031">
        <ele>141.1</ele>
        <time>2017-09-19T16:52:11Z</time>
      </trkpt>
      <trkpt lat="49.0355" lon="1.15053">
        <ele>138.9</ele>
        <time>2017-09-19T16:52:13Z</time>
      </trkpt>
      <trkpt lat="49.03545" lon="1.15065">
        <ele>137.8</ele>
        <time>2017-09-19T16:52:14Z</time>
      </trkpt>
      <trkpt lat="49.0354" lon="1.15077">
        <ele>136.8</ele>
        <time>2017-09-19T16:52:15Z</time>
      </trkpt>
      <trkpt lat="49.03535" lon="1.1509">
        <ele>135.7</ele>
        <time>2017-09-19T16:52:16Z</time>
      </trkpt>
      <trkpt lat="49.03529" lon="1.15103">
        <ele>134.7</ele>
        <time>2017-09-19T16:52:17Z</time>
      </trkpt>
      <trkpt lat="49.03524" lon="1.15116">
        <ele>133.7</ele>
        <time>2017-09-19T16:52:18Z</time>
      </trkpt>
      <trkpt lat="49.03518" lon="1.1513">
        <ele>132.7</ele>
        <time>2017-09-19T16:52:19Z</time>
      </trkpt>
      <trkpt lat="49.03513" lon="1.15143">
        <ele>131.8</ele>
        <time>2017-09-19T16:52:20Z</time>
      </trkpt>
      <trkpt lat="49.03507" lon="1.15157">
        <ele>130.9</ele>
        <time>2017-09-19T16:52:21Z</time>
      </trkpt>
      <trkpt lat="49.03502" lon="1.1517">
        <ele>130</ele>
        <time>2017-09-19T16:52:22Z</time>
      </trkpt>
      <trkpt lat="49.03496" lon="1.15184">
        <ele>128.9</ele>
        <time>2017-09-19T16:52:23Z</time>
      </trkpt>
      <trkpt lat="49.03491" lon="1.15197">
        <ele>128.1</ele>
        <time>2017-09-19T16:52:24Z</time>
      </trkpt>
      <trkpt lat="49.03485" lon="1.1521">
        <ele>127.5</ele>
        <time>2017-09-19T16:52:25Z</time>
      </trkpt>
      <trkpt lat="49.03477" lon="1.1523">
        <ele>125.8</ele>
        <time>2017-09-19T16:52:27Z</time>
      </trkpt>
      <trkpt lat="49.0347" lon="1.15241">
        <ele>124.7</ele>
        <time>2017-09-19T16:52:29Z</time>
      </trkpt>
      <trkpt lat="49.0346" lon="1.1524">
        <ele>123.3</ele>
        <time>2017-09-19T16:52:32Z</time>
      </trkpt>
      <trkpt lat="49.03446" lon="1.15242">
        <ele>121.8</ele>
        <time>2017-09-19T16:52:35Z</time>
      </trkpt>
      <trkpt lat="49.03437" lon="1.15253">
        <ele>119.6</ele>
        <time>2017-09-19T16:52:37Z</time>
      </trkpt>
      <trkpt lat="49.03427" lon="1.15257">
        <ele>117.8</ele>
        <time>2017-09-19T16:52:39Z</time>
      </trkpt>
      <trkpt lat="49.03416" lon="1.15254">
        <ele>115.8</ele>
        <time>2017-09-19T16:52:41Z</time>
      </trkpt>
      <trkpt lat="49.03416" lon="1.15269">
        <ele>112.6</ele>
        <time>2017-09-19T16:52:45Z</time>
      </trkpt>
      <trkpt lat="49.03424" lon="1.15279">
        <ele>111.3</ele>
        <time>2017-09-19T16:52:48Z</time>
      </trkpt>
      <trkpt lat="49.03422" lon="1.15294">
        <ele>110.1</ele>
        <time>2017-09-19T16:52:52Z</time>
      </trkpt>
      <trkpt lat="49.03415" lon="1.15308">
        <ele>109.1</ele>
        <time>2017-09-19T16:52:56Z</time>
      </trkpt>
      <trkpt lat="49.03419" lon="1.15326">
        <ele>108.5</ele>
        <time>2017-09-19T16:52:59Z</time>
      </trkpt>
      <trkpt lat="49.03421" lon="1.15342">
        <ele>107.8</ele>
        <time>2017-09-19T16:53:02Z</time>
      </trkpt>
      <trkpt lat="49.03424" lon="1.15356">
        <ele>107.3</ele>
        <time>2017-09-19T16:53:04Z</time>
      </trkpt>
      <trkpt lat="49.03428" lon="1.15373">
        <ele>106.8</ele>
        <time>2017-09-19T16:53:06Z</time>
      </trkpt>
      <trkpt lat="49.03434" lon="1.15391">
        <ele>106.2</ele>
        <time>2017-09-19T16:53:08Z</time>
      </trkpt>
      <trkpt lat="49.03441" lon="1.15409">
        <ele>105.3</ele>
        <time>2017-09-19T16:53:10Z</time>
      </trkpt>
      <trkpt lat="49.0345" lon="1.15429">
        <ele>104.5</ele>
        <time>2017-09-19T16:53:12Z</time>
      </trkpt>
      <trkpt lat="49.03458" lon="1.1545">
        <ele>103.6</ele>
        <time>2017-09-19T16:53:14Z</time>
      </trkpt>
      <trkpt lat="49.03465" lon="1.1547">
        <ele>102.5</ele>
        <time>2017-09-19T16:53:16Z</time>
      </trkpt>
      <trkpt lat="49.0347" lon="1.1549">
        <ele>101.6</ele>
        <time>2017-09-19T16:53:18Z</time>
      </trkpt>
      <trkpt lat="49.03471" lon="1.15511">
        <ele>100.7</ele>
        <time>2017-09-19T16:53:20Z</time>
      </trkpt>
      <trkpt lat="49.03468" lon="1.15528">
        <ele>99.7</ele>
        <time>2017-09-19T16:53:22Z</time>
      </trkpt>
      <trkpt lat="49.03465" lon="1.15543">
        <ele>98.8</ele>
        <time>2017-09-19T16:53:25Z</time>
      </trkpt>
      <trkpt lat="49.03476" lon="1.15554">
        <ele>98</ele>
        <time>2017-09-19T16:53:28Z</time>
      </trkpt>
      <trkpt lat="49.03485" lon="1.15558">
        <ele>97.7</ele>
        <time>2017-09-19T16:53:30Z</time>
      </trkpt>
      <trkpt lat="49.03495" lon="1.15561">
        <ele>97.6</ele>
        <time>2017-09-19T16:53:32Z</time>
      </trkpt>
      <trkpt lat="49.03505" lon="1.15565">
        <ele>97.6</ele>
        <time>2017-09-19T16:53:34Z</time>
      </trkpt>
      <trkpt lat="49.03515" lon="1.15568">
        <ele>97.8</ele>
        <time>2017-09-19T16:53:36Z</time>
      </trkpt>
      <trkpt lat="49.03525" lon="1.15572">
        <ele>98.1</ele>
        <time>2017-09-19T16:53:38Z</time>
      </trkpt>
      <trkpt lat="49.03534" lon="1.15576">
        <ele>98.5</ele>
        <time>2017-09-19T16:53:40Z</time>
      </trkpt>
      <trkpt lat="49.03544" lon="1.15581">
        <ele>99</ele>
        <time>2017-09-19T16:53:42Z</time>
      </trkpt>
      <trkpt lat="49.03553" lon="1.15586">
        <ele>99.5</ele>
        <time>2017-09-19T16:53:44Z</time>
      </trkpt>
      <trkpt lat="49.03562" lon="1.15592">
        <ele>100</ele>
        <time>2017-09-19T16:53:46Z</time>
      </trkpt>
      <trkpt lat="49.03571" lon="1.15598">
        <ele>100.4</ele>
        <time>2017-09-19T16:53:48Z</time>
      </trkpt>
      <trkpt lat="49.0358" lon="1.15602">
        <ele>100.8</ele>
        <time>2017-09-19T16:53:50Z</time>
      </trkpt>
      <trkpt lat="49.0359" lon="1.15604">
        <ele>101.2</ele>
        <time>2017-09-19T16:53:52Z</time>
      </trkpt>
      <trkpt lat="49.03599" lon="1.15605">
        <ele>101.6</ele>
        <time>2017-09-19T16:53:54Z</time>
      </trkpt>
      <trkpt lat="49.03608" lon="1.15604">
        <ele>102</ele>
        <time>2017-09-19T16:53:56Z</time>
      </trkpt>
      <trkpt lat="49.03618" lon="1.15604">
        <ele>102.4</ele>
        <time>2017-09-19T16:53:58Z</time>
      </trkpt>
      <trkpt lat="49.03629" lon="1.15603">
        <ele>102.7</ele>
        <time>2017-09-19T16:54:00Z</time>
      </trkpt>
      <trkpt lat="49.0364" lon="1.15603">
        <ele>103</ele>
        <time>2017-09-19T16:54:02Z</time>
      </trkpt>
      <trkpt lat="49.03651" lon="1.15605">
        <ele>102.9</ele>
        <time>2017-09-19T16:54:04Z</time>
      </trkpt>
      <trkpt lat="49.03663" lon="1.15607">
        <ele>102.8</ele>
        <time>2017-09-19T16:54:06Z</time>
      </trkpt>
      <trkpt lat="49.03674" lon="1.1561">
        <ele>102.8</ele>
        <time>2017-09-19T16:54:08Z</time>
      </trkpt>
      <trkpt lat="49.03686" lon="1.15613">
        <ele>102.8</ele>
        <time>2017-09-19T16:54:10Z</time>
      </trkpt>
      <trkpt lat="49.03698" lon="1.15618">
        <ele>102.7</ele>
        <time>2017-09-19T16:54:12Z</time>
      </trkpt>
      <trkpt lat="49.03709" lon="1.15623">
        <ele>102.7</ele>
        <time>2017-09-19T16:54:14Z</time>
      </trkpt>
      <trkpt lat="49.03721" lon="1.15628">
        <ele>102.8</ele>
        <time>2017-09-19T16:54:16Z</time>
      </trkpt>
      <trkpt lat="49.03733" lon="1.15633">
        <ele>102.6</ele>
        <time>2017-09-19T16:54:18Z</time>
      </trkpt>
      <trkpt lat="49.03744" lon="1.15638">
        <ele>102.4</ele>
        <time>2017-09-19T16:54:20Z</time>
      </trkpt>
      <trkpt lat="49.03754" lon="1.15639">
        <ele>102.2</ele>
        <time>2017-09-19T16:54:22Z</time>
      </trkpt>
      <trkpt lat="49.03761" lon="1.15628">
        <ele>102.3</ele>
        <time>2017-09-19T16:54:24Z</time>
      </trkpt>
      <trkpt lat="49.03763" lon="1.15614">
        <ele>102.4</ele>
        <time>2017-09-19T16:54:26Z</time>
      </trkpt>
      <trkpt lat="49.03764" lon="1.156">
        <ele>102.6</ele>
        <time>2017-09-19T16:54:28Z</time>
      </trkpt>
      <trkpt lat="49.03765" lon="1.15581">
        <ele>103.2</ele>
        <time>2017-09-19T16:54:31Z</time>
      </trkpt>
      <trkpt lat="49.03766" lon="1.15562">
        <ele>104.1</ele>
        <time>2017-09-19T16:54:34Z</time>
      </trkpt>
      <trkpt lat="49.03768" lon="1.15543">
        <ele>104.8</ele>
        <time>2017-09-19T16:54:37Z</time>
      </trkpt>
      <trkpt lat="49.03769" lon="1.15523">
        <ele>105.3</ele>
        <time>2017-09-19T16:54:40Z</time>
      </trkpt>
      <trkpt lat="49.0377" lon="1.15505">
        <ele>105.9</ele>
        <time>2017-09-19T16:54:43Z</time>
      </trkpt>
      <trkpt lat="49.03768" lon="1.15489">
        <ele>106.7</ele>
        <time>2017-09-19T16:54:46Z</time>
      </trkpt>
      <trkpt lat="49.03764" lon="1.15477">
        <ele>107.5</ele>
        <time>2017-09-19T16:54:49Z</time>
      </trkpt>
      <trkpt lat="49.03765" lon="1.15463">
        <ele>108.8</ele>
        <time>2017-09-19T16:54:53Z</time>
      </trkpt>
      <trkpt lat="49.03777" lon="1.15461">
        <ele>109.9</ele>
        <time>2017-09-19T16:54:57Z</time>
      </trkpt>
      <trkpt lat="49.03789" lon="1.15463">
        <ele>110.1</ele>
        <time>2017-09-19T16:55:00Z</time>
      </trkpt>
      <trkpt lat="49.03799" lon="1.15465">
        <ele>109.8</ele>
        <time>2017-09-19T16:55:02Z</time>
      </trkpt>
      <trkpt lat="49.03812" lon="1.15466">
        <ele>109.1</ele>
        <time>2017-09-19T16:55:05Z</time>
      </trkpt>
      <trkpt lat="49.03821" lon="1.15467">
        <ele>108.7</ele>
        <time>2017-09-19T16:55:07Z</time>
      </trkpt>
      <trkpt lat="49.0383" lon="1.15467">
        <ele>108.4</ele>
        <time>2017-09-19T16:55:09Z</time>
      </trkpt>
      <trkpt lat="49.0384" lon="1.15468">
        <ele>108.1</ele>
        <time>2017-09-19T16:55:11Z</time>
      </trkpt>
      <trkpt lat="49.03849" lon="1.15467">
        <ele>107.6</ele>
        <time>2017-09-19T16:55:13Z</time>
      </trkpt>
      <trkpt lat="49.0386" lon="1.15467">
        <ele>107.1</ele>
        <time>2017-09-19T16:55:15Z</time>
      </trkpt>
      <trkpt lat="49.03871" lon="1.15468">
        <ele>106.7</ele>
        <time>2017-09-19T16:55:17Z</time>
      </trkpt>
      <trkpt lat="49.03882" lon="1.15469">
        <ele>106.2</ele>
        <time>2017-09-19T16:55:19Z</time>
      </trkpt>
      <trkpt lat="49.03894" lon="1.1547">
        <ele>106</ele>
        <time>2017-09-19T16:55:21Z</time>
      </trkpt>
      <trkpt lat="49.03906" lon="1.15472">
        <ele>105.6</ele>
        <time>2017-09-19T16:55:23Z</time>
      </trkpt>
      <trkpt lat="49.03918" lon="1.15473">
        <ele>105.2</ele>
        <time>2017-09-19T16:55:25Z</time>
      </trkpt>
      <trkpt lat="49.0393" lon="1.15474">
        <ele>104.8</ele>
        <time>2017-09-19T16:55:27Z</time>
      </trkpt>
      <trkpt lat="49.03942" lon="1.15476">
        <ele>104.5</ele>
        <time>2017-09-19T16:55:29Z</time>
      </trkpt>
      <trkpt lat="49.03954" lon="1.15477">
        <ele>104.4</ele>
        <time>2017-09-19T16:55:31Z</time>
      </trkpt>
      <trkpt lat="49.03965" lon="1.15478">
        <ele>104.4</ele>
        <time>2017-09-19T16:55:33Z</time>
      </trkpt>
      <trkpt lat="49.03976" lon="1.1548">
        <ele>104.3</ele>
        <time>2017-09-19T16:55:35Z</time>
      </trkpt>
      <trkpt lat="49.03987" lon="1.15481">
        <ele>104.4</ele>
        <time>2017-09-19T16:55:37Z</time>
      </trkpt>
      <trkpt lat="49.03998" lon="1.15483">
        <ele>104.4</ele>
        <time>2017-09-19T16:55:39Z</time>
      </trkpt>
      <trkpt lat="49.04008" lon="1.15485">
        <ele>104.4</ele>
        <time>2017-09-19T16:55:41Z</time>
      </trkpt>
      <trkpt lat="49.04019" lon="1.15486">
        <ele>104.4</ele>
        <time>2017-09-19T16:55:43Z</time>
      </trkpt>
      <trkpt lat="49.04029" lon="1.15488">
        <ele>104.4</ele>
        <time>2017-09-19T16:55:45Z</time>
      </trkpt>
      <trkpt lat="49.0404" lon="1.1549">
        <ele>104.5</ele>
        <time>2017-09-19T16:55:47Z</time>
      </trkpt>
      <trkpt lat="49.04051" lon="1.15492">
        <ele>104.6</ele>
        <time>2017-09-19T16:55:49Z</time>
      </trkpt>
      <trkpt lat="49.04061" lon="1.15494">
        <ele>104.7</ele>
        <time>2017-09-19T16:55:51Z</time>
      </trkpt>
      <trkpt lat="49.04071" lon="1.15496">
        <ele>105</ele>
        <time>2017-09-19T16:55:53Z</time>
      </trkpt>
      <trkpt lat="49.04082" lon="1.15496">
        <ele>104.9</ele>
        <time>2017-09-19T16:55:55Z</time>
      </trkpt>
      <trkpt lat="49.04093" lon="1.15495">
        <ele>104.9</ele>
        <time>2017-09-19T16:55:57Z</time>
      </trkpt>
      <trkpt lat="49.04103" lon="1.15495">
        <ele>104.7</ele>
        <time>2017-09-19T16:55:59Z</time>
      </trkpt>
      <trkpt lat="49.04114" lon="1.15494">
        <ele>104.6</ele>
        <time>2017-09-19T16:56:01Z</time>
      </trkpt>
      <trkpt lat="49.04125" lon="1.15494">
        <ele>104.5</ele>
        <time>2017-09-19T16:56:03Z</time>
      </trkpt>
      <trkpt lat="49.04136" lon="1.15493">
        <ele>104.4</ele>
        <time>2017-09-19T16:56:05Z</time>
      </trkpt>
      <trkpt lat="49.04147" lon="1.15493">
        <ele>104.4</ele>
        <time>2017-09-19T16:56:07Z</time>
      </trkpt>
      <trkpt lat="49.04158" lon="1.15493">
        <ele>104.2</ele>
        <time>2017-09-19T16:56:09Z</time>
      </trkpt>
      <trkpt lat="49.04169" lon="1.15492">
        <ele>103.7</ele>
        <time>2017-09-19T16:56:11Z</time>
      </trkpt>
      <trkpt lat="49.0418" lon="1.15491">
        <ele>103.6</ele>
        <time>2017-09-19T16:56:13Z</time>
      </trkpt>
      <trkpt lat="49.04191" lon="1.1549">
        <ele>103.5</ele>
        <time>2017-09-19T16:56:15Z</time>
      </trkpt>
      <trkpt lat="49.04203" lon="1.15489">
        <ele>103.4</ele>
        <time>2017-09-19T16:56:17Z</time>
      </trkpt>
      <trkpt lat="49.04215" lon="1.15488">
        <ele>103.1</ele>
        <time>2017-09-19T16:56:19Z</time>
      </trkpt>
      <trkpt lat="49.04227" lon="1.15487">
        <ele>102.7</ele>
        <time>2017-09-19T16:56:21Z</time>
      </trkpt>
      <trkpt lat="49.0424" lon="1.15486">
        <ele>102.4</ele>
        <time>2017-09-19T16:56:23Z</time>
      </trkpt>
      <trkpt lat="49.04252" lon="1.15486">
        <ele>102.2</ele>
        <time>2017-09-19T16:56:25Z</time>
      </trkpt>
      <trkpt lat="49.04265" lon="1.15485">
        <ele>101.9</ele>
        <time>2017-09-19T16:56:27Z</time>
      </trkpt>
      <trkpt lat="49.04278" lon="1.15483">
        <ele>101.5</ele>
        <time>2017-09-19T16:56:29Z</time>
      </trkpt>
      <trkpt lat="49.04291" lon="1.15483">
        <ele>101.3</ele>
        <time>2017-09-19T16:56:31Z</time>
      </trkpt>
      <trkpt lat="49.04304" lon="1.15482">
        <ele>101.1</ele>
        <time>2017-09-19T16:56:33Z</time>
      </trkpt>
      <trkpt lat="49.04316" lon="1.15482">
        <ele>100.9</ele>
        <time>2017-09-19T16:56:35Z</time>
      </trkpt>
      <trkpt lat="49.04329" lon="1.15481">
        <ele>100.9</ele>
        <time>2017-09-19T16:56:37Z</time>
      </trkpt>
      <trkpt lat="49.04342" lon="1.15481">
        <ele>101</ele>
        <time>2017-09-19T16:56:39Z</time>
      </trkpt>
      <trkpt lat="49.04355" lon="1.1548">
        <ele>101.1</ele>
        <time>2017-09-19T16:56:41Z</time>
      </trkpt>
      <trkpt lat="49.04367" lon="1.15479">
        <ele>101</ele>
        <time>2017-09-19T16:56:43Z</time>
      </trkpt>
      <trkpt lat="49.04379" lon="1.15479">
        <ele>100.9</ele>
        <time>2017-09-19T16:56:45Z</time>
      </trkpt>
      <trkpt lat="49.04392" lon="1.15478">
        <ele>100.8</ele>
        <time>2017-09-19T16:56:47Z</time>
      </trkpt>
      <trkpt lat="49.04404" lon="1.15477">
        <ele>100.7</ele>
        <time>2017-09-19T16:56:49Z</time>
      </trkpt>
      <trkpt lat="49.04417" lon="1.15477">
        <ele>100.7</ele>
        <time>2017-09-19T16:56:51Z</time>
      </trkpt>
      <trkpt lat="49.04429" lon="1.15475">
        <ele>100.6</ele>
        <time>2017-09-19T16:56:53Z</time>
      </trkpt>
      <trkpt lat="49.0444" lon="1.15475">
        <ele>100.4</ele>
        <time>2017-09-19T16:56:55Z</time>
      </trkpt>
      <trkpt lat="49.04447" lon="1.1549">
        <ele>101.3</ele>
        <time>2017-09-19T16:57:00Z</time>
      </trkpt>
      <trkpt lat="49.04448" lon="1.15507">
        <ele>100.5</ele>
        <time>2017-09-19T16:57:02Z</time>
      </trkpt>
      <trkpt lat="49.04448" lon="1.15528">
        <ele>99.8</ele>
        <time>2017-09-19T16:57:05Z</time>
      </trkpt>
      <trkpt lat="49.04448" lon="1.15545">
        <ele>99.1</ele>
        <time>2017-09-19T16:57:07Z</time>
      </trkpt>
      <trkpt lat="49.04449" lon="1.15561">
        <ele>98.7</ele>
        <time>2017-09-19T16:57:09Z</time>
      </trkpt>
      <trkpt lat="49.04449" lon="1.15578">
        <ele>98.2</ele>
        <time>2017-09-19T16:57:11Z</time>
      </trkpt>
      <trkpt lat="49.04451" lon="1.15592">
        <ele>98.3</ele>
        <time>2017-09-19T16:57:13Z</time>
      </trkpt>
      <trkpt lat="49.04452" lon="1.15608">
        <ele>98.1</ele>
        <time>2017-09-19T16:57:15Z</time>
      </trkpt>
      <trkpt lat="49.04452" lon="1.1563">
        <ele>96.7</ele>
        <time>2017-09-19T16:57:17Z</time>
      </trkpt>
      <trkpt lat="49.04451" lon="1.15644">
        <ele>95.6</ele>
        <time>2017-09-19T16:57:19Z</time>
      </trkpt>
      <trkpt lat="49.04451" lon="1.1566">
        <ele>95.1</ele>
        <time>2017-09-19T16:57:21Z</time>
      </trkpt>
      <trkpt lat="49.04452" lon="1.15676">
        <ele>94.7</ele>
        <time>2017-09-19T16:57:23Z</time>
      </trkpt>
      <trkpt lat="49.04455" lon="1.15694">
        <ele>95</ele>
        <time>2017-09-19T16:57:26Z</time>
      </trkpt>
      <trkpt lat="49.0446" lon="1.15706">
        <ele>95.2</ele>
        <time>2017-09-19T16:57:29Z</time>
      </trkpt>
      <trkpt lat="49.04464" lon="1.15724">
        <ele>95.3</ele>
        <time>2017-09-19T16:57:33Z</time>
      </trkpt>
      <trkpt lat="49.04458" lon="1.15737">
        <ele>95.2</ele>
        <time>2017-09-19T16:57:36Z</time>
      </trkpt>
      <trkpt lat="49.04457" lon="1.15752">
        <ele>95.1</ele>
        <time>2017-09-19T16:57:39Z</time>
      </trkpt>
      <trkpt lat="49.04452" lon="1.15765">
        <ele>95.1</ele>
        <time>2017-09-19T16:57:42Z</time>
      </trkpt>
      <trkpt lat="49.0444" lon="1.1577">
        <ele>95</ele>
        <time>2017-09-19T16:57:46Z</time>
      </trkpt>
      <trkpt lat="49.04429" lon="1.15767">
        <ele>95.2</ele>
        <time>2017-09-19T16:57:49Z</time>
      </trkpt>
      <trkpt lat="49.04416" lon="1.15764">
        <ele>95.3</ele>
        <time>2017-09-19T16:57:52Z</time>
      </trkpt>
      <trkpt lat="49.04403" lon="1.15763">
        <ele>95.4</ele>
        <time>2017-09-19T16:57:55Z</time>
      </trkpt>
      <trkpt lat="49.04393" lon="1.15762">
        <ele>95.4</ele>
        <time>2017-09-19T16:57:57Z</time>
      </trkpt>
      <trkpt lat="49.04383" lon="1.15761">
        <ele>95.4</ele>
        <time>2017-09-19T16:57:59Z</time>
      </trkpt>
      <trkpt lat="49.04373" lon="1.15761">
        <ele>95.4</ele>
        <time>2017-09-19T16:58:01Z</time>
      </trkpt>
      <trkpt lat="49.04362" lon="1.1576">
        <ele>95.3</ele>
        <time>2017-09-19T16:58:03Z</time>
      </trkpt>
      <trkpt lat="49.04352" lon="1.15758">
        <ele>95.1</ele>
        <time>2017-09-19T16:58:05Z</time>
      </trkpt>
      <trkpt lat="49.04342" lon="1.15754">
        <ele>95.1</ele>
        <time>2017-09-19T16:58:07Z</time>
      </trkpt>
      <trkpt lat="49.04332" lon="1.15749">
        <ele>95</ele>
        <time>2017-09-19T16:58:09Z</time>
      </trkpt>
      <trkpt lat="49.04322" lon="1.15746">
        <ele>94.9</ele>
        <time>2017-09-19T16:58:11Z</time>
      </trkpt>
      <trkpt lat="49.04312" lon="1.15745">
        <ele>95</ele>
        <time>2017-09-19T16:58:13Z</time>
      </trkpt>
      <trkpt lat="49.04302" lon="1.15746">
        <ele>95.2</ele>
        <time>2017-09-19T16:58:15Z</time>
      </trkpt>
      <trkpt lat="49.04291" lon="1.15748">
        <ele>95.2</ele>
        <time>2017-09-19T16:58:17Z</time>
      </trkpt>
      <trkpt lat="49.0428" lon="1.1575">
        <ele>95.3</ele>
        <time>2017-09-19T16:58:19Z</time>
      </trkpt>
      <trkpt lat="49.04269" lon="1.15749">
        <ele>95.3</ele>
        <time>2017-09-19T16:58:21Z</time>
      </trkpt>
      <trkpt lat="49.04258" lon="1.15747">
        <ele>95.4</ele>
        <time>2017-09-19T16:58:23Z</time>
      </trkpt>
      <trkpt lat="49.04247" lon="1.15744">
        <ele>95.4</ele>
        <time>2017-09-19T16:58:25Z</time>
      </trkpt>
      <trkpt lat="49.04236" lon="1.15741">
        <ele>95.5</ele>
        <time>2017-09-19T16:58:27Z</time>
      </trkpt>
      <trkpt lat="49.04225" lon="1.15739">
        <ele>95.5</ele>
        <time>2017-09-19T16:58:29Z</time>
      </trkpt>
      <trkpt lat="49.04215" lon="1.15735">
        <ele>95.6</ele>
        <time>2017-09-19T16:58:31Z</time>
      </trkpt>
      <trkpt lat="49.04204" lon="1.15732">
        <ele>95.6</ele>
        <time>2017-09-19T16:58:33Z</time>
      </trkpt>
      <trkpt lat="49.04193" lon="1.15732">
        <ele>95.8</ele>
        <time>2017-09-19T16:58:35Z</time>
      </trkpt>
      <trkpt lat="49.04182" lon="1.15733">
        <ele>95.9</ele>
        <time>2017-09-19T16:58:37Z</time>
      </trkpt>
      <trkpt lat="49.04172" lon="1.15731">
        <ele>95.9</ele>
        <time>2017-09-19T16:58:39Z</time>
      </trkpt>
      <trkpt lat="49.04162" lon="1.15734">
        <ele>96</ele>
        <time>2017-09-19T16:58:41Z</time>
      </trkpt>
      <trkpt lat="49.04158" lon="1.15748">
        <ele>96.2</ele>
        <time>2017-09-19T16:58:43Z</time>
      </trkpt>
      <trkpt lat="49.04156" lon="1.15765">
        <ele>96.4</ele>
        <time>2017-09-19T16:58:45Z</time>
      </trkpt>
      <trkpt lat="49.04155" lon="1.15783">
        <ele>96.1</ele>
        <time>2017-09-19T16:58:47Z</time>
      </trkpt>
      <trkpt lat="49.04154" lon="1.15801">
        <ele>95.9</ele>
        <time>2017-09-19T16:58:49Z</time>
      </trkpt>
      <trkpt lat="49.04153" lon="1.1582">
        <ele>95.8</ele>
        <time>2017-09-19T16:58:51Z</time>
      </trkpt>
      <trkpt lat="49.04151" lon="1.15838">
        <ele>95.7</ele>
        <time>2017-09-19T16:58:53Z</time>
      </trkpt>
      <trkpt lat="49.04149" lon="1.15857">
        <ele>95.6</ele>
        <time>2017-09-19T16:58:55Z</time>
      </trkpt>
      <trkpt lat="49.04147" lon="1.15875">
        <ele>95.4</ele>
        <time>2017-09-19T16:58:57Z</time>
      </trkpt>
      <trkpt lat="49.04146" lon="1.1589">
        <ele>95.2</ele>
        <time>2017-09-19T16:58:59Z</time>
      </trkpt>
      <trkpt lat="49.04145" lon="1.15906">
        <ele>95</ele>
        <time>2017-09-19T16:59:03Z</time>
      </trkpt>
      <trkpt lat="49.04144" lon="1.15921">
        <ele>95</ele>
        <time>2017-09-19T16:59:07Z</time>
      </trkpt>
      <trkpt lat="49.04145" lon="1.15942">
        <ele>94.9</ele>
        <time>2017-09-19T16:59:10Z</time>
      </trkpt>
      <trkpt lat="49.04144" lon="1.15959">
        <ele>94.7</ele>
        <time>2017-09-19T16:59:12Z</time>
      </trkpt>
      <trkpt lat="49.04143" lon="1.15978">
        <ele>94.5</ele>
        <time>2017-09-19T16:59:14Z</time>
      </trkpt>
      <trkpt lat="49.0414" lon="1.15997">
        <ele>94.3</ele>
        <time>2017-09-19T16:59:16Z</time>
      </trkpt>
      <trkpt lat="49.0414" lon="1.16017">
        <ele>93.9</ele>
        <time>2017-09-19T16:59:18Z</time>
      </trkpt>
      <trkpt lat="49.04138" lon="1.16037">
        <ele>93.4</ele>
        <time>2017-09-19T16:59:20Z</time>
      </trkpt>
      <trkpt lat="49.04137" lon="1.16055">
        <ele>93</ele>
        <time>2017-09-19T16:59:22Z</time>
      </trkpt>
      <trkpt lat="49.04134" lon="1.16069">
        <ele>92.8</ele>
        <time>2017-09-19T16:59:24Z</time>
      </trkpt>
      <trkpt lat="49.04125" lon="1.16078">
        <ele>92.5</ele>
        <time>2017-09-19T16:59:27Z</time>
      </trkpt>
      <trkpt lat="49.0413" lon="1.1609">
        <ele>92.5</ele>
        <time>2017-09-19T16:59:33Z</time>
      </trkpt>
      <trkpt lat="49.04141" lon="1.16091">
        <ele>92.3</ele>
        <time>2017-09-19T16:59:36Z</time>
      </trkpt>
      <trkpt lat="49.04152" lon="1.16092">
        <ele>92.1</ele>
        <time>2017-09-19T16:59:39Z</time>
      </trkpt>
      <trkpt lat="49.04155" lon="1.16079">
        <ele>92.3</ele>
        <time>2017-09-19T16:59:44Z</time>
      </trkpt>
      <trkpt lat="49.04145" lon="1.16075">
        <ele>92.4</ele>
        <time>2017-09-19T16:59:47Z</time>
      </trkpt>
      <trkpt lat="49.04132" lon="1.16075">
        <ele>92.1</ele>
        <time>2017-09-19T16:59:50Z</time>
      </trkpt>
      <trkpt lat="49.04123" lon="1.16082">
        <ele>92.1</ele>
        <time>2017-09-19T16:59:53Z</time>
      </trkpt>
      <trkpt lat="49.04112" lon="1.16081">
        <ele>92</ele>
        <time>2017-09-19T16:59:57Z</time>
      </trkpt>
      <trkpt lat="49.04105" lon="1.16093">
        <ele>92.4</ele>
        <time>2017-09-19T17:00:02Z</time>
      </trkpt>
      <trkpt lat="49.04094" lon="1.16097">
        <ele>92.2</ele>
        <time>2017-09-19T17:00:05Z</time>
      </trkpt>
      <trkpt lat="49.04082" lon="1.16092">
        <ele>92</ele>
        <time>2017-09-19T17:00:08Z</time>
      </trkpt>
      <trkpt lat="49.04073" lon="1.16089">
        <ele>91.9</ele>
        <time>2017-09-19T17:00:10Z</time>
      </trkpt>
      <trkpt lat="49.04064" lon="1.16087">
        <ele>91.9</ele>
        <time>2017-09-19T17:00:12Z</time>
      </trkpt>
      <trkpt lat="49.04054" lon="1.16086">
        <ele>91.8</ele>
        <time>2017-09-19T17:00:14Z</time>
      </trkpt>
      <trkpt lat="49.04045" lon="1.16084">
        <ele>91.8</ele>
        <time>2017-09-19T17:00:16Z</time>
      </trkpt>
      <trkpt lat="49.04036" lon="1.16088">
        <ele>91.9</ele>
        <time>2017-09-19T17:00:18Z</time>
      </trkpt>
      <trkpt lat="49.04028" lon="1.16097">
        <ele>92.1</ele>
        <time>2017-09-19T17:00:20Z</time>
      </trkpt>
      <trkpt lat="49.04022" lon="1.16107">
        <ele>91.8</ele>
        <time>2017-09-19T17:00:22Z</time>
      </trkpt>
      <trkpt lat="49.04014" lon="1.16117">
        <ele>91.6</ele>
        <time>2017-09-19T17:00:24Z</time>
      </trkpt>
      <trkpt lat="49.04008" lon="1.16126">
        <ele>91.7</ele>
        <time>2017-09-19T17:00:26Z</time>
      </trkpt>
      <trkpt lat="49.04001" lon="1.16136">
        <ele>91.9</ele>
        <time>2017-09-19T17:00:28Z</time>
      </trkpt>
      <trkpt lat="49.03994" lon="1.16146">
        <ele>92.2</ele>
        <time>2017-09-19T17:00:30Z</time>
      </trkpt>
      <trkpt lat="49.03987" lon="1.16156">
        <ele>92.2</ele>
        <time>2017-09-19T17:00:32Z</time>
      </trkpt>
      <trkpt lat="49.03981" lon="1.16168">
        <ele>92.2</ele>
        <time>2017-09-19T17:00:34Z</time>
      </trkpt>
      <trkpt lat="49.03976" lon="1.1618">
        <ele>92.1</ele>
        <time>2017-09-19T17:00:36Z</time>
      </trkpt>
      <trkpt lat="49.03972" lon="1.16194">
        <ele>92</ele>
        <time>2017-09-19T17:00:38Z</time>
      </trkpt>
      <trkpt lat="49.03969" lon="1.16208">
        <ele>91.8</ele>
        <time>2017-09-19T17:00:40Z</time>
      </trkpt>
      <trkpt lat="49.03965" lon="1.16222">
        <ele>91.7</ele>
        <time>2017-09-19T17:00:42Z</time>
      </trkpt>
      <trkpt lat="49.03961" lon="1.16236">
        <ele>91.8</ele>
        <time>2017-09-19T17:00:44Z</time>
      </trkpt>
      <trkpt lat="49.0396" lon="1.16251">
        <ele>91.9</ele>
        <time>2017-09-19T17:00:46Z</time>
      </trkpt>
      <trkpt lat="49.03961" lon="1.16267">
        <ele>91.9</ele>
        <time>2017-09-19T17:00:48Z</time>
      </trkpt>
      <trkpt lat="49.03963" lon="1.16282">
        <ele>91.8</ele>
        <time>2017-09-19T17:00:50Z</time>
      </trkpt>
      <trkpt lat="49.03966" lon="1.16296">
        <ele>92</ele>
        <time>2017-09-19T17:00:52Z</time>
      </trkpt>
      <trkpt lat="49.03969" lon="1.16312">
        <ele>92.1</ele>
        <time>2017-09-19T17:00:54Z</time>
      </trkpt>
      <trkpt lat="49.0397" lon="1.16329">
        <ele>91.9</ele>
        <time>2017-09-19T17:00:56Z</time>
      </trkpt>
      <trkpt lat="49.0397" lon="1.16345">
        <ele>91.9</ele>
        <time>2017-09-19T17:00:58Z</time>
      </trkpt>
      <trkpt lat="49.0397" lon="1.1636">
        <ele>92</ele>
        <time>2017-09-19T17:01:00Z</time>
      </trkpt>
      <trkpt lat="49.03969" lon="1.16376">
        <ele>92.1</ele>
        <time>2017-09-19T17:01:02Z</time>
      </trkpt>
      <trkpt lat="49.03967" lon="1.16389">
        <ele>92.1</ele>
        <time>2017-09-19T17:01:04Z</time>
      </trkpt>
      <trkpt lat="49.03955" lon="1.16396">
        <ele>92.3</ele>
        <time>2017-09-19T17:01:07Z</time>
      </trkpt>
      <trkpt lat="49.03945" lon="1.16395">
        <ele>92.4</ele>
        <time>2017-09-19T17:01:09Z</time>
      </trkpt>
      <trkpt lat="49.03935" lon="1.16391">
        <ele>92.5</ele>
        <time>2017-09-19T17:01:11Z</time>
      </trkpt>
      <trkpt lat="49.03925" lon="1.16389">
        <ele>92.7</ele>
        <time>2017-09-19T17:01:13Z</time>
      </trkpt>
      <trkpt lat="49.03915" lon="1.16386">
        <ele>92.8</ele>
        <time>2017-09-19T17:01:15Z</time>
      </trkpt>
      <trkpt lat="49.03904" lon="1.16385">
        <ele>92.9</ele>
        <time>2017-09-19T17:01:17Z</time>
      </trkpt>
      <trkpt lat="49.03893" lon="1.16384">
        <ele>92.8</ele>
        <time>2017-09-19T17:01:19Z</time>
      </trkpt>
      <trkpt lat="49.03882" lon="1.16384">
        <ele>92.8</ele>
        <time>2017-09-19T17:01:21Z</time>
      </trkpt>
      <trkpt lat="49.03871" lon="1.16384">
        <ele>92.8</ele>
        <time>2017-09-19T17:01:23Z</time>
      </trkpt>
      <trkpt lat="49.0386" lon="1.16385">
        <ele>92.8</ele>
        <time>2017-09-19T17:01:25Z</time>
      </trkpt>
      <trkpt lat="49.03849" lon="1.16386">
        <ele>92.6</ele>
        <time>2017-09-19T17:01:27Z</time>
      </trkpt>
      <trkpt lat="49.03838" lon="1.16387">
        <ele>92.5</ele>
        <time>2017-09-19T17:01:29Z</time>
      </trkpt>
      <trkpt lat="49.03827" lon="1.16388">
        <ele>92.5</ele>
        <time>2017-09-19T17:01:31Z</time>
      </trkpt>
      <trkpt lat="49.03815" lon="1.16389">
        <ele>92.5</ele>
        <time>2017-09-19T17:01:33Z</time>
      </trkpt>
      <trkpt lat="49.03804" lon="1.1639">
        <ele>92.6</ele>
        <time>2017-09-19T17:01:35Z</time>
      </trkpt>
      <trkpt lat="49.03793" lon="1.1639">
        <ele>92.8</ele>
        <time>2017-09-19T17:01:37Z</time>
      </trkpt>
      <trkpt lat="49.03782" lon="1.1639">
        <ele>93</ele>
        <time>2017-09-19T17:01:39Z</time>
      </trkpt>
      <trkpt lat="49.03771" lon="1.16391">
        <ele>93.1</ele>
        <time>2017-09-19T17:01:41Z</time>
      </trkpt>
      <trkpt lat="49.0376" lon="1.1639">
        <ele>93.2</ele>
        <time>2017-09-19T17:01:43Z</time>
      </trkpt>
      <trkpt lat="49.03749" lon="1.1639">
        <ele>93.5</ele>
        <time>2017-09-19T17:01:45Z</time>
      </trkpt>
      <trkpt lat="49.03738" lon="1.1639">
        <ele>93.6</ele>
        <time>2017-09-19T17:01:47Z</time>
      </trkpt>
      <trkpt lat="49.03726" lon="1.1639">
        <ele>93.8</ele>
        <time>2017-09-19T17:01:49Z</time>
      </trkpt>
      <trkpt lat="49.03715" lon="1.1639">
        <ele>93.8</ele>
        <time>2017-09-19T17:01:51Z</time>
      </trkpt>
      <trkpt lat="49.03703" lon="1.1639">
        <ele>93.8</ele>
        <time>2017-09-19T17:01:53Z</time>
      </trkpt>
      <trkpt lat="49.03691" lon="1.16391">
        <ele>93.7</ele>
        <time>2017-09-19T17:01:55Z</time>
      </trkpt>
      <trkpt lat="49.0368" lon="1.1639">
        <ele>93.8</ele>
        <time>2017-09-19T17:01:57Z</time>
      </trkpt>
      <trkpt lat="49.03668" lon="1.16388">
        <ele>94</ele>
        <time>2017-09-19T17:01:59Z</time>
      </trkpt>
      <trkpt lat="49.03657" lon="1.16386">
        <ele>94.1</ele>
        <time>2017-09-19T17:02:01Z</time>
      </trkpt>
      <trkpt lat="49.03647" lon="1.16385">
        <ele>94.3</ele>
        <time>2017-09-19T17:02:03Z</time>
      </trkpt>
      <trkpt lat="49.03637" lon="1.16385">
        <ele>94.7</ele>
        <time>2017-09-19T17:02:05Z</time>
      </trkpt>
      <trkpt lat="49.03627" lon="1.16384">
        <ele>95.3</ele>
        <time>2017-09-19T17:02:07Z</time>
      </trkpt>
      <trkpt lat="49.03618" lon="1.16383">
        <ele>96</ele>
        <time>2017-09-19T17:02:09Z</time>
      </trkpt>
      <trkpt lat="49.03605" lon="1.16383">
        <ele>97.1</ele>
        <time>2017-09-19T17:02:12Z</time>
      </trkpt>
      <trkpt lat="49.03592" lon="1.16383">
        <ele>98.2</ele>
        <time>2017-09-19T17:02:15Z</time>
      </trkpt>
      <trkpt lat="49.0358" lon="1.16384">
        <ele>99.2</ele>
        <time>2017-09-19T17:02:18Z</time>
      </trkpt>
      <trkpt lat="49.03568" lon="1.16386">
        <ele>100</ele>
        <time>2017-09-19T17:02:21Z</time>
      </trkpt>
      <trkpt lat="49.03555" lon="1.16388">
        <ele>101</ele>
        <time>2017-09-19T17:02:24Z</time>
      </trkpt>
      <trkpt lat="49.03544" lon="1.16388">
        <ele>101.9</ele>
        <time>2017-09-19T17:02:27Z</time>
      </trkpt>
      <trkpt lat="49.03532" lon="1.16389">
        <ele>102.8</ele>
        <time>2017-09-19T17:02:30Z</time>
      </trkpt>
      <trkpt lat="49.0352" lon="1.1639">
        <ele>103.6</ele>
        <time>2017-09-19T17:02:33Z</time>
      </trkpt>
      <trkpt lat="49.03508" lon="1.1639">
        <ele>104.5</ele>
        <time>2017-09-19T17:02:36Z</time>
      </trkpt>
      <trkpt lat="49.03498" lon="1.16389">
        <ele>105.4</ele>
        <time>2017-09-19T17:02:39Z</time>
      </trkpt>
      <trkpt lat="49.03487" lon="1.16387">
        <ele>106.3</ele>
        <time>2017-09-19T17:02:42Z</time>
      </trkpt>
      <trkpt lat="49.03477" lon="1.16395">
        <ele>107.1</ele>
        <time>2017-09-19T17:02:45Z</time>
      </trkpt>
      <trkpt lat="49.03474" lon="1.16412">
        <ele>107.9</ele>
        <time>2017-09-19T17:02:48Z</time>
      </trkpt>
      <trkpt lat="49.03472" lon="1.16429">
        <ele>108.5</ele>
        <time>2017-09-19T17:02:51Z</time>
      </trkpt>
      <trkpt lat="49.03469" lon="1.16448">
        <ele>108.8</ele>
        <time>2017-09-19T17:02:54Z</time>
      </trkpt>
      <trkpt lat="49.03465" lon="1.16467">
        <ele>109.2</ele>
        <time>2017-09-19T17:02:57Z</time>
      </trkpt>
      <trkpt lat="49.03458" lon="1.16482">
        <ele>109.7</ele>
        <time>2017-09-19T17:03:00Z</time>
      </trkpt>
      <trkpt lat="49.03448" lon="1.16493">
        <ele>110.1</ele>
        <time>2017-09-19T17:03:03Z</time>
      </trkpt>
      <trkpt lat="49.0344" lon="1.16503">
        <ele>110.7</ele>
        <time>2017-09-19T17:03:06Z</time>
      </trkpt>
      <trkpt lat="49.0343" lon="1.16513">
        <ele>111.3</ele>
        <time>2017-09-19T17:03:09Z</time>
      </trkpt>
      <trkpt lat="49.0342" lon="1.16517">
        <ele>111.2</ele>
        <time>2017-09-19T17:03:13Z</time>
      </trkpt>
      <trkpt lat="49.03411" lon="1.16517">
        <ele>112.5</ele>
        <time>2017-09-19T17:03:17Z</time>
      </trkpt>
      <trkpt lat="49.03404" lon="1.16529">
        <ele>113.7</ele>
        <time>2017-09-19T17:03:21Z</time>
      </trkpt>
      <trkpt lat="49.034" lon="1.16541">
        <ele>114.7</ele>
        <time>2017-09-19T17:03:25Z</time>
      </trkpt>
      <trkpt lat="49.03395" lon="1.16555">
        <ele>116.3</ele>
        <time>2017-09-19T17:03:30Z</time>
      </trkpt>
      <trkpt lat="49.03392" lon="1.16569">
        <ele>118.1</ele>
        <time>2017-09-19T17:03:35Z</time>
      </trkpt>
      <trkpt lat="49.03389" lon="1.16583">
        <ele>119.1</ele>
        <time>2017-09-19T17:03:39Z</time>
      </trkpt>
      <trkpt lat="49.03386" lon="1.16598">
        <ele>119.7</ele>
        <time>2017-09-19T17:03:43Z</time>
      </trkpt>
      <trkpt lat="49.03383" lon="1.1661">
        <ele>120.5</ele>
        <time>2017-09-19T17:03:47Z</time>
      </trkpt>
      <trkpt lat="49.03378" lon="1.16623">
        <ele>121.2</ele>
        <time>2017-09-19T17:03:51Z</time>
      </trkpt>
      <trkpt lat="49.03369" lon="1.1663">
        <ele>121.9</ele>
        <time>2017-09-19T17:03:56Z</time>
      </trkpt>
      <trkpt lat="49.03361" lon="1.16625">
        <ele>123</ele>
        <time>2017-09-19T17:04:01Z</time>
      </trkpt>
      <trkpt lat="49.03353" lon="1.16636">
        <ele>126.5</ele>
        <time>2017-09-19T17:04:18Z</time>
      </trkpt>
      <trkpt lat="49.03349" lon="1.16648">
        <ele>127.1</ele>
        <time>2017-09-19T17:04:25Z</time>
      </trkpt>
      <trkpt lat="49.03344" lon="1.16663">
        <ele>127.7</ele>
        <time>2017-09-19T17:04:32Z</time>
      </trkpt>
      <trkpt lat="49.03339" lon="1.16677">
        <ele>128.4</ele>
        <time>2017-09-19T17:04:38Z</time>
      </trkpt>
      <trkpt lat="49.03331" lon="1.16689">
        <ele>129</ele>
        <time>2017-09-19T17:04:42Z</time>
      </trkpt>
      <trkpt lat="49.03325" lon="1.16701">
        <ele>129.4</ele>
        <time>2017-09-19T17:04:46Z</time>
      </trkpt>
      <trkpt lat="49.03319" lon="1.16716">
        <ele>130.1</ele>
        <time>2017-09-19T17:04:51Z</time>
      </trkpt>
      <trkpt lat="49.03314" lon="1.16732">
        <ele>130.6</ele>
        <time>2017-09-19T17:04:55Z</time>
      </trkpt>
      <trkpt lat="49.03309" lon="1.16746">
        <ele>131.1</ele>
        <time>2017-09-19T17:04:59Z</time>
      </trkpt>
      <trkpt lat="49.03303" lon="1.16759">
        <ele>131.6</ele>
        <time>2017-09-19T17:05:03Z</time>
      </trkpt>
      <trkpt lat="49.03297" lon="1.16775">
        <ele>132.2</ele>
        <time>2017-09-19T17:05:08Z</time>
      </trkpt>
      <trkpt lat="49.03291" lon="1.16789">
        <ele>132.7</ele>
        <time>2017-09-19T17:05:12Z</time>
      </trkpt>
      <trkpt lat="49.03286" lon="1.16802">
        <ele>133.3</ele>
        <time>2017-09-19T17:05:16Z</time>
      </trkpt>
      <trkpt lat="49.0328" lon="1.16816">
        <ele>133.8</ele>
        <time>2017-09-19T17:05:20Z</time>
      </trkpt>
      <trkpt lat="49.03276" lon="1.1683">
        <ele>134.2</ele>
        <time>2017-09-19T17:05:24Z</time>
      </trkpt>
      <trkpt lat="49.03272" lon="1.16848">
        <ele>134.2</ele>
        <time>2017-09-19T17:05:28Z</time>
      </trkpt>
      <trkpt lat="49.03267" lon="1.16862">
        <ele>134.1</ele>
        <time>2017-09-19T17:05:31Z</time>
      </trkpt>
      <trkpt lat="49.03267" lon="1.16879">
        <ele>134.2</ele>
        <time>2017-09-19T17:05:35Z</time>
      </trkpt>
      <trkpt lat="49.03265" lon="1.16896">
        <ele>134.5</ele>
        <time>2017-09-19T17:05:38Z</time>
      </trkpt>
      <trkpt lat="49.03263" lon="1.16911">
        <ele>134.7</ele>
        <time>2017-09-19T17:05:41Z</time>
      </trkpt>
      <trkpt lat="49.03261" lon="1.16926">
        <ele>135</ele>
        <time>2017-09-19T17:05:44Z</time>
      </trkpt>
      <trkpt lat="49.03261" lon="1.16943">
        <ele>135.1</ele>
        <time>2017-09-19T17:05:47Z</time>
      </trkpt>
      <trkpt lat="49.0326" lon="1.16958">
        <ele>135.5</ele>
        <time>2017-09-19T17:05:50Z</time>
      </trkpt>
      <trkpt lat="49.03259" lon="1.16976">
        <ele>135.9</ele>
        <time>2017-09-19T17:05:53Z</time>
      </trkpt>
      <trkpt lat="49.03258" lon="1.16993">
        <ele>136.5</ele>
        <time>2017-09-19T17:05:56Z</time>
      </trkpt>
      <trkpt lat="49.03257" lon="1.17009">
        <ele>136.8</ele>
        <time>2017-09-19T17:05:59Z</time>
      </trkpt>
      <trkpt lat="49.03255" lon="1.17025">
        <ele>137.3</ele>
        <time>2017-09-19T17:06:03Z</time>
      </trkpt>
      <trkpt lat="49.03255" lon="1.17041">
        <ele>137.8</ele>
        <time>2017-09-19T17:06:06Z</time>
      </trkpt>
      <trkpt lat="49.03254" lon="1.17056">
        <ele>138.2</ele>
        <time>2017-09-19T17:06:09Z</time>
      </trkpt>
      <trkpt lat="49.03255" lon="1.17072">
        <ele>139.2</ele>
        <time>2017-09-19T17:06:13Z</time>
      </trkpt>
      <trkpt lat="49.03256" lon="1.17086">
        <ele>140</ele>
        <time>2017-09-19T17:06:16Z</time>
      </trkpt>
      <trkpt lat="49.03257" lon="1.17101">
        <ele>140.9</ele>
        <time>2017-09-19T17:06:20Z</time>
      </trkpt>
      <trkpt lat="49.03257" lon="1.17115">
        <ele>141.5</ele>
        <time>2017-09-19T17:06:23Z</time>
      </trkpt>
      <trkpt lat="49.03258" lon="1.17132">
        <ele>142.7</ele>
        <time>2017-09-19T17:06:27Z</time>
      </trkpt>
      <trkpt lat="49.03258" lon="1.17149">
        <ele>143.2</ele>
        <time>2017-09-19T17:06:30Z</time>
      </trkpt>
      <trkpt lat="49.03257" lon="1.17166">
        <ele>144</ele>
        <time>2017-09-19T17:06:34Z</time>
      </trkpt>
      <trkpt lat="49.03248" lon="1.17157">
        <ele>147</ele>
        <time>2017-09-19T17:06:48Z</time>
      </trkpt>
      <trkpt lat="49.03244" lon="1.17143">
        <ele>147.6</ele>
        <time>2017-09-19T17:06:53Z</time>
      </trkpt>
      <trkpt lat="49.03245" lon="1.17127">
        <ele>147.8</ele>
        <time>2017-09-19T17:06:56Z</time>
      </trkpt>
      <trkpt lat="49.03247" lon="1.17112">
        <ele>147.5</ele>
        <time>2017-09-19T17:06:59Z</time>
      </trkpt>
      <trkpt lat="49.03249" lon="1.17098">
        <ele>147.1</ele>
        <time>2017-09-19T17:07:02Z</time>
      </trkpt>
      <trkpt lat="49.03251" lon="1.17084">
        <ele>146.3</ele>
        <time>2017-09-19T17:07:05Z</time>
      </trkpt>
      <trkpt lat="49.03246" lon="1.17073">
        <ele>145.7</ele>
        <time>2017-09-19T17:07:07Z</time>
      </trkpt>
      <trkpt lat="49.0324" lon="1.17058">
        <ele>145.9</ele>
        <time>2017-09-19T17:07:10Z</time>
      </trkpt>
      <trkpt lat="49.03239" lon="1.17043">
        <ele>146.3</ele>
        <time>2017-09-19T17:07:13Z</time>
      </trkpt>
      <trkpt lat="49.03241" lon="1.17027">
        <ele>146.2</ele>
        <time>2017-09-19T17:07:16Z</time>
      </trkpt>
      <trkpt lat="49.03244" lon="1.17009">
        <ele>145.6</ele>
        <time>2017-09-19T17:07:19Z</time>
      </trkpt>
      <trkpt lat="49.0324" lon="1.16993">
        <ele>145.2</ele>
        <time>2017-09-19T17:07:21Z</time>
      </trkpt>
      <trkpt lat="49.03236" lon="1.16975">
        <ele>145</ele>
        <time>2017-09-19T17:07:24Z</time>
      </trkpt>
      <trkpt lat="49.03233" lon="1.16959">
        <ele>145.1</ele>
        <time>2017-09-19T17:07:26Z</time>
      </trkpt>
      <trkpt lat="49.03232" lon="1.1694">
        <ele>145.3</ele>
        <time>2017-09-19T17:07:29Z</time>
      </trkpt>
      <trkpt lat="49.03234" lon="1.16925">
        <ele>145.3</ele>
        <time>2017-09-19T17:07:31Z</time>
      </trkpt>
      <trkpt lat="49.03236" lon="1.16911">
        <ele>145.2</ele>
        <time>2017-09-19T17:07:33Z</time>
      </trkpt>
      <trkpt lat="49.03236" lon="1.16894">
        <ele>145.1</ele>
        <time>2017-09-19T17:07:36Z</time>
      </trkpt>
      <trkpt lat="49.03236" lon="1.16878">
        <ele>145.5</ele>
        <time>2017-09-19T17:07:40Z</time>
      </trkpt>
      <trkpt lat="49.03227" lon="1.16884">
        <ele>148.8</ele>
        <time>2017-09-19T17:07:54Z</time>
      </trkpt>
      <trkpt lat="49.03219" lon="1.16893">
        <ele>150.5</ele>
        <time>2017-09-19T17:07:59Z</time>
      </trkpt>
      <trkpt lat="49.03212" lon="1.16901">
        <ele>152</ele>
        <time>2017-09-19T17:08:03Z</time>
      </trkpt>
      <trkpt lat="49.03204" lon="1.1691">
        <ele>153.9</ele>
        <time>2017-09-19T17:08:08Z</time>
      </trkpt>
      <trkpt lat="49.03198" lon="1.16919">
        <ele>155.8</ele>
        <time>2017-09-19T17:08:13Z</time>
      </trkpt>
      <trkpt lat="49.03188" lon="1.16918">
        <ele>158.8</ele>
        <time>2017-09-19T17:08:22Z</time>
      </trkpt>
      <trkpt lat="49.0318" lon="1.1691">
        <ele>159.7</ele>
        <time>2017-09-19T17:08:50Z</time>
      </trkpt>
      <trkpt lat="49.03177" lon="1.16895">
        <ele>159.5</ele>
        <time>2017-09-19T17:08:55Z</time>
      </trkpt>
      <trkpt lat="49.03173" lon="1.16882">
        <ele>159.5</ele>
        <time>2017-09-19T17:09:00Z</time>
      </trkpt>
      <trkpt lat="49.03169" lon="1.16867">
        <ele>159.4</ele>
        <time>2017-09-19T17:09:05Z</time>
      </trkpt>
      <trkpt lat="49.03166" lon="1.16851">
        <ele>159.3</ele>
        <time>2017-09-19T17:09:09Z</time>
      </trkpt>
      <trkpt lat="49.03169" lon="1.16836">
        <ele>159</ele>
        <time>2017-09-19T17:09:13Z</time>
      </trkpt>
      <trkpt lat="49.03168" lon="1.16819">
        <ele>158.8</ele>
        <time>2017-09-19T17:09:17Z</time>
      </trkpt>
      <trkpt lat="49.03168" lon="1.16802">
        <ele>158.9</ele>
        <time>2017-09-19T17:09:21Z</time>
      </trkpt>
      <trkpt lat="49.03166" lon="1.16785">
        <ele>158.6</ele>
        <time>2017-09-19T17:09:25Z</time>
      </trkpt>
      <trkpt lat="49.03162" lon="1.16768">
        <ele>158.7</ele>
        <time>2017-09-19T17:09:28Z</time>
      </trkpt>
      <trkpt lat="49.03161" lon="1.16753">
        <ele>158.7</ele>
        <time>2017-09-19T17:09:31Z</time>
      </trkpt>
      <trkpt lat="49.03155" lon="1.16742">
        <ele>158.6</ele>
        <time>2017-09-19T17:09:34Z</time>
      </trkpt>
      <trkpt lat="49.03146" lon="1.16734">
        <ele>158.7</ele>
        <time>2017-09-19T17:09:37Z</time>
      </trkpt>
      <trkpt lat="49.03136" lon="1.16729">
        <ele>158.8</ele>
        <time>2017-09-19T17:09:40Z</time>
      </trkpt>
      <trkpt lat="49.03127" lon="1.16723">
        <ele>159.2</ele>
        <time>2017-09-19T17:09:43Z</time>
      </trkpt>
      <trkpt lat="49.03118" lon="1.16718">
        <ele>159.4</ele>
        <time>2017-09-19T17:09:46Z</time>
      </trkpt>
      <trkpt lat="49.03114" lon="1.16734">
        <ele>160.6</ele>
        <time>2017-09-19T17:09:53Z</time>
      </trkpt>
      <trkpt lat="49.03114" lon="1.16748">
        <ele>160.9</ele>
        <time>2017-09-19T17:09:56Z</time>
      </trkpt>
      <trkpt lat="49.03115" lon="1.16763">
        <ele>161.2</ele>
        <time>2017-09-19T17:09:59Z</time>
      </trkpt>
      <trkpt lat="49.03114" lon="1.16779">
        <ele>161.7</ele>
        <time>2017-09-19T17:10:02Z</time>
      </trkpt>
      <trkpt lat="49.03114" lon="1.16794">
        <ele>162.1</ele>
        <time>2017-09-19T17:10:05Z</time>
      </trkpt>
      <trkpt lat="49.03113" lon="1.1681">
        <ele>162.5</ele>
        <time>2017-09-19T17:10:08Z</time>
      </trkpt>
      <trkpt lat="49.03116" lon="1.16823">
        <ele>162.9</ele>
        <time>2017-09-19T17:10:11Z</time>
      </trkpt>
      <trkpt lat="49.03116" lon="1.16838">
        <ele>163.1</ele>
        <time>2017-09-19T17:10:14Z</time>
      </trkpt>
      <trkpt lat="49.03116" lon="1.16854">
        <ele>163.5</ele>
        <time>2017-09-19T17:10:17Z</time>
      </trkpt>
      <trkpt lat="49.03116" lon="1.16868">
        <ele>163.8</ele>
        <time>2017-09-19T17:10:20Z</time>
      </trkpt>
      <trkpt lat="49.03113" lon="1.16883">
        <ele>163.8</ele>
        <time>2017-09-19T17:10:23Z</time>
      </trkpt>
      <trkpt lat="49.03114" lon="1.16899">
        <ele>163.9</ele>
        <time>2017-09-19T17:10:26Z</time>
      </trkpt>
      <trkpt lat="49.03114" lon="1.16918">
        <ele>164</ele>
        <time>2017-09-19T17:10:29Z</time>
      </trkpt>
      <trkpt lat="49.03112" lon="1.16934">
        <ele>164</ele>
        <time>2017-09-19T17:10:32Z</time>
      </trkpt>
      <trkpt lat="49.03112" lon="1.16952">
        <ele>163.9</ele>
        <time>2017-09-19T17:10:35Z</time>
      </trkpt>
      <trkpt lat="49.03112" lon="1.16966">
        <ele>164</ele>
        <time>2017-09-19T17:10:38Z</time>
      </trkpt>
      <trkpt lat="49.03109" lon="1.16984">
        <ele>164.1</ele>
        <time>2017-09-19T17:10:42Z</time>
      </trkpt>
      <trkpt lat="49.0311" lon="1.17001">
        <ele>164.2</ele>
        <time>2017-09-19T17:10:45Z</time>
      </trkpt>
      <trkpt lat="49.03111" lon="1.1702">
        <ele>164</ele>
        <time>2017-09-19T17:10:48Z</time>
      </trkpt>
      <trkpt lat="49.03103" lon="1.17032">
        <ele>164</ele>
        <time>2017-09-19T17:10:50Z</time>
      </trkpt>
      <trkpt lat="49.03094" lon="1.17038">
        <ele>164</ele>
        <time>2017-09-19T17:10:52Z</time>
      </trkpt>
      <trkpt lat="49.03084" lon="1.17039">
        <ele>164.1</ele>
        <time>2017-09-19T17:10:54Z</time>
      </trkpt>
      <trkpt lat="49.03075" lon="1.17039">
        <ele>164.2</ele>
        <time>2017-09-19T17:10:56Z</time>
      </trkpt>
      <trkpt lat="49.03066" lon="1.17039">
        <ele>164.2</ele>
        <time>2017-09-19T17:10:58Z</time>
      </trkpt>
      <trkpt lat="49.03053" lon="1.17039">
        <ele>164.3</ele>
        <time>2017-09-19T17:11:01Z</time>
      </trkpt>
      <trkpt lat="49.03043" lon="1.17039">
        <ele>164.4</ele>
        <time>2017-09-19T17:11:03Z</time>
      </trkpt>
      <trkpt lat="49.0303" lon="1.17041">
        <ele>164.8</ele>
        <time>2017-09-19T17:11:06Z</time>
      </trkpt>
      <trkpt lat="49.03017" lon="1.17042">
        <ele>164.9</ele>
        <time>2017-09-19T17:11:09Z</time>
      </trkpt>
      <trkpt lat="49.03004" lon="1.17042">
        <ele>165.1</ele>
        <time>2017-09-19T17:11:12Z</time>
      </trkpt>
      <trkpt lat="49.02994" lon="1.17043">
        <ele>165.2</ele>
        <time>2017-09-19T17:11:14Z</time>
      </trkpt>
      <trkpt lat="49.02984" lon="1.17044">
        <ele>165.2</ele>
        <time>2017-09-19T17:11:16Z</time>
      </trkpt>
      <trkpt lat="49.02975" lon="1.17045">
        <ele>165.1</ele>
        <time>2017-09-19T17:11:18Z</time>
      </trkpt>
      <trkpt lat="49.02965" lon="1.17046">
        <ele>165.2</ele>
        <time>2017-09-19T17:11:20Z</time>
      </trkpt>
      <trkpt lat="49.02955" lon="1.17049">
        <ele>165.3</ele>
        <time>2017-09-19T17:11:22Z</time>
      </trkpt>
      <trkpt lat="49.02946" lon="1.17052">
        <ele>165.2</ele>
        <time>2017-09-19T17:11:24Z</time>
      </trkpt>
      <trkpt lat="49.02937" lon="1.17056">
        <ele>165.2</ele>
        <time>2017-09-19T17:11:26Z</time>
      </trkpt>
      <trkpt lat="49.02929" lon="1.17061">
        <ele>165</ele>
        <time>2017-09-19T17:11:28Z</time>
      </trkpt>
      <trkpt lat="49.0292" lon="1.17067">
        <ele>164.9</ele>
        <time>2017-09-19T17:11:30Z</time>
      </trkpt>
      <trkpt lat="49.02908" lon="1.17074">
        <ele>164.7</ele>
        <time>2017-09-19T17:11:32Z</time>
      </trkpt>
      <trkpt lat="49.02898" lon="1.17081">
        <ele>164.5</ele>
        <time>2017-09-19T17:11:34Z</time>
      </trkpt>
      <trkpt lat="49.02887" lon="1.17087">
        <ele>164.3</ele>
        <time>2017-09-19T17:11:36Z</time>
      </trkpt>
      <trkpt lat="49.02877" lon="1.17094">
        <ele>164</ele>
        <time>2017-09-19T17:11:38Z</time>
      </trkpt>
      <trkpt lat="49.02864" lon="1.17101">
        <ele>163.8</ele>
        <time>2017-09-19T17:11:41Z</time>
      </trkpt>
      <trkpt lat="49.02853" lon="1.17104">
        <ele>163.6</ele>
        <time>2017-09-19T17:11:43Z</time>
      </trkpt>
      <trkpt lat="49.02844" lon="1.17108">
        <ele>163.5</ele>
        <time>2017-09-19T17:11:45Z</time>
      </trkpt>
      <trkpt lat="49.02834" lon="1.17112">
        <ele>163.3</ele>
        <time>2017-09-19T17:11:47Z</time>
      </trkpt>
      <trkpt lat="49.02825" lon="1.17116">
        <ele>163.2</ele>
        <time>2017-09-19T17:11:49Z</time>
      </trkpt>
      <trkpt lat="49.02815" lon="1.17119">
        <ele>162.8</ele>
        <time>2017-09-19T17:11:51Z</time>
      </trkpt>
      <trkpt lat="49.02802" lon="1.17121">
        <ele>162.4</ele>
        <time>2017-09-19T17:11:54Z</time>
      </trkpt>
      <trkpt lat="49.02792" lon="1.17123">
        <ele>162.2</ele>
        <time>2017-09-19T17:11:56Z</time>
      </trkpt>
      <trkpt lat="49.0278" lon="1.17123">
        <ele>161.9</ele>
        <time>2017-09-19T17:11:58Z</time>
      </trkpt>
      <trkpt lat="49.0277" lon="1.17123">
        <ele>161.8</ele>
        <time>2017-09-19T17:12:00Z</time>
      </trkpt>
      <trkpt lat="49.0276" lon="1.17124">
        <ele>161.8</ele>
        <time>2017-09-19T17:12:02Z</time>
      </trkpt>
      <trkpt lat="49.02747" lon="1.17124">
        <ele>161.6</ele>
        <time>2017-09-19T17:12:04Z</time>
      </trkpt>
      <trkpt lat="49.02734" lon="1.17124">
        <ele>161.2</ele>
        <time>2017-09-19T17:12:06Z</time>
      </trkpt>
      <trkpt lat="49.02721" lon="1.17125">
        <ele>160.9</ele>
        <time>2017-09-19T17:12:08Z</time>
      </trkpt>
      <trkpt lat="49.02709" lon="1.17124">
        <ele>160.9</ele>
        <time>2017-09-19T17:12:10Z</time>
      </trkpt>
      <trkpt lat="49.02697" lon="1.17125">
        <ele>160.8</ele>
        <time>2017-09-19T17:12:12Z</time>
      </trkpt>
      <trkpt lat="49.02685" lon="1.17127">
        <ele>160.7</ele>
        <time>2017-09-19T17:12:14Z</time>
      </trkpt>
      <trkpt lat="49.02674" lon="1.1713">
        <ele>160.6</ele>
        <time>2017-09-19T17:12:16Z</time>
      </trkpt>
      <trkpt lat="49.02662" lon="1.17133">
        <ele>160.5</ele>
        <time>2017-09-19T17:12:18Z</time>
      </trkpt>
      <trkpt lat="49.0265" lon="1.17136">
        <ele>160.4</ele>
        <time>2017-09-19T17:12:20Z</time>
      </trkpt>
      <trkpt lat="49.02639" lon="1.17141">
        <ele>160.3</ele>
        <time>2017-09-19T17:12:22Z</time>
      </trkpt>
      <trkpt lat="49.02628" lon="1.17148">
        <ele>160.3</ele>
        <time>2017-09-19T17:12:24Z</time>
      </trkpt>
      <trkpt lat="49.02617" lon="1.17156">
        <ele>160.4</ele>
        <time>2017-09-19T17:12:26Z</time>
      </trkpt>
      <trkpt lat="49.02608" lon="1.17163">
        <ele>160.4</ele>
        <time>2017-09-19T17:12:28Z</time>
      </trkpt>
      <trkpt lat="49.02598" lon="1.17171">
        <ele>160.5</ele>
        <time>2017-09-19T17:12:30Z</time>
      </trkpt>
      <trkpt lat="49.02589" lon="1.17178">
        <ele>160.5</ele>
        <time>2017-09-19T17:12:32Z</time>
      </trkpt>
      <trkpt lat="49.02579" lon="1.17184">
        <ele>160.7</ele>
        <time>2017-09-19T17:12:34Z</time>
      </trkpt>
      <trkpt lat="49.02568" lon="1.1719">
        <ele>160.7</ele>
        <time>2017-09-19T17:12:36Z</time>
      </trkpt>
      <trkpt lat="49.02559" lon="1.17196">
        <ele>160.6</ele>
        <time>2017-09-19T17:12:38Z</time>
      </trkpt>
      <trkpt lat="49.02548" lon="1.17203">
        <ele>161</ele>
        <time>2017-09-19T17:12:41Z</time>
      </trkpt>
      <trkpt lat="49.02539" lon="1.17209">
        <ele>161.3</ele>
        <time>2017-09-19T17:12:44Z</time>
      </trkpt>
      <trkpt lat="49.0253" lon="1.17215">
        <ele>161.5</ele>
        <time>2017-09-19T17:12:52Z</time>
      </trkpt>
      <trkpt lat="49.02539" lon="1.17217">
        <ele>161.4</ele>
        <time>2017-09-19T17:12:58Z</time>
      </trkpt>
      <trkpt lat="49.0255" lon="1.17209">
        <ele>161.2</ele>
        <time>2017-09-19T17:13:01Z</time>
      </trkpt>
      <trkpt lat="49.0256" lon="1.17203">
        <ele>161.3</ele>
        <time>2017-09-19T17:13:04Z</time>
      </trkpt>
      <trkpt lat="49.02567" lon="1.17192">
        <ele>161.5</ele>
        <time>2017-09-19T17:13:08Z</time>
      </trkpt>
      <trkpt lat="49.02558" lon="1.17198">
        <ele>161.3</ele>
        <time>2017-09-19T17:13:20Z</time>
      </trkpt>
      <trkpt lat="49.02547" lon="1.17205">
        <ele>161.4</ele>
        <time>2017-09-19T17:13:24Z</time>
      </trkpt>
      <trkpt lat="49.02538" lon="1.1721">
        <ele>161.5</ele>
        <time>2017-09-19T17:13:27Z</time>
      </trkpt>
      <trkpt lat="49.02528" lon="1.17216">
        <ele>161.4</ele>
        <time>2017-09-19T17:13:30Z</time>
      </trkpt>
      <trkpt lat="49.02516" lon="1.17224">
        <ele>161.5</ele>
        <time>2017-09-19T17:13:33Z</time>
      </trkpt>
      <trkpt lat="49.02508" lon="1.1723">
        <ele>161.5</ele>
        <time>2017-09-19T17:13:35Z</time>
      </trkpt>
      <trkpt lat="49.02499" lon="1.17236">
        <ele>161.5</ele>
        <time>2017-09-19T17:13:37Z</time>
      </trkpt>
      <trkpt lat="49.02491" lon="1.17242">
        <ele>161.5</ele>
        <time>2017-09-19T17:13:39Z</time>
      </trkpt>
      <trkpt lat="49.02483" lon="1.1725">
        <ele>161.4</ele>
        <time>2017-09-19T17:13:41Z</time>
      </trkpt>
      <trkpt lat="49.02475" lon="1.17258">
        <ele>161.3</ele>
        <time>2017-09-19T17:13:43Z</time>
      </trkpt>
      <trkpt lat="49.02468" lon="1.17268">
        <ele>161.4</ele>
        <time>2017-09-19T17:13:45Z</time>
      </trkpt>
      <trkpt lat="49.02462" lon="1.17279">
        <ele>161.5</ele>
        <time>2017-09-19T17:13:47Z</time>
      </trkpt>
      <trkpt lat="49.02456" lon="1.17291">
        <ele>161.7</ele>
        <time>2017-09-19T17:13:49Z</time>
      </trkpt>
      <trkpt lat="49.02449" lon="1.17303">
        <ele>161.7</ele>
        <time>2017-09-19T17:13:51Z</time>
      </trkpt>
      <trkpt lat="49.02442" lon="1.17317">
        <ele>161.4</ele>
        <time>2017-09-19T17:13:53Z</time>
      </trkpt>
      <trkpt lat="49.02435" lon="1.17331">
        <ele>161.3</ele>
        <time>2017-09-19T17:13:55Z</time>
      </trkpt>
      <trkpt lat="49.02428" lon="1.17345">
        <ele>161</ele>
        <time>2017-09-19T17:13:57Z</time>
      </trkpt>
      <trkpt lat="49.0242" lon="1.17361">
        <ele>160.6</ele>
        <time>2017-09-19T17:13:59Z</time>
      </trkpt>
      <trkpt lat="49.02413" lon="1.17376">
        <ele>160.1</ele>
        <time>2017-09-19T17:14:01Z</time>
      </trkpt>
      <trkpt lat="49.02404" lon="1.17391">
        <ele>159.7</ele>
        <time>2017-09-19T17:14:03Z</time>
      </trkpt>
      <trkpt lat="49.02395" lon="1.17401">
        <ele>159.2</ele>
        <time>2017-09-19T17:14:05Z</time>
      </trkpt>
      <trkpt lat="49.02386" lon="1.17402">
        <ele>158.6</ele>
        <time>2017-09-19T17:14:07Z</time>
      </trkpt>
      <trkpt lat="49.02377" lon="1.17397">
        <ele>158.1</ele>
        <time>2017-09-19T17:14:09Z</time>
      </trkpt>
      <trkpt lat="49.02368" lon="1.17388">
        <ele>157.7</ele>
        <time>2017-09-19T17:14:11Z</time>
      </trkpt>
      <trkpt lat="49.02359" lon="1.17377">
        <ele>157.3</ele>
        <time>2017-09-19T17:14:13Z</time>
      </trkpt>
      <trkpt lat="49.0235" lon="1.17366">
        <ele>156.9</ele>
        <time>2017-09-19T17:14:15Z</time>
      </trkpt>
      <trkpt lat="49.02342" lon="1.17356">
        <ele>156.4</ele>
        <time>2017-09-19T17:14:17Z</time>
      </trkpt>
      <trkpt lat="49.02332" lon="1.17344">
        <ele>156</ele>
        <time>2017-09-19T17:14:20Z</time>
      </trkpt>
      <trkpt lat="49.02325" lon="1.17334">
        <ele>155.5</ele>
        <time>2017-09-19T17:14:50Z</time>
      </trkpt>
      <trkpt lat="49.02317" lon="1.17321">
        <ele>155.5</ele>
        <time>2017-09-19T17:14:54Z</time>
      </trkpt>
      <trkpt lat="49.02307" lon="1.17307">
        <ele>155.4</ele>
        <time>2017-09-19T17:14:57Z</time>
      </trkpt>
      <trkpt lat="49.02299" lon="1.17297">
        <ele>155.2</ele>
        <time>2017-09-19T17:14:59Z</time>
      </trkpt>
      <trkpt lat="49.02291" lon="1.17287">
        <ele>155.3</ele>
        <time>2017-09-19T17:15:01Z</time>
      </trkpt>
      <trkpt lat="49.02283" lon="1.17276">
        <ele>155.6</ele>
        <time>2017-09-19T17:15:03Z</time>
      </trkpt>
      <trkpt lat="49.02276" lon="1.17265">
        <ele>155.9</ele>
        <time>2017-09-19T17:15:05Z</time>
      </trkpt>
      <trkpt lat="49.0227" lon="1.17252">
        <ele>156.2</ele>
        <time>2017-09-19T17:15:07Z</time>
      </trkpt>
      <trkpt lat="49.02265" lon="1.17238">
        <ele>156.5</ele>
        <time>2017-09-19T17:15:09Z</time>
      </trkpt>
      <trkpt lat="49.02259" lon="1.17223">
        <ele>156.7</ele>
        <time>2017-09-19T17:15:11Z</time>
      </trkpt>
      <trkpt lat="49.02254" lon="1.17208">
        <ele>156.9</ele>
        <time>2017-09-19T17:15:13Z</time>
      </trkpt>
      <trkpt lat="49.02248" lon="1.17192">
        <ele>156.9</ele>
        <time>2017-09-19T17:15:15Z</time>
      </trkpt>
      <trkpt lat="49.02242" lon="1.17176">
        <ele>156.9</ele>
        <time>2017-09-19T17:15:17Z</time>
      </trkpt>
      <trkpt lat="49.02236" lon="1.1716">
        <ele>156.8</ele>
        <time>2017-09-19T17:15:19Z</time>
      </trkpt>
      <trkpt lat="49.0223" lon="1.17144">
        <ele>156.7</ele>
        <time>2017-09-19T17:15:21Z</time>
      </trkpt>
      <trkpt lat="49.02224" lon="1.17127">
        <ele>156.5</ele>
        <time>2017-09-19T17:15:23Z</time>
      </trkpt>
      <trkpt lat="49.02218" lon="1.17111">
        <ele>156.3</ele>
        <time>2017-09-19T17:15:25Z</time>
      </trkpt>
      <trkpt lat="49.02211" lon="1.17095">
        <ele>156.1</ele>
        <time>2017-09-19T17:15:27Z</time>
      </trkpt>
      <trkpt lat="49.02205" lon="1.17079">
        <ele>155.9</ele>
        <time>2017-09-19T17:15:29Z</time>
      </trkpt>
      <trkpt lat="49.022" lon="1.17064">
        <ele>155.9</ele>
        <time>2017-09-19T17:15:31Z</time>
      </trkpt>
      <trkpt lat="49.02199" lon="1.17047">
        <ele>156</ele>
        <time>2017-09-19T17:15:33Z</time>
      </trkpt>
      <trkpt lat="49.02194" lon="1.17032">
        <ele>156.1</ele>
        <time>2017-09-19T17:15:35Z</time>
      </trkpt>
      <trkpt lat="49.02185" lon="1.17021">
        <ele>156.2</ele>
        <time>2017-09-19T17:15:37Z</time>
      </trkpt>
      <trkpt lat="49.02177" lon="1.1701">
        <ele>156.4</ele>
        <time>2017-09-19T17:15:39Z</time>
      </trkpt>
      <trkpt lat="49.02171" lon="1.16998">
        <ele>156.6</ele>
        <time>2017-09-19T17:15:41Z</time>
      </trkpt>
      <trkpt lat="49.02165" lon="1.16985">
        <ele>156.8</ele>
        <time>2017-09-19T17:15:43Z</time>
      </trkpt>
      <trkpt lat="49.0216" lon="1.16972">
        <ele>157.2</ele>
        <time>2017-09-19T17:15:45Z</time>
      </trkpt>
      <trkpt lat="49.02154" lon="1.16959">
        <ele>157.5</ele>
        <time>2017-09-19T17:15:47Z</time>
      </trkpt>
      <trkpt lat="49.02149" lon="1.16946">
        <ele>157.9</ele>
        <time>2017-09-19T17:15:49Z</time>
      </trkpt>
      <trkpt lat="49.02143" lon="1.16934">
        <ele>158.2</ele>
        <time>2017-09-19T17:15:51Z</time>
      </trkpt>
      <trkpt lat="49.02138" lon="1.16922">
        <ele>158.6</ele>
        <time>2017-09-19T17:15:53Z</time>
      </trkpt>
      <trkpt lat="49.02131" lon="1.16912">
        <ele>159</ele>
        <time>2017-09-19T17:15:55Z</time>
      </trkpt>
      <trkpt lat="49.02123" lon="1.16904">
        <ele>159.5</ele>
        <time>2017-09-19T17:15:57Z</time>
      </trkpt>
      <trkpt lat="49.02115" lon="1.16898">
        <ele>160</ele>
        <time>2017-09-19T17:15:59Z</time>
      </trkpt>
      <trkpt lat="49.02106" lon="1.16892">
        <ele>160.4</ele>
        <time>2017-09-19T17:16:01Z</time>
      </trkpt>
      <trkpt lat="49.02098" lon="1.16885">
        <ele>160.9</ele>
        <time>2017-09-19T17:16:03Z</time>
      </trkpt>
      <trkpt lat="49.02089" lon="1.16878">
        <ele>161.1</ele>
        <time>2017-09-19T17:16:05Z</time>
      </trkpt>
      <trkpt lat="49.0208" lon="1.16873">
        <ele>161.5</ele>
        <time>2017-09-19T17:16:07Z</time>
      </trkpt>
      <trkpt lat="49.0207" lon="1.16869">
        <ele>161.8</ele>
        <time>2017-09-19T17:16:09Z</time>
      </trkpt>
      <trkpt lat="49.02061" lon="1.16865">
        <ele>162.1</ele>
        <time>2017-09-19T17:16:11Z</time>
      </trkpt>
      <trkpt lat="49.02051" lon="1.16861">
        <ele>162.5</ele>
        <time>2017-09-19T17:16:13Z</time>
      </trkpt>
      <trkpt lat="49.02042" lon="1.16858">
        <ele>162.8</ele>
        <time>2017-09-19T17:16:15Z</time>
      </trkpt>
      <trkpt lat="49.02032" lon="1.16855">
        <ele>163.1</ele>
        <time>2017-09-19T17:16:17Z</time>
      </trkpt>
      <trkpt lat="49.02022" lon="1.16852">
        <ele>163.4</ele>
        <time>2017-09-19T17:16:19Z</time>
      </trkpt>
      <trkpt lat="49.02012" lon="1.1685">
        <ele>163.5</ele>
        <time>2017-09-19T17:16:21Z</time>
      </trkpt>
      <trkpt lat="49.02002" lon="1.16848">
        <ele>163.8</ele>
        <time>2017-09-19T17:16:23Z</time>
      </trkpt>
      <trkpt lat="49.01992" lon="1.16846">
        <ele>164.1</ele>
        <time>2017-09-19T17:16:25Z</time>
      </trkpt>
      <trkpt lat="49.01982" lon="1.16844">
        <ele>164.3</ele>
        <time>2017-09-19T17:16:27Z</time>
      </trkpt>
      <trkpt lat="49.01972" lon="1.16842">
        <ele>164.6</ele>
        <time>2017-09-19T17:16:29Z</time>
      </trkpt>
      <trkpt lat="49.01961" lon="1.1684">
        <ele>164.8</ele>
        <time>2017-09-19T17:16:31Z</time>
      </trkpt>
      <trkpt lat="49.01951" lon="1.16839">
        <ele>165.1</ele>
        <time>2017-09-19T17:16:33Z</time>
      </trkpt>
      <trkpt lat="49.0194" lon="1.16837">
        <ele>165.3</ele>
        <time>2017-09-19T17:16:35Z</time>
      </trkpt>
      <trkpt lat="49.01929" lon="1.16835">
        <ele>165.7</ele>
        <time>2017-09-19T17:16:37Z</time>
      </trkpt>
      <trkpt lat="49.01919" lon="1.16833">
        <ele>165.8</ele>
        <time>2017-09-19T17:16:39Z</time>
      </trkpt>
      <trkpt lat="49.01908" lon="1.16831">
        <ele>166.1</ele>
        <time>2017-09-19T17:16:41Z</time>
      </trkpt>
      <trkpt lat="49.01897" lon="1.16829">
        <ele>166.4</ele>
        <time>2017-09-19T17:16:43Z</time>
      </trkpt>
      <trkpt lat="49.01886" lon="1.16826">
        <ele>166.8</ele>
        <time>2017-09-19T17:16:45Z</time>
      </trkpt>
      <trkpt lat="49.01875" lon="1.16822">
        <ele>167</ele>
        <time>2017-09-19T17:16:47Z</time>
      </trkpt>
      <trkpt lat="49.01864" lon="1.16817">
        <ele>167</ele>
        <time>2017-09-19T17:16:49Z</time>
      </trkpt>
      <trkpt lat="49.01853" lon="1.16812">
        <ele>167</ele>
        <time>2017-09-19T17:16:51Z</time>
      </trkpt>
      <trkpt lat="49.01843" lon="1.16804">
        <ele>167</ele>
        <time>2017-09-19T17:16:53Z</time>
      </trkpt>
      <trkpt lat="49.01833" lon="1.16795">
        <ele>167</ele>
        <time>2017-09-19T17:16:55Z</time>
      </trkpt>
      <trkpt lat="49.01823" lon="1.16785">
        <ele>167</ele>
        <time>2017-09-19T17:16:57Z</time>
      </trkpt>
      <trkpt lat="49.01815" lon="1.16773">
        <ele>167</ele>
        <time>2017-09-19T17:16:59Z</time>
      </trkpt>
      <trkpt lat="49.01808" lon="1.16762">
        <ele>167</ele>
        <time>2017-09-19T17:17:01Z</time>
      </trkpt>
      <trkpt lat="49.01801" lon="1.16749">
        <ele>167.2</ele>
        <time>2017-09-19T17:17:04Z</time>
      </trkpt>
      <trkpt lat="49.01794" lon="1.16734">
        <ele>167.7</ele>
        <time>2017-09-19T17:17:08Z</time>
      </trkpt>
      <trkpt lat="49.01789" lon="1.16723">
        <ele>167.6</ele>
        <time>2017-09-19T17:17:10Z</time>
      </trkpt>
      <trkpt lat="49.01781" lon="1.16712">
        <ele>167.5</ele>
        <time>2017-09-19T17:17:12Z</time>
      </trkpt>
      <trkpt lat="49.01771" lon="1.16701">
        <ele>167.3</ele>
        <time>2017-09-19T17:17:14Z</time>
      </trkpt>
      <trkpt lat="49.01761" lon="1.1669">
        <ele>167.3</ele>
        <time>2017-09-19T17:17:16Z</time>
      </trkpt>
      <trkpt lat="49.01751" lon="1.16679">
        <ele>167.4</ele>
        <time>2017-09-19T17:17:18Z</time>
      </trkpt>
      <trkpt lat="49.01741" lon="1.16669">
        <ele>167.3</ele>
        <time>2017-09-19T17:17:20Z</time>
      </trkpt>
      <trkpt lat="49.0173" lon="1.16658">
        <ele>167.1</ele>
        <time>2017-09-19T17:17:22Z</time>
      </trkpt>
      <trkpt lat="49.01719" lon="1.16648">
        <ele>167.1</ele>
        <time>2017-09-19T17:17:24Z</time>
      </trkpt>
      <trkpt lat="49.01708" lon="1.1664">
        <ele>167</ele>
        <time>2017-09-19T17:17:26Z</time>
      </trkpt>
      <trkpt lat="49.01696" lon="1.16635">
        <ele>166.9</ele>
        <time>2017-09-19T17:17:28Z</time>
      </trkpt>
      <trkpt lat="49.01683" lon="1.16632">
        <ele>167.1</ele>
        <time>2017-09-19T17:17:30Z</time>
      </trkpt>
      <trkpt lat="49.01672" lon="1.16629">
        <ele>167.2</ele>
        <time>2017-09-19T17:17:32Z</time>
      </trkpt>
      <trkpt lat="49.0166" lon="1.16624">
        <ele>167.3</ele>
        <time>2017-09-19T17:17:34Z</time>
      </trkpt>
      <trkpt lat="49.01649" lon="1.16617">
        <ele>167.3</ele>
        <time>2017-09-19T17:17:36Z</time>
      </trkpt>
      <trkpt lat="49.01639" lon="1.16608">
        <ele>167.4</ele>
        <time>2017-09-19T17:17:38Z</time>
      </trkpt>
      <trkpt lat="49.0163" lon="1.16599">
        <ele>167.4</ele>
        <time>2017-09-19T17:17:40Z</time>
      </trkpt>
      <trkpt lat="49.01621" lon="1.16591">
        <ele>167.5</ele>
        <time>2017-09-19T17:17:42Z</time>
      </trkpt>
      <trkpt lat="49.01612" lon="1.16582">
        <ele>167.6</ele>
        <time>2017-09-19T17:17:45Z</time>
      </trkpt>
      <trkpt lat="49.01605" lon="1.16573">
        <ele>167.4</ele>
        <time>2017-09-19T17:17:57Z</time>
      </trkpt>
      <trkpt lat="49.01595" lon="1.16576">
        <ele>167.4</ele>
        <time>2017-09-19T17:18:01Z</time>
      </trkpt>
      <trkpt lat="49.01593" lon="1.16595">
        <ele>167.4</ele>
        <time>2017-09-19T17:18:04Z</time>
      </trkpt>
      <trkpt lat="49.01594" lon="1.16609">
        <ele>167.3</ele>
        <time>2017-09-19T17:18:06Z</time>
      </trkpt>
      <trkpt lat="49.01593" lon="1.16624">
        <ele>167.2</ele>
        <time>2017-09-19T17:18:08Z</time>
      </trkpt>
      <trkpt lat="49.01593" lon="1.1664">
        <ele>167.5</ele>
        <time>2017-09-19T17:18:10Z</time>
      </trkpt>
      <trkpt lat="49.01591" lon="1.16656">
        <ele>167.8</ele>
        <time>2017-09-19T17:18:12Z</time>
      </trkpt>
      <trkpt lat="49.0159" lon="1.16673">
        <ele>168.3</ele>
        <time>2017-09-19T17:18:14Z</time>
      </trkpt>
      <trkpt lat="49.0159" lon="1.1669">
        <ele>168.6</ele>
        <time>2017-09-19T17:18:16Z</time>
      </trkpt>
      <trkpt lat="49.01589" lon="1.16706">
        <ele>169</ele>
        <time>2017-09-19T17:18:18Z</time>
      </trkpt>
      <trkpt lat="49.01587" lon="1.16721">
        <ele>169.3</ele>
        <time>2017-09-19T17:18:20Z</time>
      </trkpt>
      <trkpt lat="49.01586" lon="1.16736">
        <ele>169.7</ele>
        <time>2017-09-19T17:18:22Z</time>
      </trkpt>
      <trkpt lat="49.01585" lon="1.1675">
        <ele>170.1</ele>
        <time>2017-09-19T17:18:24Z</time>
      </trkpt>
      <trkpt lat="49.01578" lon="1.16764">
        <ele>170.6</ele>
        <time>2017-09-19T17:18:27Z</time>
      </trkpt>
      <trkpt lat="49.01569" lon="1.1677">
        <ele>170.7</ele>
        <time>2017-09-19T17:18:29Z</time>
      </trkpt>
      <trkpt lat="49.01561" lon="1.16776">
        <ele>170.8</ele>
        <time>2017-09-19T17:18:31Z</time>
      </trkpt>
      <trkpt lat="49.01553" lon="1.16791">
        <ele>171.1</ele>
        <time>2017-09-19T17:18:34Z</time>
      </trkpt>
      <trkpt lat="49.01551" lon="1.16811">
        <ele>171.5</ele>
        <time>2017-09-19T17:18:37Z</time>
      </trkpt>
      <trkpt lat="49.01551" lon="1.16825">
        <ele>171.8</ele>
        <time>2017-09-19T17:18:39Z</time>
      </trkpt>
      <trkpt lat="49.01551" lon="1.16841">
        <ele>172</ele>
        <time>2017-09-19T17:18:41Z</time>
      </trkpt>
      <trkpt lat="49.01554" lon="1.16854">
        <ele>171.1</ele>
        <time>2017-09-19T17:18:43Z</time>
      </trkpt>
      <trkpt lat="49.01561" lon="1.16868">
        <ele>171.4</ele>
        <time>2017-09-19T17:18:46Z</time>
      </trkpt>
      <trkpt lat="49.01569" lon="1.16881">
        <ele>171.4</ele>
        <time>2017-09-19T17:18:49Z</time>
      </trkpt>
      <trkpt lat="49.01574" lon="1.16899">
        <ele>171.8</ele>
        <time>2017-09-19T17:18:52Z</time>
      </trkpt>
      <trkpt lat="49.01575" lon="1.16918">
        <ele>172.2</ele>
        <time>2017-09-19T17:18:55Z</time>
      </trkpt>
      <trkpt lat="49.01574" lon="1.16938">
        <ele>172.6</ele>
        <time>2017-09-19T17:18:58Z</time>
      </trkpt>
      <trkpt lat="49.01574" lon="1.16957">
        <ele>172.6</ele>
        <time>2017-09-19T17:19:01Z</time>
      </trkpt>
      <trkpt lat="49.01572" lon="1.16971">
        <ele>172.7</ele>
        <time>2017-09-19T17:19:03Z</time>
      </trkpt>
      <trkpt lat="49.0157" lon="1.1699">
        <ele>173</ele>
        <time>2017-09-19T17:19:06Z</time>
      </trkpt>
      <trkpt lat="49.0156" lon="1.16996">
        <ele>173.1</ele>
        <time>2017-09-19T17:19:09Z</time>
      </trkpt>
      <trkpt lat="49.01549" lon="1.1699">
        <ele>173.2</ele>
        <time>2017-09-19T17:19:12Z</time>
      </trkpt>
      <trkpt lat="49.0154" lon="1.16987">
        <ele>173.2</ele>
        <time>2017-09-19T17:19:14Z</time>
      </trkpt>
      <trkpt lat="49.01529" lon="1.16982">
        <ele>173.3</ele>
        <time>2017-09-19T17:19:17Z</time>
      </trkpt>
      <trkpt lat="49.01518" lon="1.16978">
        <ele>173.5</ele>
        <time>2017-09-19T17:19:20Z</time>
      </trkpt>
      <trkpt lat="49.01511" lon="1.16965">
        <ele>173.7</ele>
        <time>2017-09-19T17:19:24Z</time>
      </trkpt>
      <trkpt lat="49.01501" lon="1.16954">
        <ele>173.6</ele>
        <time>2017-09-19T17:19:27Z</time>
      </trkpt>
      <trkpt lat="49.01488" lon="1.16949">
        <ele>173.6</ele>
        <time>2017-09-19T17:19:30Z</time>
      </trkpt>
      <trkpt lat="49.01479" lon="1.16945">
        <ele>173.5</ele>
        <time>2017-09-19T17:19:32Z</time>
      </trkpt>
      <trkpt lat="49.01473" lon="1.16932">
        <ele>173.6</ele>
        <time>2017-09-19T17:19:35Z</time>
      </trkpt>
      <trkpt lat="49.01473" lon="1.16919">
        <ele>173.6</ele>
        <time>2017-09-19T17:19:38Z</time>
      </trkpt>
      <trkpt lat="49.01476" lon="1.16903">
        <ele>174</ele>
        <time>2017-09-19T17:19:42Z</time>
      </trkpt>
      <trkpt lat="49.0147" lon="1.16888">
        <ele>174.2</ele>
        <time>2017-09-19T17:19:45Z</time>
      </trkpt>
      <trkpt lat="49.01459" lon="1.1688">
        <ele>174.5</ele>
        <time>2017-09-19T17:19:48Z</time>
      </trkpt>
      <trkpt lat="49.01452" lon="1.1687">
        <ele>174.6</ele>
        <time>2017-09-19T17:19:50Z</time>
      </trkpt>
      <trkpt lat="49.01444" lon="1.16861">
        <ele>174.4</ele>
        <time>2017-09-19T17:19:52Z</time>
      </trkpt>
      <trkpt lat="49.01432" lon="1.16858">
        <ele>174.4</ele>
        <time>2017-09-19T17:19:55Z</time>
      </trkpt>
      <trkpt lat="49.01423" lon="1.16862">
        <ele>174.6</ele>
        <time>2017-09-19T17:19:57Z</time>
      </trkpt>
      <trkpt lat="49.0141" lon="1.16857">
        <ele>174.9</ele>
        <time>2017-09-19T17:20:00Z</time>
      </trkpt>
      <trkpt lat="49.01401" lon="1.16852">
        <ele>175.2</ele>
        <time>2017-09-19T17:20:02Z</time>
      </trkpt>
      <trkpt lat="49.01391" lon="1.16847">
        <ele>175.2</ele>
        <time>2017-09-19T17:20:04Z</time>
      </trkpt>
      <trkpt lat="49.01381" lon="1.16842">
        <ele>175.2</ele>
        <time>2017-09-19T17:20:06Z</time>
      </trkpt>
      <trkpt lat="49.0137" lon="1.16837">
        <ele>175.2</ele>
        <time>2017-09-19T17:20:09Z</time>
      </trkpt>
      <trkpt lat="49.01362" lon="1.1683">
        <ele>175</ele>
        <time>2017-09-19T17:20:11Z</time>
      </trkpt>
      <trkpt lat="49.01356" lon="1.16818">
        <ele>174.9</ele>
        <time>2017-09-19T17:20:13Z</time>
      </trkpt>
      <trkpt lat="49.01355" lon="1.16802">
        <ele>174.8</ele>
        <time>2017-09-19T17:20:15Z</time>
      </trkpt>
      <trkpt lat="49.01352" lon="1.16786">
        <ele>174.6</ele>
        <time>2017-09-19T17:20:17Z</time>
      </trkpt>
      <trkpt lat="49.01345" lon="1.16775">
        <ele>174.8</ele>
        <time>2017-09-19T17:20:19Z</time>
      </trkpt>
      <trkpt lat="49.01337" lon="1.16763">
        <ele>174.5</ele>
        <time>2017-09-19T17:20:21Z</time>
      </trkpt>
      <trkpt lat="49.01332" lon="1.16748">
        <ele>174.6</ele>
        <time>2017-09-19T17:20:23Z</time>
      </trkpt>
      <trkpt lat="49.01329" lon="1.16731">
        <ele>174.5</ele>
        <time>2017-09-19T17:20:25Z</time>
      </trkpt>
      <trkpt lat="49.01324" lon="1.16718">
        <ele>174.4</ele>
        <time>2017-09-19T17:20:27Z</time>
      </trkpt>
      <trkpt lat="49.0131" lon="1.16717">
        <ele>174.6</ele>
        <time>2017-09-19T17:20:30Z</time>
      </trkpt>
      <trkpt lat="49.01299" lon="1.16715">
        <ele>174.4</ele>
        <time>2017-09-19T17:20:32Z</time>
      </trkpt>
      <trkpt lat="49.01289" lon="1.16709">
        <ele>174.4</ele>
        <time>2017-09-19T17:20:34Z</time>
      </trkpt>
      <trkpt lat="49.01278" lon="1.16712">
        <ele>174.4</ele>
        <time>2017-09-19T17:20:36Z</time>
      </trkpt>
      <trkpt lat="49.01269" lon="1.16719">
        <ele>174.4</ele>
        <time>2017-09-19T17:20:38Z</time>
      </trkpt>
      <trkpt lat="49.0126" lon="1.16729">
        <ele>174.7</ele>
        <time>2017-09-19T17:20:40Z</time>
      </trkpt>
      <trkpt lat="49.01251" lon="1.16737">
        <ele>174.9</ele>
        <time>2017-09-19T17:20:42Z</time>
      </trkpt>
      <trkpt lat="49.0124" lon="1.16738">
        <ele>175.1</ele>
        <time>2017-09-19T17:20:44Z</time>
      </trkpt>
      <trkpt lat="49.01229" lon="1.16732">
        <ele>175.1</ele>
        <time>2017-09-19T17:20:46Z</time>
      </trkpt>
      <trkpt lat="49.01219" lon="1.16725">
        <ele>175.2</ele>
        <time>2017-09-19T17:20:48Z</time>
      </trkpt>
      <trkpt lat="49.01208" lon="1.16718">
        <ele>175.2</ele>
        <time>2017-09-19T17:20:50Z</time>
      </trkpt>
      <trkpt lat="49.01198" lon="1.16718">
        <ele>175.4</ele>
        <time>2017-09-19T17:20:52Z</time>
      </trkpt>
      <trkpt lat="49.01187" lon="1.16727">
        <ele>175.4</ele>
        <time>2017-09-19T17:20:54Z</time>
      </trkpt>
      <trkpt lat="49.01176" lon="1.16735">
        <ele>175.4</ele>
        <time>2017-09-19T17:20:56Z</time>
      </trkpt>
      <trkpt lat="49.01165" lon="1.16738">
        <ele>175.4</ele>
        <time>2017-09-19T17:20:58Z</time>
      </trkpt>
      <trkpt lat="49.01155" lon="1.16735">
        <ele>175.5</ele>
        <time>2017-09-19T17:21:00Z</time>
      </trkpt>
      <trkpt lat="49.01145" lon="1.1673">
        <ele>175.4</ele>
        <time>2017-09-19T17:21:02Z</time>
      </trkpt>
      <trkpt lat="49.01135" lon="1.16722">
        <ele>175.4</ele>
        <time>2017-09-19T17:21:04Z</time>
      </trkpt>
      <trkpt lat="49.01129" lon="1.1671">
        <ele>175.4</ele>
        <time>2017-09-19T17:21:06Z</time>
      </trkpt>
      <trkpt lat="49.01122" lon="1.16699">
        <ele>175.2</ele>
        <time>2017-09-19T17:21:08Z</time>
      </trkpt>
      <trkpt lat="49.0111" lon="1.16704">
        <ele>174.9</ele>
        <time>2017-09-19T17:21:11Z</time>
      </trkpt>
      <trkpt lat="49.01099" lon="1.16708">
        <ele>175.2</ele>
        <time>2017-09-19T17:21:14Z</time>
      </trkpt>
      <trkpt lat="49.01094" lon="1.16697">
        <ele>175.4</ele>
        <time>2017-09-19T17:21:17Z</time>
      </trkpt>
      <trkpt lat="49.01088" lon="1.16681">
        <ele>175.6</ele>
        <time>2017-09-19T17:21:20Z</time>
      </trkpt>
      <trkpt lat="49.01076" lon="1.16679">
        <ele>175.4</ele>
        <time>2017-09-19T17:21:23Z</time>
      </trkpt>
      <trkpt lat="49.01066" lon="1.16686">
        <ele>175.2</ele>
        <time>2017-09-19T17:21:25Z</time>
      </trkpt>
      <trkpt lat="49.01051" lon="1.16695">
        <ele>175</ele>
        <time>2017-09-19T17:21:28Z</time>
      </trkpt>
      <trkpt lat="49.01039" lon="1.16703">
        <ele>174.9</ele>
        <time>2017-09-19T17:21:31Z</time>
      </trkpt>
      <trkpt lat="49.01028" lon="1.167">
        <ele>174.8</ele>
        <time>2017-09-19T17:21:34Z</time>
      </trkpt>
      <trkpt lat="49.01023" lon="1.16684">
        <ele>174.6</ele>
        <time>2017-09-19T17:21:38Z</time>
      </trkpt>
      <trkpt lat="49.01029" lon="1.16671">
        <ele>174.5</ele>
        <time>2017-09-19T17:21:41Z</time>
      </trkpt>
      <trkpt lat="49.0104" lon="1.16662">
        <ele>174.4</ele>
        <time>2017-09-19T17:21:44Z</time>
      </trkpt>
      <trkpt lat="49.01044" lon="1.16649">
        <ele>174.4</ele>
        <time>2017-09-19T17:21:48Z</time>
      </trkpt>
      <trkpt lat="49.01038" lon="1.16634">
        <ele>174.7</ele>
        <time>2017-09-19T17:21:53Z</time>
      </trkpt>
      <trkpt lat="49.01032" lon="1.1662">
        <ele>174.7</ele>
        <time>2017-09-19T17:21:57Z</time>
      </trkpt>
      <trkpt lat="49.01027" lon="1.16602">
        <ele>174.8</ele>
        <time>2017-09-19T17:22:00Z</time>
      </trkpt>
      <trkpt lat="49.01025" lon="1.16586">
        <ele>174.6</ele>
        <time>2017-09-19T17:22:02Z</time>
      </trkpt>
      <trkpt lat="49.01031" lon="1.1657">
        <ele>174.4</ele>
        <time>2017-09-19T17:22:05Z</time>
      </trkpt>
      <trkpt lat="49.0104" lon="1.16564">
        <ele>174.5</ele>
        <time>2017-09-19T17:22:07Z</time>
      </trkpt>
      <trkpt lat="49.01047" lon="1.16552">
        <ele>174.5</ele>
        <time>2017-09-19T17:22:09Z</time>
      </trkpt>
      <trkpt lat="49.01047" lon="1.16537">
        <ele>174.2</ele>
        <time>2017-09-19T17:22:11Z</time>
      </trkpt>
      <trkpt lat="49.01041" lon="1.16527">
        <ele>174.2</ele>
        <time>2017-09-19T17:22:13Z</time>
      </trkpt>
      <trkpt lat="49.01031" lon="1.16528">
        <ele>174.2</ele>
        <time>2017-09-19T17:22:15Z</time>
      </trkpt>
      <trkpt lat="49.01022" lon="1.16534">
        <ele>174.3</ele>
        <time>2017-09-19T17:22:17Z</time>
      </trkpt>
      <trkpt lat="49.01013" lon="1.16537">
        <ele>174.3</ele>
        <time>2017-09-19T17:22:19Z</time>
      </trkpt>
      <trkpt lat="49.01005" lon="1.16524">
        <ele>174.2</ele>
        <time>2017-09-19T17:22:22Z</time>
      </trkpt>
      <trkpt lat="49.01002" lon="1.16509">
        <ele>174.8</ele>
        <time>2017-09-19T17:22:28Z</time>
      </trkpt>
      <trkpt lat="49.00992" lon="1.16508">
        <ele>174.4</ele>
        <time>2017-09-19T17:22:32Z</time>
      </trkpt>
      <trkpt lat="49.0098" lon="1.16512">
        <ele>173.9</ele>
        <time>2017-09-19T17:22:36Z</time>
      </trkpt>
      <trkpt lat="49.00974" lon="1.165">
        <ele>173.8</ele>
        <time>2017-09-19T17:22:39Z</time>
      </trkpt>
      <trkpt lat="49.00969" lon="1.16488">
        <ele>173.7</ele>
        <time>2017-09-19T17:22:42Z</time>
      </trkpt>
      <trkpt lat="49.00958" lon="1.1649">
        <ele>173.7</ele>
        <time>2017-09-19T17:22:46Z</time>
      </trkpt>
      <trkpt lat="49.0095" lon="1.16475">
        <ele>173.5</ele>
        <time>2017-09-19T17:22:49Z</time>
      </trkpt>
      <trkpt lat="49.00945" lon="1.16458">
        <ele>173.3</ele>
        <time>2017-09-19T17:22:52Z</time>
      </trkpt>
      <trkpt lat="49.00945" lon="1.16438">
        <ele>173.3</ele>
        <time>2017-09-19T17:22:55Z</time>
      </trkpt>
      <trkpt lat="49.00946" lon="1.16424">
        <ele>173.3</ele>
        <time>2017-09-19T17:22:57Z</time>
      </trkpt>
      <trkpt lat="49.00946" lon="1.16408">
        <ele>173</ele>
        <time>2017-09-19T17:22:59Z</time>
      </trkpt>
      <trkpt lat="49.00948" lon="1.16392">
        <ele>172.9</ele>
        <time>2017-09-19T17:23:01Z</time>
      </trkpt>
      <trkpt lat="49.00948" lon="1.16376">
        <ele>172.9</ele>
        <time>2017-09-19T17:23:03Z</time>
      </trkpt>
      <trkpt lat="49.00945" lon="1.1636">
        <ele>172.9</ele>
        <time>2017-09-19T17:23:05Z</time>
      </trkpt>
      <trkpt lat="49.00943" lon="1.16345">
        <ele>172.7</ele>
        <time>2017-09-19T17:23:07Z</time>
      </trkpt>
      <trkpt lat="49.00942" lon="1.16326">
        <ele>172.6</ele>
        <time>2017-09-19T17:23:10Z</time>
      </trkpt>
      <trkpt lat="49.00939" lon="1.16307">
        <ele>172.9</ele>
        <time>2017-09-19T17:23:13Z</time>
      </trkpt>
      <trkpt lat="49.00928" lon="1.16303">
        <ele>173</ele>
        <time>2017-09-19T17:23:17Z</time>
      </trkpt>
      <trkpt lat="49.00915" lon="1.16304">
        <ele>173</ele>
        <time>2017-09-19T17:23:20Z</time>
      </trkpt>
      <trkpt lat="49.00906" lon="1.16299">
        <ele>173.6</ele>
        <time>2017-09-19T17:23:23Z</time>
      </trkpt>
      <trkpt lat="49.00896" lon="1.16298">
        <ele>173.3</ele>
        <time>2017-09-19T17:23:25Z</time>
      </trkpt>
      <trkpt lat="49.00887" lon="1.16296">
        <ele>173.1</ele>
        <time>2017-09-19T17:23:27Z</time>
      </trkpt>
      <trkpt lat="49.00878" lon="1.16281">
        <ele>172.6</ele>
        <time>2017-09-19T17:23:30Z</time>
      </trkpt>
      <trkpt lat="49.00875" lon="1.16265">
        <ele>172.5</ele>
        <time>2017-09-19T17:23:32Z</time>
      </trkpt>
      <trkpt lat="49.00871" lon="1.16249">
        <ele>172.3</ele>
        <time>2017-09-19T17:23:34Z</time>
      </trkpt>
      <trkpt lat="49.00866" lon="1.16232">
        <ele>172.1</ele>
        <time>2017-09-19T17:23:36Z</time>
      </trkpt>
      <trkpt lat="49.00859" lon="1.16216">
        <ele>172</ele>
        <time>2017-09-19T17:23:38Z</time>
      </trkpt>
      <trkpt lat="49.00851" lon="1.16203">
        <ele>171.8</ele>
        <time>2017-09-19T17:23:40Z</time>
      </trkpt>
      <trkpt lat="49.00847" lon="1.16186">
        <ele>171.8</ele>
        <time>2017-09-19T17:23:42Z</time>
      </trkpt>
      <trkpt lat="49.00842" lon="1.16168">
        <ele>171.7</ele>
        <time>2017-09-19T17:23:44Z</time>
      </trkpt>
      <trkpt lat="49.00838" lon="1.16152">
        <ele>171.6</ele>
        <time>2017-09-19T17:23:46Z</time>
      </trkpt>
      <trkpt lat="49.00833" lon="1.16135">
        <ele>171.5</ele>
        <time>2017-09-19T17:23:49Z</time>
      </trkpt>
      <trkpt lat="49.00822" lon="1.16133">
        <ele>171.5</ele>
        <time>2017-09-19T17:23:52Z</time>
      </trkpt>
      <trkpt lat="49.00813" lon="1.16135">
        <ele>171.4</ele>
        <time>2017-09-19T17:23:54Z</time>
      </trkpt>
      <trkpt lat="49.00806" lon="1.16124">
        <ele>171.3</ele>
        <time>2017-09-19T17:23:56Z</time>
      </trkpt>
      <trkpt lat="49.00804" lon="1.16109">
        <ele>171.3</ele>
        <time>2017-09-19T17:23:58Z</time>
      </trkpt>
      <trkpt lat="49.00807" lon="1.16093">
        <ele>171</ele>
        <time>2017-09-19T17:24:00Z</time>
      </trkpt>
      <trkpt lat="49.00812" lon="1.16077">
        <ele>170.9</ele>
        <time>2017-09-19T17:24:02Z</time>
      </trkpt>
      <trkpt lat="49.00819" lon="1.16052">
        <ele>170</ele>
        <time>2017-09-19T17:24:05Z</time>
      </trkpt>
      <trkpt lat="49.0083" lon="1.16021">
        <ele>170</ele>
        <time>2017-09-19T17:24:09Z</time>
      </trkpt>
      <trkpt lat="49.00841" lon="1.16005">
        <ele>170.5</ele>
        <time>2017-09-19T17:24:12Z</time>
      </trkpt>
      <trkpt lat="49.00846" lon="1.15988">
        <ele>170.9</ele>
        <time>2017-09-19T17:24:18Z</time>
      </trkpt>
      <trkpt lat="49.00837" lon="1.15974">
        <ele>170.9</ele>
        <time>2017-09-19T17:24:20Z</time>
      </trkpt>
      <trkpt lat="49.00827" lon="1.15969">
        <ele>170.7</ele>
        <time>2017-09-19T17:24:22Z</time>
      </trkpt>
      <trkpt lat="49.00816" lon="1.15973">
        <ele>170.6</ele>
        <time>2017-09-19T17:24:24Z</time>
      </trkpt>
      <trkpt lat="49.00805" lon="1.15978">
        <ele>170.4</ele>
        <time>2017-09-19T17:24:26Z</time>
      </trkpt>
      <trkpt lat="49.00793" lon="1.1598">
        <ele>170.2</ele>
        <time>2017-09-19T17:24:28Z</time>
      </trkpt>
      <trkpt lat="49.00781" lon="1.15976">
        <ele>170.1</ele>
        <time>2017-09-19T17:24:30Z</time>
      </trkpt>
      <trkpt lat="49.00773" lon="1.15969">
        <ele>170</ele>
        <time>2017-09-19T17:24:32Z</time>
      </trkpt>
      <trkpt lat="49.00767" lon="1.15955">
        <ele>170.3</ele>
        <time>2017-09-19T17:24:35Z</time>
      </trkpt>
      <trkpt lat="49.00764" lon="1.1594">
        <ele>169.9</ele>
        <time>2017-09-19T17:24:38Z</time>
      </trkpt>
      <trkpt lat="49.00769" lon="1.15927">
        <ele>170.1</ele>
        <time>2017-09-19T17:24:42Z</time>
      </trkpt>
      <trkpt lat="49.00774" lon="1.15913">
        <ele>170.1</ele>
        <time>2017-09-19T17:24:47Z</time>
      </trkpt>
      <trkpt lat="49.00773" lon="1.15897">
        <ele>170.2</ele>
        <time>2017-09-19T17:24:50Z</time>
      </trkpt>
      <trkpt lat="49.00776" lon="1.15879">
        <ele>170.3</ele>
        <time>2017-09-19T17:24:53Z</time>
      </trkpt>
      <trkpt lat="49.00787" lon="1.15874">
        <ele>170</ele>
        <time>2017-09-19T17:24:56Z</time>
      </trkpt>
      <trkpt lat="49.00796" lon="1.15874">
        <ele>170</ele>
        <time>2017-09-19T17:24:58Z</time>
      </trkpt>
      <trkpt lat="49.00803" lon="1.15859">
        <ele>169.8</ele>
        <time>2017-09-19T17:25:01Z</time>
      </trkpt>
      <trkpt lat="49.00801" lon="1.15845">
        <ele>169.7</ele>
        <time>2017-09-19T17:25:03Z</time>
      </trkpt>
      <trkpt lat="49.00796" lon="1.15832">
        <ele>169.4</ele>
        <time>2017-09-19T17:25:05Z</time>
      </trkpt>
      <trkpt lat="49.00789" lon="1.15823">
        <ele>169.3</ele>
        <time>2017-09-19T17:25:07Z</time>
      </trkpt>
      <trkpt lat="49.00782" lon="1.15814">
        <ele>169.1</ele>
        <time>2017-09-19T17:25:09Z</time>
      </trkpt>
      <trkpt lat="49.00779" lon="1.158">
        <ele>169</ele>
        <time>2017-09-19T17:25:11Z</time>
      </trkpt>
      <trkpt lat="49.00774" lon="1.15787">
        <ele>168.9</ele>
        <time>2017-09-19T17:25:13Z</time>
      </trkpt>
      <trkpt lat="49.00767" lon="1.15776">
        <ele>169</ele>
        <time>2017-09-19T17:25:15Z</time>
      </trkpt>
      <trkpt lat="49.00761" lon="1.15764">
        <ele>169</ele>
        <time>2017-09-19T17:25:17Z</time>
      </trkpt>
      <trkpt lat="49.00756" lon="1.15751">
        <ele>169.1</ele>
        <time>2017-09-19T17:25:19Z</time>
      </trkpt>
      <trkpt lat="49.00748" lon="1.15742">
        <ele>169.3</ele>
        <time>2017-09-19T17:25:21Z</time>
      </trkpt>
      <trkpt lat="49.00738" lon="1.15736">
        <ele>169.3</ele>
        <time>2017-09-19T17:25:23Z</time>
      </trkpt>
      <trkpt lat="49.0073" lon="1.15727">
        <ele>169</ele>
        <time>2017-09-19T17:25:25Z</time>
      </trkpt>
      <trkpt lat="49.00727" lon="1.15712">
        <ele>169.2</ele>
        <time>2017-09-19T17:25:27Z</time>
      </trkpt>
      <trkpt lat="49.00724" lon="1.15696">
        <ele>169</ele>
        <time>2017-09-19T17:25:29Z</time>
      </trkpt>
      <trkpt lat="49.00716" lon="1.15685">
        <ele>169.1</ele>
        <time>2017-09-19T17:25:31Z</time>
      </trkpt>
      <trkpt lat="49.00706" lon="1.1568">
        <ele>169.1</ele>
        <time>2017-09-19T17:25:33Z</time>
      </trkpt>
      <trkpt lat="49.00696" lon="1.1568">
        <ele>169.3</ele>
        <time>2017-09-19T17:25:35Z</time>
      </trkpt>
      <trkpt lat="49.00686" lon="1.15685">
        <ele>169.3</ele>
        <time>2017-09-19T17:25:37Z</time>
      </trkpt>
      <trkpt lat="49.00677" lon="1.15686">
        <ele>169.4</ele>
        <time>2017-09-19T17:25:39Z</time>
      </trkpt>
      <trkpt lat="49.0067" lon="1.15677">
        <ele>169.4</ele>
        <time>2017-09-19T17:25:41Z</time>
      </trkpt>
      <trkpt lat="49.00664" lon="1.15665">
        <ele>169.5</ele>
        <time>2017-09-19T17:25:43Z</time>
      </trkpt>
      <trkpt lat="49.00656" lon="1.15656">
        <ele>169.5</ele>
        <time>2017-09-19T17:25:45Z</time>
      </trkpt>
      <trkpt lat="49.00647" lon="1.15647">
        <ele>169.5</ele>
        <time>2017-09-19T17:25:47Z</time>
      </trkpt>
      <trkpt lat="49.00639" lon="1.15637">
        <ele>169.7</ele>
        <time>2017-09-19T17:25:49Z</time>
      </trkpt>
      <trkpt lat="49.0063" lon="1.15627">
        <ele>169.8</ele>
        <time>2017-09-19T17:25:51Z</time>
      </trkpt>
      <trkpt lat="49.00619" lon="1.15619">
        <ele>169.6</ele>
        <time>2017-09-19T17:25:53Z</time>
      </trkpt>
      <trkpt lat="49.00607" lon="1.15613">
        <ele>169.5</ele>
        <time>2017-09-19T17:25:55Z</time>
      </trkpt>
      <trkpt lat="49.00596" lon="1.15613">
        <ele>169.5</ele>
        <time>2017-09-19T17:25:57Z</time>
      </trkpt>
      <trkpt lat="49.00584" lon="1.15616">
        <ele>169.5</ele>
        <time>2017-09-19T17:25:59Z</time>
      </trkpt>
      <trkpt lat="49.00573" lon="1.15621">
        <ele>169.4</ele>
        <time>2017-09-19T17:26:01Z</time>
      </trkpt>
      <trkpt lat="49.00564" lon="1.15625">
        <ele>169.7</ele>
        <time>2017-09-19T17:26:03Z</time>
      </trkpt>
      <trkpt lat="49.00555" lon="1.15635">
        <ele>170</ele>
        <time>2017-09-19T17:26:06Z</time>
      </trkpt>
      <trkpt lat="49.00548" lon="1.15646">
        <ele>170.4</ele>
        <time>2017-09-19T17:26:09Z</time>
      </trkpt>
      <trkpt lat="49.00538" lon="1.15656">
        <ele>170.5</ele>
        <time>2017-09-19T17:26:12Z</time>
      </trkpt>
      <trkpt lat="49.00529" lon="1.15662">
        <ele>170.6</ele>
        <time>2017-09-19T17:26:14Z</time>
      </trkpt>
      <trkpt lat="49.00519" lon="1.15664">
        <ele>170.8</ele>
        <time>2017-09-19T17:26:16Z</time>
      </trkpt>
      <trkpt lat="49.00511" lon="1.15658">
        <ele>170.9</ele>
        <time>2017-09-19T17:26:18Z</time>
      </trkpt>
      <trkpt lat="49.00505" lon="1.15646">
        <ele>171.1</ele>
        <time>2017-09-19T17:26:20Z</time>
      </trkpt>
      <trkpt lat="49.00495" lon="1.15645">
        <ele>171.3</ele>
        <time>2017-09-19T17:26:23Z</time>
      </trkpt>
      <trkpt lat="49.00485" lon="1.15653">
        <ele>171.5</ele>
        <time>2017-09-19T17:26:26Z</time>
      </trkpt>
      <trkpt lat="49.00476" lon="1.15661">
        <ele>171.6</ele>
        <time>2017-09-19T17:26:29Z</time>
      </trkpt>
      <trkpt lat="49.00466" lon="1.15669">
        <ele>172</ele>
        <time>2017-09-19T17:26:32Z</time>
      </trkpt>
      <trkpt lat="49.00457" lon="1.15672">
        <ele>172.2</ele>
        <time>2017-09-19T17:26:34Z</time>
      </trkpt>
      <trkpt lat="49.00447" lon="1.15668">
        <ele>172.2</ele>
        <time>2017-09-19T17:26:36Z</time>
      </trkpt>
      <trkpt lat="49.0044" lon="1.15657">
        <ele>172.2</ele>
        <time>2017-09-19T17:26:38Z</time>
      </trkpt>
      <trkpt lat="49.00437" lon="1.15644">
        <ele>172.3</ele>
        <time>2017-09-19T17:26:40Z</time>
      </trkpt>
      <trkpt lat="49.00436" lon="1.1563">
        <ele>172.3</ele>
        <time>2017-09-19T17:26:42Z</time>
      </trkpt>
      <trkpt lat="49.00434" lon="1.15611">
        <ele>172.2</ele>
        <time>2017-09-19T17:26:45Z</time>
      </trkpt>
      <trkpt lat="49.00431" lon="1.15592">
        <ele>172.4</ele>
        <time>2017-09-19T17:26:48Z</time>
      </trkpt>
      <trkpt lat="49.00426" lon="1.15573">
        <ele>172.4</ele>
        <time>2017-09-19T17:26:51Z</time>
      </trkpt>
      <trkpt lat="49.00424" lon="1.15559">
        <ele>172.4</ele>
        <time>2017-09-19T17:26:53Z</time>
      </trkpt>
      <trkpt lat="49.00422" lon="1.15545">
        <ele>172.4</ele>
        <time>2017-09-19T17:26:55Z</time>
      </trkpt>
      <trkpt lat="49.0042" lon="1.1553">
        <ele>172.3</ele>
        <time>2017-09-19T17:26:57Z</time>
      </trkpt>
      <trkpt lat="49.00418" lon="1.15517">
        <ele>172.3</ele>
        <time>2017-09-19T17:26:59Z</time>
      </trkpt>
      <trkpt lat="49.0041" lon="1.15503">
        <ele>172.7</ele>
        <time>2017-09-19T17:27:02Z</time>
      </trkpt>
      <trkpt lat="49.00402" lon="1.15488">
        <ele>173</ele>
        <time>2017-09-19T17:27:05Z</time>
      </trkpt>
      <trkpt lat="49.00399" lon="1.1547">
        <ele>173.1</ele>
        <time>2017-09-19T17:27:08Z</time>
      </trkpt>
      <trkpt lat="49.00398" lon="1.15453">
        <ele>173.3</ele>
        <time>2017-09-19T17:27:11Z</time>
      </trkpt>
      <trkpt lat="49.00395" lon="1.15434">
        <ele>173.3</ele>
        <time>2017-09-19T17:27:14Z</time>
      </trkpt>
      <trkpt lat="49.00393" lon="1.15419">
        <ele>173.4</ele>
        <time>2017-09-19T17:27:16Z</time>
      </trkpt>
      <trkpt lat="49.00392" lon="1.154">
        <ele>173.4</ele>
        <time>2017-09-19T17:27:19Z</time>
      </trkpt>
      <trkpt lat="49.0039" lon="1.15383">
        <ele>173.3</ele>
        <time>2017-09-19T17:27:22Z</time>
      </trkpt>
      <trkpt lat="49.00386" lon="1.15367">
        <ele>173.5</ele>
        <time>2017-09-19T17:27:25Z</time>
      </trkpt>
      <trkpt lat="49.00383" lon="1.15352">
        <ele>173.6</ele>
        <time>2017-09-19T17:27:28Z</time>
      </trkpt>
      <trkpt lat="49.00381" lon="1.15335">
        <ele>173.7</ele>
        <time>2017-09-19T17:27:31Z</time>
      </trkpt>
      <trkpt lat="49.00378" lon="1.15319">
        <ele>173.6</ele>
        <time>2017-09-19T17:27:34Z</time>
      </trkpt>
      <trkpt lat="49.00376" lon="1.15301">
        <ele>173.3</ele>
        <time>2017-09-19T17:27:37Z</time>
      </trkpt>
      <trkpt lat="49.00373" lon="1.15282">
        <ele>173.3</ele>
        <time>2017-09-19T17:27:40Z</time>
      </trkpt>
      <trkpt lat="49.00372" lon="1.15263">
        <ele>173.4</ele>
        <time>2017-09-19T17:27:43Z</time>
      </trkpt>
      <trkpt lat="49.00371" lon="1.15244">
        <ele>173.4</ele>
        <time>2017-09-19T17:27:46Z</time>
      </trkpt>
      <trkpt lat="49.00377" lon="1.15228">
        <ele>173.4</ele>
        <time>2017-09-19T17:27:49Z</time>
      </trkpt>
      <trkpt lat="49.00384" lon="1.15212">
        <ele>173.2</ele>
        <time>2017-09-19T17:27:52Z</time>
      </trkpt>
      <trkpt lat="49.00387" lon="1.15196">
        <ele>173.1</ele>
        <time>2017-09-19T17:27:55Z</time>
      </trkpt>
      <trkpt lat="49.00389" lon="1.15181">
        <ele>173.1</ele>
        <time>2017-09-19T17:27:58Z</time>
      </trkpt>
      <trkpt lat="49.00384" lon="1.15167">
        <ele>173</ele>
        <time>2017-09-19T17:28:01Z</time>
      </trkpt>
      <trkpt lat="49.00374" lon="1.15163">
        <ele>173.1</ele>
        <time>2017-09-19T17:28:04Z</time>
      </trkpt>
      <trkpt lat="49.00366" lon="1.15153">
        <ele>173.3</ele>
        <time>2017-09-19T17:28:08Z</time>
      </trkpt>
      <trkpt lat="49.00363" lon="1.1514">
        <ele>173.9</ele>
        <time>2017-09-19T17:28:12Z</time>
      </trkpt>
      <trkpt lat="49.00358" lon="1.15128">
        <ele>173.9</ele>
        <time>2017-09-19T17:28:16Z</time>
      </trkpt>
      <trkpt lat="49.00352" lon="1.15113">
        <ele>173.2</ele>
        <time>2017-09-19T17:28:21Z</time>
      </trkpt>
      <trkpt lat="49.0035" lon="1.15095">
        <ele>172.7</ele>
        <time>2017-09-19T17:28:24Z</time>
      </trkpt>
      <trkpt lat="49.00348" lon="1.15081">
        <ele>172.4</ele>
        <time>2017-09-19T17:28:26Z</time>
      </trkpt>
      <trkpt lat="49.00347" lon="1.15065">
        <ele>172.1</ele>
        <time>2017-09-19T17:28:28Z</time>
      </trkpt>
      <trkpt lat="49.00345" lon="1.15049">
        <ele>171.8</ele>
        <time>2017-09-19T17:28:30Z</time>
      </trkpt>
      <trkpt lat="49.00344" lon="1.15031">
        <ele>171.5</ele>
        <time>2017-09-19T17:28:32Z</time>
      </trkpt>
      <trkpt lat="49.00342" lon="1.15013">
        <ele>171.4</ele>
        <time>2017-09-19T17:28:34Z</time>
      </trkpt>
      <trkpt lat="49.00341" lon="1.14995">
        <ele>171.1</ele>
        <time>2017-09-19T17:28:36Z</time>
      </trkpt>
      <trkpt lat="49.0034" lon="1.14976">
        <ele>170.9</ele>
        <time>2017-09-19T17:28:38Z</time>
      </trkpt>
      <trkpt lat="49.0034" lon="1.14957">
        <ele>170.5</ele>
        <time>2017-09-19T17:28:40Z</time>
      </trkpt>
      <trkpt lat="49.0034" lon="1.14938">
        <ele>170.2</ele>
        <time>2017-09-19T17:28:42Z</time>
      </trkpt>
      <trkpt lat="49.00339" lon="1.1492">
        <ele>169.9</ele>
        <time>2017-09-19T17:28:44Z</time>
      </trkpt>
      <trkpt lat="49.0034" lon="1.14901">
        <ele>169.6</ele>
        <time>2017-09-19T17:28:46Z</time>
      </trkpt>
      <trkpt lat="49.00344" lon="1.14883">
        <ele>169.2</ele>
        <time>2017-09-19T17:28:48Z</time>
      </trkpt>
      <trkpt lat="49.00349" lon="1.14866">
        <ele>169</ele>
        <time>2017-09-19T17:28:50Z</time>
      </trkpt>
      <trkpt lat="49.00356" lon="1.1485">
        <ele>168.5</ele>
        <time>2017-09-19T17:28:52Z</time>
      </trkpt>
      <trkpt lat="49.00364" lon="1.14835">
        <ele>168.2</ele>
        <time>2017-09-19T17:28:54Z</time>
      </trkpt>
      <trkpt lat="49.0037" lon="1.14819">
        <ele>167.9</ele>
        <time>2017-09-19T17:28:56Z</time>
      </trkpt>
      <trkpt lat="49.00374" lon="1.148">
        <ele>167.6</ele>
        <time>2017-09-19T17:28:58Z</time>
      </trkpt>
      <trkpt lat="49.0037" lon="1.14782">
        <ele>167.1</ele>
        <time>2017-09-19T17:29:00Z</time>
      </trkpt>
      <trkpt lat="49.00363" lon="1.14767">
        <ele>166.7</ele>
        <time>2017-09-19T17:29:02Z</time>
      </trkpt>
      <trkpt lat="49.00357" lon="1.14756">
        <ele>166.5</ele>
        <time>2017-09-19T17:29:04Z</time>
      </trkpt>
      <trkpt lat="49.0035" lon="1.14745">
        <ele>166.4</ele>
        <time>2017-09-19T17:29:06Z</time>
      </trkpt>
      <trkpt lat="49.00342" lon="1.14733">
        <ele>166</ele>
        <time>2017-09-19T17:29:08Z</time>
      </trkpt>
      <trkpt lat="49.00337" lon="1.14718">
        <ele>165.7</ele>
        <time>2017-09-19T17:29:10Z</time>
      </trkpt>
      <trkpt lat="49.00335" lon="1.14702">
        <ele>165.4</ele>
        <time>2017-09-19T17:29:12Z</time>
      </trkpt>
      <trkpt lat="49.00335" lon="1.14685">
        <ele>165.1</ele>
        <time>2017-09-19T17:29:14Z</time>
      </trkpt>
      <trkpt lat="49.00334" lon="1.14667">
        <ele>164.8</ele>
        <time>2017-09-19T17:29:16Z</time>
      </trkpt>
      <trkpt lat="49.00334" lon="1.1465">
        <ele>164.7</ele>
        <time>2017-09-19T17:29:18Z</time>
      </trkpt>
      <trkpt lat="49.00334" lon="1.14633">
        <ele>164.4</ele>
        <time>2017-09-19T17:29:20Z</time>
      </trkpt>
      <trkpt lat="49.00333" lon="1.14616">
        <ele>164.2</ele>
        <time>2017-09-19T17:29:22Z</time>
      </trkpt>
      <trkpt lat="49.00333" lon="1.14599">
        <ele>164</ele>
        <time>2017-09-19T17:29:24Z</time>
      </trkpt>
      <trkpt lat="49.00332" lon="1.14582">
        <ele>163.7</ele>
        <time>2017-09-19T17:29:26Z</time>
      </trkpt>
      <trkpt lat="49.00332" lon="1.14565">
        <ele>163.5</ele>
        <time>2017-09-19T17:29:28Z</time>
      </trkpt>
      <trkpt lat="49.00332" lon="1.14549">
        <ele>163.4</ele>
        <time>2017-09-19T17:29:30Z</time>
      </trkpt>
      <trkpt lat="49.00331" lon="1.14532">
        <ele>163.3</ele>
        <time>2017-09-19T17:29:32Z</time>
      </trkpt>
      <trkpt lat="49.0033" lon="1.14517">
        <ele>163.3</ele>
        <time>2017-09-19T17:29:34Z</time>
      </trkpt>
      <trkpt lat="49.0033" lon="1.14501">
        <ele>163.4</ele>
        <time>2017-09-19T17:29:36Z</time>
      </trkpt>
      <trkpt lat="49.00329" lon="1.14486">
        <ele>163.5</ele>
        <time>2017-09-19T17:29:38Z</time>
      </trkpt>
      <trkpt lat="49.00329" lon="1.14471">
        <ele>163.5</ele>
        <time>2017-09-19T17:29:40Z</time>
      </trkpt>
      <trkpt lat="49.00329" lon="1.14455">
        <ele>163.6</ele>
        <time>2017-09-19T17:29:42Z</time>
      </trkpt>
      <trkpt lat="49.00329" lon="1.1444">
        <ele>163.5</ele>
        <time>2017-09-19T17:29:44Z</time>
      </trkpt>
      <trkpt lat="49.00328" lon="1.14424">
        <ele>163.5</ele>
        <time>2017-09-19T17:29:46Z</time>
      </trkpt>
      <trkpt lat="49.00328" lon="1.14409">
        <ele>163.4</ele>
        <time>2017-09-19T17:29:48Z</time>
      </trkpt>
      <trkpt lat="49.00328" lon="1.14394">
        <ele>163.3</ele>
        <time>2017-09-19T17:29:50Z</time>
      </trkpt>
      <trkpt lat="49.00328" lon="1.1438">
        <ele>163.3</ele>
        <time>2017-09-19T17:29:52Z</time>
      </trkpt>
      <trkpt lat="49.00328" lon="1.14366">
        <ele>163.4</ele>
        <time>2017-09-19T17:29:54Z</time>
      </trkpt>
      <trkpt lat="49.00328" lon="1.14352">
        <ele>163.4</ele>
        <time>2017-09-19T17:29:56Z</time>
      </trkpt>
      <trkpt lat="49.00328" lon="1.14337">
        <ele>163.5</ele>
        <time>2017-09-19T17:29:58Z</time>
      </trkpt>
      <trkpt lat="49.00328" lon="1.14323">
        <ele>163.5</ele>
        <time>2017-09-19T17:30:00Z</time>
      </trkpt>
      <trkpt lat="49.00328" lon="1.14309">
        <ele>163.6</ele>
        <time>2017-09-19T17:30:02Z</time>
      </trkpt>
      <trkpt lat="49.00328" lon="1.14294">
        <ele>163.7</ele>
        <time>2017-09-19T17:30:04Z</time>
      </trkpt>
      <trkpt lat="49.00327" lon="1.1428">
        <ele>163.8</ele>
        <time>2017-09-19T17:30:06Z</time>
      </trkpt>
      <trkpt lat="49.00327" lon="1.14266">
        <ele>163.9</ele>
        <time>2017-09-19T17:30:08Z</time>
      </trkpt>
      <trkpt lat="49.00326" lon="1.14252">
        <ele>163.9</ele>
        <time>2017-09-19T17:30:10Z</time>
      </trkpt>
      <trkpt lat="49.00326" lon="1.14237">
        <ele>164</ele>
        <time>2017-09-19T17:30:12Z</time>
      </trkpt>
      <trkpt lat="49.00325" lon="1.14223">
        <ele>164.1</ele>
        <time>2017-09-19T17:30:14Z</time>
      </trkpt>
      <trkpt lat="49.00325" lon="1.14203">
        <ele>164.5</ele>
        <time>2017-09-19T17:30:17Z</time>
      </trkpt>
      <trkpt lat="49.00324" lon="1.14183">
        <ele>164.6</ele>
        <time>2017-09-19T17:30:20Z</time>
      </trkpt>
      <trkpt lat="49.00324" lon="1.14164">
        <ele>164.9</ele>
        <time>2017-09-19T17:30:23Z</time>
      </trkpt>
      <trkpt lat="49.00325" lon="1.14145">
        <ele>165.1</ele>
        <time>2017-09-19T17:30:26Z</time>
      </trkpt>
      <trkpt lat="49.00325" lon="1.14125">
        <ele>165.1</ele>
        <time>2017-09-19T17:30:29Z</time>
      </trkpt>
      <trkpt lat="49.00325" lon="1.14111">
        <ele>165.2</ele>
        <time>2017-09-19T17:30:31Z</time>
      </trkpt>
      <trkpt lat="49.00326" lon="1.14097">
        <ele>165.3</ele>
        <time>2017-09-19T17:30:33Z</time>
      </trkpt>
      <trkpt lat="49.00326" lon="1.14083">
        <ele>165.4</ele>
        <time>2017-09-19T17:30:35Z</time>
      </trkpt>
      <trkpt lat="49.00326" lon="1.14069">
        <ele>165.4</ele>
        <time>2017-09-19T17:30:37Z</time>
      </trkpt>
      <trkpt lat="49.00326" lon="1.14055">
        <ele>165.7</ele>
        <time>2017-09-19T17:30:39Z</time>
      </trkpt>
      <trkpt lat="49.00327" lon="1.14041">
        <ele>165.8</ele>
        <time>2017-09-19T17:30:41Z</time>
      </trkpt>
      <trkpt lat="49.00327" lon="1.14026">
        <ele>165.9</ele>
        <time>2017-09-19T17:30:43Z</time>
      </trkpt>
      <trkpt lat="49.00329" lon="1.1401">
        <ele>165.8</ele>
        <time>2017-09-19T17:30:45Z</time>
      </trkpt>
      <trkpt lat="49.00329" lon="1.13995">
        <ele>165.7</ele>
        <time>2017-09-19T17:30:47Z</time>
      </trkpt>
      <trkpt lat="49.00327" lon="1.13978">
        <ele>165.8</ele>
        <time>2017-09-19T17:30:50Z</time>
      </trkpt>
      <trkpt lat="49.00325" lon="1.13961">
        <ele>165.6</ele>
        <time>2017-09-19T17:30:53Z</time>
      </trkpt>
      <trkpt lat="49.00321" lon="1.13945">
        <ele>166</ele>
        <time>2017-09-19T17:30:56Z</time>
      </trkpt>
      <trkpt lat="49.00316" lon="1.13933">
        <ele>166.4</ele>
        <time>2017-09-19T17:30:58Z</time>
      </trkpt>
      <trkpt lat="49.00312" lon="1.1392">
        <ele>166.7</ele>
        <time>2017-09-19T17:31:00Z</time>
      </trkpt>
      <trkpt lat="49.00306" lon="1.13902">
        <ele>166.9</ele>
        <time>2017-09-19T17:31:03Z</time>
      </trkpt>
      <trkpt lat="49.00301" lon="1.1389">
        <ele>167.1</ele>
        <time>2017-09-19T17:31:05Z</time>
      </trkpt>
      <trkpt lat="49.00296" lon="1.13874">
        <ele>167.5</ele>
        <time>2017-09-19T17:31:08Z</time>
      </trkpt>
      <trkpt lat="49.0029" lon="1.13858">
        <ele>167.7</ele>
        <time>2017-09-19T17:31:11Z</time>
      </trkpt>
      <trkpt lat="49.00284" lon="1.13844">
        <ele>168.3</ele>
        <time>2017-09-19T17:31:14Z</time>
      </trkpt>
      <trkpt lat="49.00282" lon="1.13827">
        <ele>168.6</ele>
        <time>2017-09-19T17:31:18Z</time>
      </trkpt>
      <trkpt lat="49.00287" lon="1.13815">
        <ele>168.7</ele>
        <time>2017-09-19T17:31:21Z</time>
      </trkpt>
      <trkpt lat="49.00287" lon="1.13798">
        <ele>168.8</ele>
        <time>2017-09-19T17:31:25Z</time>
      </trkpt>
      <trkpt lat="49.00287" lon="1.13783">
        <ele>168.6</ele>
        <time>2017-09-19T17:31:27Z</time>
      </trkpt>
      <trkpt lat="49.0029" lon="1.13765">
        <ele>168.2</ele>
        <time>2017-09-19T17:31:30Z</time>
      </trkpt>
      <trkpt lat="49.00292" lon="1.13745">
        <ele>168</ele>
        <time>2017-09-19T17:31:33Z</time>
      </trkpt>
      <trkpt lat="49.00295" lon="1.13726">
        <ele>167.3</ele>
        <time>2017-09-19T17:31:35Z</time>
      </trkpt>
      <trkpt lat="49.00297" lon="1.13704">
        <ele>166.8</ele>
        <time>2017-09-19T17:31:37Z</time>
      </trkpt>
      <trkpt lat="49.00301" lon="1.13684">
        <ele>166.4</ele>
        <time>2017-09-19T17:31:39Z</time>
      </trkpt>
      <trkpt lat="49.00302" lon="1.13667">
        <ele>166</ele>
        <time>2017-09-19T17:31:41Z</time>
      </trkpt>
      <trkpt lat="49.00304" lon="1.13649">
        <ele>165.7</ele>
        <time>2017-09-19T17:31:43Z</time>
      </trkpt>
      <trkpt lat="49.00306" lon="1.13634">
        <ele>165.4</ele>
        <time>2017-09-19T17:31:45Z</time>
      </trkpt>
      <trkpt lat="49.00306" lon="1.13615">
        <ele>164.8</ele>
        <time>2017-09-19T17:31:48Z</time>
      </trkpt>
      <trkpt lat="49.00307" lon="1.13601">
        <ele>164.6</ele>
        <time>2017-09-19T17:31:50Z</time>
      </trkpt>
      <trkpt lat="49.00309" lon="1.13586">
        <ele>164.4</ele>
        <time>2017-09-19T17:31:52Z</time>
      </trkpt>
      <trkpt lat="49.00313" lon="1.13564">
        <ele>164.3</ele>
        <time>2017-09-19T17:31:54Z</time>
      </trkpt>
      <trkpt lat="49.00315" lon="1.13547">
        <ele>164</ele>
        <time>2017-09-19T17:31:56Z</time>
      </trkpt>
      <trkpt lat="49.00319" lon="1.13527">
        <ele>163.9</ele>
        <time>2017-09-19T17:31:59Z</time>
      </trkpt>
      <trkpt lat="49.00319" lon="1.13512">
        <ele>163.8</ele>
        <time>2017-09-19T17:32:01Z</time>
      </trkpt>
      <trkpt lat="49.00319" lon="1.13497">
        <ele>163.9</ele>
        <time>2017-09-19T17:32:03Z</time>
      </trkpt>
      <trkpt lat="49.00318" lon="1.1348">
        <ele>164.1</ele>
        <time>2017-09-19T17:32:05Z</time>
      </trkpt>
      <trkpt lat="49.00321" lon="1.13465">
        <ele>164.1</ele>
        <time>2017-09-19T17:32:07Z</time>
      </trkpt>
      <trkpt lat="49.00325" lon="1.13452">
        <ele>164.3</ele>
        <time>2017-09-19T17:32:09Z</time>
      </trkpt>
      <trkpt lat="49.00326" lon="1.13436">
        <ele>164.5</ele>
        <time>2017-09-19T17:32:12Z</time>
      </trkpt>
      <trkpt lat="49.00328" lon="1.13417">
        <ele>164.5</ele>
        <time>2017-09-19T17:32:15Z</time>
      </trkpt>
      <trkpt lat="49.00334" lon="1.13406">
        <ele>164.4</ele>
        <time>2017-09-19T17:32:17Z</time>
      </trkpt>
      <trkpt lat="49.00346" lon="1.13397">
        <ele>163.9</ele>
        <time>2017-09-19T17:32:20Z</time>
      </trkpt>
      <trkpt lat="49.00356" lon="1.1339">
        <ele>163.8</ele>
        <time>2017-09-19T17:32:23Z</time>
      </trkpt>
      <trkpt lat="49.00365" lon="1.13388">
        <ele>163.5</ele>
        <time>2017-09-19T17:32:27Z</time>
      </trkpt>
      <trkpt lat="49.00372" lon="1.13377">
        <ele>163.1</ele>
        <time>2017-09-19T17:32:31Z</time>
      </trkpt>
      <trkpt lat="49.00368" lon="1.13359">
        <ele>163</ele>
        <time>2017-09-19T17:32:34Z</time>
      </trkpt>
      <trkpt lat="49.00366" lon="1.13344">
        <ele>163.3</ele>
        <time>2017-09-19T17:32:38Z</time>
      </trkpt>
      <trkpt lat="49.00365" lon="1.1333">
        <ele>163.3</ele>
        <time>2017-09-19T17:32:41Z</time>
      </trkpt>
      <trkpt lat="49.00362" lon="1.13316">
        <ele>163.4</ele>
        <time>2017-09-19T17:32:44Z</time>
      </trkpt>
      <trkpt lat="49.00361" lon="1.13301">
        <ele>163.6</ele>
        <time>2017-09-19T17:32:47Z</time>
      </trkpt>
      <trkpt lat="49.00357" lon="1.13282">
        <ele>163.9</ele>
        <time>2017-09-19T17:32:50Z</time>
      </trkpt>
      <trkpt lat="49.00355" lon="1.13267">
        <ele>164</ele>
        <time>2017-09-19T17:32:53Z</time>
      </trkpt>
      <trkpt lat="49.00352" lon="1.13251">
        <ele>164.2</ele>
        <time>2017-09-19T17:32:56Z</time>
      </trkpt>
      <trkpt lat="49.00349" lon="1.13236">
        <ele>164.3</ele>
        <time>2017-09-19T17:32:59Z</time>
      </trkpt>
      <trkpt lat="49.00344" lon="1.13224">
        <ele>164.4</ele>
        <time>2017-09-19T17:33:01Z</time>
      </trkpt>
      <trkpt lat="49.0034" lon="1.13208">
        <ele>164.5</ele>
        <time>2017-09-19T17:33:04Z</time>
      </trkpt>
      <trkpt lat="49.00336" lon="1.13192">
        <ele>164.4</ele>
        <time>2017-09-19T17:33:07Z</time>
      </trkpt>
      <trkpt lat="49.00331" lon="1.13174">
        <ele>164.2</ele>
        <time>2017-09-19T17:33:10Z</time>
      </trkpt>
      <trkpt lat="49.00327" lon="1.13159">
        <ele>164.2</ele>
        <time>2017-09-19T17:33:13Z</time>
      </trkpt>
      <trkpt lat="49.00324" lon="1.13142">
        <ele>164.1</ele>
        <time>2017-09-19T17:33:17Z</time>
      </trkpt>
      <trkpt lat="49.00322" lon="1.13127">
        <ele>164.1</ele>
        <time>2017-09-19T17:33:20Z</time>
      </trkpt>
      <trkpt lat="49.00318" lon="1.13114">
        <ele>164.1</ele>
        <time>2017-09-19T17:33:22Z</time>
      </trkpt>
      <trkpt lat="49.00314" lon="1.13099">
        <ele>164.2</ele>
        <time>2017-09-19T17:33:25Z</time>
      </trkpt>
      <trkpt lat="49.00311" lon="1.13082">
        <ele>164.2</ele>
        <time>2017-09-19T17:33:29Z</time>
      </trkpt>
      <trkpt lat="49.00306" lon="1.13069">
        <ele>164.4</ele>
        <time>2017-09-19T17:33:32Z</time>
      </trkpt>
      <trkpt lat="49.00298" lon="1.13064">
        <ele>164.4</ele>
        <time>2017-09-19T17:33:36Z</time>
      </trkpt>
      <trkpt lat="49.00289" lon="1.13063">
        <ele>164.8</ele>
        <time>2017-09-19T17:33:41Z</time>
      </trkpt>
      <trkpt lat="49.00281" lon="1.13053">
        <ele>164.9</ele>
        <time>2017-09-19T17:33:44Z</time>
      </trkpt>
      <trkpt lat="49.00271" lon="1.13045">
        <ele>164.9</ele>
        <time>2017-09-19T17:33:47Z</time>
      </trkpt>
      <trkpt lat="49.00259" lon="1.13044">
        <ele>165.1</ele>
        <time>2017-09-19T17:33:50Z</time>
      </trkpt>
      <trkpt lat="49.00249" lon="1.13045">
        <ele>165.4</ele>
        <time>2017-09-19T17:33:53Z</time>
      </trkpt>
      <trkpt lat="49.0024" lon="1.13044">
        <ele>165.8</ele>
        <time>2017-09-19T17:33:56Z</time>
      </trkpt>
      <trkpt lat="49.00231" lon="1.13035">
        <ele>166.3</ele>
        <time>2017-09-19T17:34:00Z</time>
      </trkpt>
      <trkpt lat="49.00221" lon="1.13027">
        <ele>166.8</ele>
        <time>2017-09-19T17:34:04Z</time>
      </trkpt>
      <trkpt lat="49.00215" lon="1.13016">
        <ele>167.1</ele>
        <time>2017-09-19T17:34:08Z</time>
      </trkpt>
      <trkpt lat="49.00214" lon="1.13001">
        <ele>167.3</ele>
        <time>2017-09-19T17:34:14Z</time>
      </trkpt>
      <trkpt lat="49.00213" lon="1.13">
        <ele>167.8</ele>
        <time>2017-09-19T17:34:41Z</time>
      </trkpt>
    </trkseg>
  </trk>
</gpx>